     2.11           OBSERVATION DATA    G (GPS)             RINEX VERSION / TYPE
teqc 2010Oct21 OPUS Account 20111025 19:44:51UTC            PGM / RUN BY / DATE
2936                                                        MARKER NAME
1130                                                        MARKER NUMBER
CSMIDDLETON NGS                                             OBSERVER / AGENCY
0220390632 TRIMBLE R7 2.28                                  REC # / TYPE / VERS
60183425 TRM41249.00 NONE                                   ANT # / TYPE
  -739562.7138 -5474850.5958  3177066.6311                  APPROX POSITION XYZ
        2.0010        0.0000        0.0000                  ANTENNA: DELTA H/E/N
     1     1                                                WAVELENGTH FACT L1/2
     5    L1    L2    C1    P1    P2                        # / TYPES OF OBSERV
    15                                                      LEAP SECONDS
  2011     7    28     0     0   30.0000000     GPS         TIME OF FIRST OBS
                                                            END OF HEADER
 11  7 28  0  0 30.0000000  0  8G28G10G17G09G04G20G27G02
  -8520300.14158  -6627403.71555  21904660.7344                   21904658.8164
  -5026488.33657  -3899850.38354  23647870.1884                   23647871.4574
 -12960562.69558 -10081126.33256  21465821.1484                   21465819.2194
  -9163346.07857  -7119838.64155  22267260.5784                   22267259.8284
 -22194343.50458 -17274917.48456  20004157.5554                   20004155.5164
   -371047.30956   -280884.06253  24301792.9534                   24301791.5234
 -12321236.21157  -9582915.82055  22505454.4224                   22505454.8874
 -11339389.98057  -8816279.61755  22427961.1804                   22427959.1684
 11  7 28  0  1  0.0000000  0  8G28G10G17G09G04G20G27G02
  -8457266.02348  -6578286.26245  21916655.5314                   21916653.5004
  -5107919.07846  -3963302.76644  23632374.1414                   23632375.5594
 -12917105.99248 -10047263.97746  21474090.7034                   21474088.2734
  -9178546.10247  -7131682.82445  22264368.2734                   22264367.0164
 -22196612.56648 -17276685.56647  20003725.7194                   20003723.4734
   -323962.12946   -244194.33243  24310753.1094                   24310751.6764
 -12319258.48047  -9581374.75045  22505830.0314                   22505830.4024
 -11406792.50048  -8868800.94945  22415134.3524                   22415132.2934
 11  7 28  0  1 30.0000000  0  8G28G10G17G09G04G20G27G02
  -8393793.66848  -6528827.30945  21928734.1334                   21928732.0204
  -5189239.75447  -4026669.38744  23616899.1334                   23616900.2344
 -12873488.46948 -10013276.30146  21482390.1954                   21482388.3244
  -9193045.63347  -7142981.13744  22261608.6024                   22261608.1764
 -22198242.58248 -17277955.69547  20003415.3444                   20003414.1054
   -276316.07046   -207067.55143  24319820.3444                   24319818.6524
 -12316722.35947  -9579398.58645  22506312.8754                   22506312.7114
 -11473838.80548  -8921044.70345  22402375.8594                   22402374.0704
 11  7 28  0  2  0.0000000  0  8G28G10G17G09G04G20G27G02
  -8329901.78148  -6479041.44945  21940892.2664                   21940890.2664
  -5270465.80946  -4089962.28943  23601441.3364                   23601443.3914
 -12829728.82447  -9979177.89546  21490717.3594                   21490715.7974
  -9206862.35247  -7153747.40644  22258979.5314                   22258978.7504
 -22199252.57848 -17278742.69147  20003222.9924                   20003221.7504
   -228128.78946   -169519.03143  24328989.3134                   24328988.3754
 -12313646.80547  -9577002.07045  22506898.2734                   22506898.6414
 -11540546.16848  -8973024.37945  22389681.6334                   22389679.3634
 11  7 28  0  2 30.0000000  0  8G28G10G17G09G04G20G27G02
  -8265583.57848  -6428923.40645  21953131.9064                   21953129.8324
  -5351587.54746  -4153173.90244  23586004.5004                   23586005.9414
 -12785821.07048  -9944964.07046  21499073.0314                   21499071.1724
  -9219988.71147  -7163975.73845  22256481.3984                   22256480.6914
 -22199635.99648 -17279041.43447  20003150.3364                   20003148.6094
   -179393.78546   -131543.71943  24338263.5084                   24338262.5664
 -12310025.07447  -9574179.98045  22507587.9694                   22507587.4224
 -11606906.16448  -9024733.35945  22377054.1884                   22377051.5044
 11  7 28  0  3  0.0000000  0  8G28G10G17G09G04G20G27G02
  -8200833.67647  -6378468.97345  21965453.3834                   21965451.2814
  -5432596.16446  -4216297.36744  23570589.6094                   23570590.7344
 -12741759.89548  -9910630.69146  21507457.2424                   21507455.7704
  -9232419.20747  -7173661.82045  22254116.4304                   22254115.5124
 -22199388.10248 -17278848.25447  20003197.3594                   20003196.1214
   -130106.77046    -93138.26243  24347642.9534                   24347641.7584
 -12305852.03147  -9570928.27745  22508381.8834                   22508381.5164
 -11672912.58248  -9076166.83645  22364493.1024                   22364491.6914
 11  7 28  0  3 30.0000000  0  8G28G10G17G09G04G20G27G02
  -8135651.30147  -6327677.53545  21977857.1094                   21977855.5864
  -5513487.84847  -4279329.71144  23555196.0084                   23555197.4454
 -12697545.07447  -9876177.60246  21515871.4384                   21515869.6454
  -9244152.25047  -7182804.44145  22251883.2504                   22251882.9804
 -22198508.44148 -17278162.78547  20003364.5394                   20003363.3524
    -80267.44146    -54302.41843  24357126.7504                   24357125.4414
 -12301126.83647  -9567246.32845  22509280.8984                   22509280.6954
 -11738563.32847  -9127323.17645  22352000.0784                   22351997.9804
 11  7 28  0  4  0.0000000  0  8G28G10G17G09G04G20G27G02
  -8070037.72747  -6276550.10945  21990342.6724                   21990341.1994
  -5594260.90647  -4342269.62544  23539825.7344                   23539827.1954
 -12653177.91848  -9841605.80146  21524314.3444                   21524312.2734
  -9255188.75447  -7191404.28545  22249783.2504                   22249782.8834
 -22196998.46148 -17276986.16047  20003651.9694                   20003650.5394
    -29877.91446    -15037.84043  24366715.1484                   24366714.4414
 -12295850.71947  -9563135.10245  22510285.3984                   22510284.2584
 -11803858.12148  -9178202.14545  22339575.2504                   22339572.3954
 11  7 28  0  4 30.0000000  0  8G28G10G17G09G04G20G27G02
  -8003992.64847  -6225086.44145  22002910.9384                   22002909.0274
  -5674911.75047  -4405114.29344  23524478.4224                   23524479.2344
 -12608658.59048  -9806915.43046  21532786.1094                   21532784.4344
  -9265527.99247  -7199460.82845  22247816.0944                   22247815.3484
 -22194858.26648 -17275318.45747  20004059.4064                   20004058.0784
     21061.55946     24655.23443  24376408.6804                   24376408.0434
 -12290023.57447  -9558594.50445  22511393.7194                   22511393.0044
 -11868795.44948  -9228802.56645  22327217.9304                   22327215.9224
 11  7 28  0  5  0.0000000  0  8G28G10G17G09G04G20G27G02
  -7937512.78948  -6173284.00045  22015561.3134                   22015559.5434
  -5755433.59847  -4467858.46544  23509155.2034                   23509156.0124
 -12563983.98848  -9772104.05546  21541287.4064                   21541285.7154
  -9275166.34047  -7206971.23045  22245981.3674                   22245980.9304
 -22192084.97748 -17273157.43747  20004587.2114                   20004585.7894
     72553.44546     64778.77043  24386207.8754                   24386206.4064
 -12283642.44947  -9553622.20345  22512608.5004                   22512607.4494
 -11933370.65648  -9279120.83245  22314929.4304                   22314926.8444
 11  7 28  0  5 30.0000000  0  8G28G10G17G09G04G20G27G02
  -7870589.96148  -6121136.37545  22028296.4534                   22028294.9964
  -5835814.94547  -4530493.12544  23493859.0944                   23493859.3244
 -12519146.39147  -9737165.67646  21549819.6414                   21549817.6484
  -9284094.73447  -7213928.41045  22244282.0164                   22244282.6094
 -22188670.90248 -17270497.10547  20005236.6884                   20005235.5784
    124605.34047    105338.68443  24396113.4144                   24396112.1294
 -12276699.13347  -9548211.82845  22513929.5394                   22513928.5204
 -11997574.25048  -9329149.51645  22302711.5634                   22302709.1094
 11  7 28  0  6  0.0000000  0  8G28G10G17G09G04G20G27G02
  -7803221.62948  -6068641.60245  22041116.6724                   22041114.3794
  -5916050.01647  -4593013.81644  23478590.7034                   23478591.5124
 -12474142.91448  -9702098.06646  21558383.7344                   21558381.6564
  -9292309.70347  -7220329.67245  22242719.1644                   22242719.3524
 -22184613.68748 -17267335.62147  20006008.6024                   20006007.3754
    177219.19547    146336.48043  24406126.3204                   24406124.3524
 -12269191.19147  -9542361.50045  22515358.1334                   22515357.4344
 -12061402.13348  -9378885.44145  22290565.9224                   22290563.7584
 11  7 28  0  6 30.0000000  0  8G28G10G17G09G04G20G27G02
  -7735418.96547  -6015808.38745  22054018.9694                   22054016.7934
  -5996146.41046  -4655426.44944  23463349.0394                   23463348.9734
 -12428985.01648  -9666910.08646  21566977.0084                   21566974.6724
  -9299822.19147  -7226183.55945  22241290.0004                   22241289.5164
 -22179924.69948 -17263681.85247  20006900.8984                   20006899.3554
    230383.12147    187762.91044  24416242.4534                   24416241.3364
 -12261129.53547  -9536079.69145  22516892.1564                   22516891.5004
 -12124863.96948  -9428336.13745  22278489.3524                   22278486.7624
 11  7 28  0  7  0.0000000  0  8G28G10G17G09G04G20G27G02
  -7667176.78947  -5962632.71145  22067004.8754                   22067003.3134
  -6076096.38346  -4717724.99644  23448134.6254                   23448135.1374
 -12383667.95748  -9631598.10546  21575600.7114                   21575598.7384
  -9306627.13347  -7231486.12945  22239994.6334                   22239994.7624
 -22174599.55148 -17259532.37547  20007914.1174                   20007912.8244
    284101.14546    229621.07043  24426464.6954                   24426464.0434
 -12252509.90247  -9529363.09845  22518532.4144                   22518532.0554
 -12187953.63348  -9477496.82845  22266483.9844                   22266480.8244
 11  7 28  0  7 30.0000000  0  8G28G10G17G09G04G20G27G02
  -7598487.52747  -5909108.66045  22080075.9694                   22080074.2974
  -6155888.88346  -4779900.82443  23432950.4454                   23432951.0084
 -12338184.38748  -9596156.37146  21584255.7734                   21584253.4574
  -9312716.39547  -7236231.01245  22238835.8834                   22238835.4574
 -22168631.25448 -17254881.73847  20009050.1174                   20009048.8794
    338380.30947    271916.51243  24436793.5784                   24436792.7894
 -12243324.78947  -9522205.86745  22520280.3364                   22520280.4224
 -12250661.99648  -9526360.39845  22254550.7504                   22254548.1334
 11  7 28  0  8  0.0000000  0  8G28G10G17G09G04G20G27G02
  -7529356.52747  -5855240.41045  22093231.3284                   22093229.7774
  -6235525.76646  -4841955.39844  23417795.9614                   23417796.4184
 -12292539.79348  -9560589.17246  21592941.6414                   21592939.5434
  -9318094.68447  -7240421.90645  22237812.6724                   22237812.0354
 -22162025.32848 -17249734.25047  20010307.0314                   20010305.6724
    393214.44246    314644.37343  24447227.7664                   24447227.0704
 -12233579.42247  -9514612.07045  22522134.7734                   22522134.6954
 -12312992.88348  -9574929.84045  22242689.3914                   22242687.0594
 11  7 28  0  8 30.0000000  0  8G28G10G17G09G04G20G27G02
  -7459784.62947  -5801028.58245  22106470.4144                   22106468.3054
  -6315004.59047  -4903886.80944  23402671.4064                   23402673.0394
 -12246735.15248  -9524897.26246  21601658.1484                   21601656.0474
  -9322762.49647  -7244059.16845  22236924.2194                   22236924.5554
 -22154783.00848 -17244090.86747  20011685.5234                   20011684.0204
    448602.06346    357803.55943  24457767.5394                   24457766.3484
 -12223274.87947  -9506582.55545  22524095.4144                   22524095.3634
 -12374945.95348  -9623204.87145  22230900.0704                   22230896.9574
 11  7 28  0  9  0.0000000  0  8G28G10G17G09G04G20G27G02
  -7389765.80547  -5746468.50445  22119794.5474                   22119792.4384
  -6394315.96946  -4965687.75844  23387579.0474                   23387579.7034
 -12200764.06248  -9489075.64546  21610405.8834                   21610403.8484
  -9326713.28147  -7247137.73045  22236172.7194                   22236172.5744
 -22146898.86748 -17237947.37147  20013185.5004                   20013184.1954
    504548.29346    401398.02343  24468413.8204                   24468412.8524
 -12212405.34047  -9498112.77045  22526163.9304                   22526164.0594
 -12436513.93048  -9671179.83245  22219184.0554                   22219181.1334
 11  7 28  0  9 30.0000000  0  8G28G10G17G09G04G20G27G02
  -7319303.54747  -5691562.90245  22133203.1024                   22133200.9144
  -6473459.73046  -5027358.09844  23372518.7894                   23372518.8204
 -12154630.29348  -9453127.25446  21619185.0474                   21619183.0354
  -9329950.20347  -7249660.03145  22235557.0704                   22235555.9414
 -22138376.48848 -17231306.55147  20014807.2194                   20014805.8444
    561049.11746    445424.61743  24479165.7894                   24479164.4844
 -12200974.22747  -9489205.41445  22528339.1564                   22528339.2194
 -12497698.75447  -9718856.23445  22207541.0704                   22207538.5164
 11  7 28  0 10  0.0000000  0  8G28G10G17G09G04G20G27G02
  -7248393.20347  -5636308.12945  22146696.9614                   22146694.8674
  -6552427.81646  -5088891.52744  23357490.7664                   23357491.8524
 -12108329.34448  -9417048.59846  21627995.6484                   21627993.3914
  -9332468.34847  -7251622.25845  22235077.1954                   22235076.9344
 -22129212.28948 -17224165.59447  20016551.0704                   20016549.9574
    618108.38346    489886.35243  24490023.1414                   24490022.9064
 -12188977.42647  -9479857.24245  22530621.9144                   22530621.6524
 -12558494.59448  -9766229.52345  22195971.8594                   22195969.3754
 11  7 28  0 10 30.0000000  0  8G28G10G17G09G04G20G27G02
  -7177034.04747  -5580703.64145  22160276.2814                   22160273.9614
  -6631215.82846  -5150284.66444  23342498.7584                   23342498.8404
 -12061860.00048  -9380838.73046  21636838.3594                   21636836.5434
  -9334266.55547  -7253023.48845  22234735.3134                   22234734.6334
 -22119405.55948 -17216523.97347  20018417.0084                   20018415.8634
    675725.91846    534783.10543  24500987.0314                   24500986.6374
 -12176414.39847  -9470067.86745  22533012.8134                   22533012.5984
 -12618898.85947  -9813297.69545  22184476.8914                   22184474.7814
 11  7 28  0 11  0.0000000  0  8G28G10G17G09G04G20G27G02
  -7105227.78147  -5524750.74245  22173940.5704                   22173938.0354
  -6709822.34447  -5211536.35244  23327539.6804                   23327540.9694
 -12015224.81648  -9344499.64146  21645713.2344                   21645711.0744
  -9335346.48047  -7253865.03145  22234529.8204                   22234529.1684
 -22108958.72348 -17208383.56647  20020405.1484                   20020403.9264
    733899.23446    580112.89843  24512057.3364                   24512056.9844
 -12163287.05147  -9459838.77745  22535511.4064                   22535510.7114
 -12678912.36348  -9860061.38345  22173057.0554                   22173054.3244
 11  7 28  0 11 30.0000000  0  8G28G10G17G09G04G20G27G02
  -7032973.55547  -5468448.78145  22187690.1644                   22187687.8954
  -6788243.24647  -5272643.43744  23312617.2584                   23312617.4574
 -11968422.60248  -9308030.38346  21654619.1804                   21654617.5474
  -9335706.88347  -7254145.88345  22234461.1334                   22234460.7464
 -22097871.34848 -17199744.03547  20022515.2114                   20022513.7304
    792628.33246    625875.81343  24523233.3284                   24523232.3794
 -12149594.73047  -9449169.45345  22538116.5704                   22538115.9414
 -12738532.73848  -9906518.73446  22161711.8674                   22161708.9884
 11  7 28  0 12  0.0000000  0  8G28G10G17G09G04G20G27G02
  -6960268.34447  -5411795.40645  22201525.3594                   22201523.7504
  -6866471.52747  -5333600.40644  23297730.6174                   23297731.2704
 -11921449.87548  -9271428.27046  21663557.5004                   21663555.8364
  -9335344.21547  -7253863.29745  22234529.9694                   22234529.9574
 -22086140.91048 -17190603.41847  20024747.1954                   20024745.9804
    851915.64546    672073.72743  24534515.0474                   24534514.0744
 -12135334.30147  -9438057.43045  22540830.3284                   22540830.3484
 -12797755.17248  -9952666.00445  22150441.8054                   22150439.3984
 11  7 28  0 12 30.0000000  0  8G28G10G17G09G04G20G27G02
  -6887112.59447  -5354790.96945  22215446.5314                   22215444.2774
  -6944504.29347  -5394405.03944  23282881.1334                   23282881.2114
 -11874307.45748  -9234693.92246  21672528.0634                   21672526.7154
  -9334258.79747  -7253017.54745  22234736.7814                   22234736.0904
 -22073768.19948 -17180962.33247  20027101.8754                   20027100.6524
    911759.82845    718705.51643  24545903.0634                   24545901.6804
 -12120506.73047  -9426503.47745  22543651.5164                   22543651.3444
 -12856579.09848  -9998502.75446  22139247.8674                   22139245.2704
 11  7 28  0 13  0.0000000  0  9G12G28G10G17G09G04G20G27G02
  -1696496.21556  -1313092.45353  24497308.2114                   24497307.3714
  -8388922.12547  -6525032.21145  21929661.4924                   21929659.7504
  -8597758.60547  -6682655.03944  22968277.6174                   22968277.3834
 -13402411.46148 -10425424.31646  21381739.7814                   21381737.9734
 -10907868.44147  -8479206.89845  21935289.1564                   21935288.5474
 -23636171.44948 -18398419.39846  19729786.5474                   19729785.0044
   -603255.93746   -461826.29343  24257605.4774                   24257604.5704
 -13680529.80547 -10642105.89145  22246789.4064                   22246788.6604
 -14490423.10948 -11271627.89145  21828337.7274                   21828334.7974
 11  7 28  0 13 30.0000000  0  9G12G28G10G17G09G04G20G27G02
  -1779201.95346  -1377538.42242  24481569.1564                   24481568.4454
  -8314867.75447  -6467327.55545  21943753.9924                   21943752.0664
  -8675392.48847  -6743148.85544  22953503.8914                   22953503.9144
 -13354931.46547 -10388426.93446  21390775.1174                   21390773.2464
 -10905339.35547  -8477236.18745  21935769.4844                   21935770.1294
 -23622518.76648 -18387780.93047  19732384.2894                   19732383.4184
   -542303.04346   -414330.57443  24269205.0234                   24269203.8364
 -13664571.38747 -10629670.77045  22249826.5394                   22249826.3054
 -14548448.44147 -11316842.36346  21817295.3594                   21817292.5394
 11  7 28  0 14  0.0000000  0  9G12G28G10G17G09G04G20G27G02
  -1861856.13346  -1441944.25443  24465841.4614                   24465840.7074
  -8240372.18047  -6409279.11745  21957929.7034                   21957928.4804
  -8752829.43447  -6803489.21544  22938768.1644                   22938768.2234
 -13307290.44147 -10351304.07846  21399840.9774                   21399839.1024
 -10902095.93447  -8474708.82445  21936387.7814                   21936387.5664
 -23608234.81248 -18376650.56647  19735101.8674                   19735100.6684
   -480804.61746   -366409.72743  24280907.7814                   24280907.1094
 -13648055.57047 -10616801.31645  22252969.2344                   22252968.1454
 -14606079.96148 -11361749.96946  21806328.5554                   21806325.9104
 11  7 28  0 14 30.0000000  0  9G12G28G10G17G09G04G20G27G02
  -1944453.26646  -1506305.63343  24450123.0704                   24450123.1334
  -8165431.94147  -6350884.18045  21972190.5864                   21972189.0664
  -8830062.06647  -6863670.37144  22924071.4844                   22924071.3524
 -13259484.48448 -10314052.68446  21408937.9774                   21408936.4184
 -10898134.43047  -8471621.94145  21937141.5554                   21937141.1414
 -23593316.26248 -18365025.70747  19737941.6334                   19737939.9924
   -418758.41046   -318062.05943  24292714.4384                   24292714.3634
 -13630979.16847 -10603495.03945  22256218.5234                   22256218.0704
 -14663312.81248 -11406346.92245  21795437.2194                   21795434.4844
 11  7 28  0 15  0.0000000  0  9G12G28G10G17G09G04G20G27G02
  -2026995.32846  -1570624.07443  24434415.4224                   24434415.7934
  -8090050.52047  -6292145.45745  21986535.0944                   21986533.8954
  -8907090.51247  -6923692.43044  22909413.0164                   22909412.6414
 -13211517.28148 -10276675.67246  21418066.0634                   21418064.3094
 -10893458.44147  -8467978.30545  21938031.0944                   21938030.7194
 -23577767.53148 -18352909.79746  19740900.2584                   19740898.6564
   -356168.46146   -269290.77043  24304625.2424                   24304623.9494
 -13613346.05547 -10589754.96545  22259574.0164                   22259573.4844
 -14720149.41848 -11450635.11346  21784622.0784                   21784619.6334
 11  7 28  0 15 30.0000000  0  9G12G28G10G17G09G04G20G27G02
  -2109481.37146  -1634898.89143  24418719.8984                   24418718.8634
  -8014228.82047  -6233063.67645  22000963.3834                   22000962.3834
  -8983912.00447  -6983553.20344  22894794.2504                   22894794.0554
 -13163389.72747 -10239173.68446  21427224.0314                   21427222.8634
 -10888068.72347  -8463778.52345  21939056.8914                   21939056.2274
 -23561590.14848 -18340304.03147  19743978.4384                   19743977.0594
   -293036.67646   -220097.20742  24316637.9454                   24316636.5044
 -13595157.51247 -10575582.08645  22263035.3914                   22263034.7074
 -14776589.22348 -11494614.11346  21773881.6024                   21773879.4344
 11  7 28  0 16  0.0000000  0  9G12G28G10G17G09G04G20G27G02
  -2191895.64846  -1699117.84043  24403036.4454                   24403035.9264
  -7937953.56647  -6173628.46945  22015478.4844                   22015477.1054
  -9060509.45347  -7043239.42644  22880218.1724                   22880217.7894
 -13115087.94947 -10201535.95346  21436416.2114                   21436414.2734
 -10881951.38747  -8459011.76245  21940221.0634                   21940220.1254
 -23544771.23048 -18327198.36747  19747179.1414                   19747177.4574
   -229350.67645   -170471.73843  24328757.8914                   24328756.0664
 -13576400.37547 -10560966.15645  22266604.8524                   22266604.5474
 -14832617.48848 -11538272.45346  21763220.0164                   21763217.3714
 11  7 28  0 16 30.0000000  0  9G12G28G10G17G09G04G20G27G02
  -2274242.27046  -1763284.00044  24387366.2194                   24387365.7504
  -7861230.98847  -6113844.68745  22030077.9064                   22030076.3794
  -9136885.53147  -7102753.15244  22865684.0084                   22865683.6414
 -13066617.61747 -10163766.87946  21445639.7974                   21445637.5864
 -10875112.70347  -8453682.91445  21941522.6414                   21941521.3714
 -23527317.60248 -18313598.11746  19750500.4774                   19750499.1644
   -165117.21545   -120419.69542  24340980.0234                   24340979.3204
 -13557080.90247 -10545912.04345  22270280.8204                   22270280.5594
 -14888238.59848 -11581613.50046  21752635.5704                   21752632.9534
 11  7 28  0 17  0.0000000  0  9G12G28G10G17G09G04G20G27G02
  -2356528.03147  -1827402.74644  24371708.2584                   24371707.8984
  -7784069.43747  -6053718.85945  22044761.2344                   22044759.9144
  -9213045.21947  -7162098.25044  22851190.8754                   22851191.8014
 -13017987.45347 -10125873.25846  21454893.7034                   21454891.8594
 -10867561.44547  -8447798.81245  21942959.1954                   21942958.6684
 -23509238.18748 -18299510.24646  19753940.6804                   19753939.7504
   -100345.98045    -69948.64143  24353306.2274                   24353304.8554
 -13537208.51247 -10530427.06645  22274062.8594                   22274062.2704
 -14943460.19148 -11624643.25046  21742127.2894                   21742124.5124
 11  7 28  0 17 30.0000000  0  9G12G28G10G17G09G04G20G27G02
  -2438740.70747  -1891464.52344  24356063.5394                   24356063.6094
  -7706459.51647  -5993243.63345  22059530.8594                   22059529.0744
  -9288975.16446  -7221264.32844  22836742.1024                   22836742.1374
 -12969187.41847 -10087847.27746  21464179.9454                   21464178.1684
 -10859287.66847  -8441351.69145  21944533.8134                   21944532.7894
 -23490524.28148 -18284927.96947  19757501.9304                   19757500.1294
    -35028.31245    -19051.77342  24365735.8674                   24365734.8874
 -13516773.45747 -10514503.66445  22277951.1954                   22277950.8134
 -14998270.60548 -11667352.60946  21731697.0314                   21731694.0434
 11  7 28  0 18  0.0000000  0  9G12G28G10G17G09G04G20G27G02
  -2520887.56647  -1955475.00044  24340431.4534                   24340431.2814
  -7628410.07447  -5932425.94945  22074382.7734                   22074380.7814
  -9364680.53146  -7280255.39844  22822335.7194                   22822335.9884
 -12920226.10547 -10049695.61346  21473496.7114                   21473494.8364
 -10850300.23047  -8434348.46945  21946243.9064                   21946243.8554
 -23471185.19948 -18269858.54347  19761182.3674                   19761180.6174
     30826.46145     32263.52342  24378267.3284                   24378266.7774
 -13495785.11747 -10498149.13745  22281945.2274                   22281944.8874
 -15052677.96148 -11709747.87946  21721343.6094                   21721340.8754
 11  7 28  0 18 30.0000000  0  9G12G28G10G17G09G04G20G27G02
  -2602965.33247  -2019431.62144  24324812.6954                   24324812.1914
  -7549919.91047  -5871264.82045  22089318.6954                   22089317.3524
  -9440156.75047  -7339067.94144  22807972.6884                   22807973.2154
 -12871101.98048 -10011417.09446  21482845.3524                   21482843.0824
 -10840598.04747  -8426788.32445  21948090.0004                   21948089.5234
 -23451220.69148 -18254301.77347  19764981.0944                   19764979.7154
     97218.28945     83997.46142  24390901.6484                   24390900.4534
 -13474242.70747 -10481362.85245  22286045.0164                   22286044.5274
 -15106679.61348 -11751827.02046  21711066.9844                   21711064.9064
 11  7 28  0 19  0.0000000  0  9G12G28G10G17G09G04G20G27G02
  -2684957.70746  -2083321.70343  24309210.1414                   24309208.8954
  -7470975.55947  -5809749.78945  22104341.2114                   22104340.2704
  -9515385.65647  -7397687.76644  22793656.9534                   22793657.6374
 -12821800.87948  -9973000.66046  21492226.7584                   21492224.8714
 -10830166.93447  -8418660.18745  21950075.0394                   21950074.2424
 -23430617.05148 -18238246.98047  19768902.0164                   19768900.7034
    164160.35546    136160.06643  24403641.9304                   24403638.8984
 -13452132.47747 -10464134.12945  22290252.5314                   22290251.4494
 -15160260.07448 -11793577.96546  21700870.9304                   21700868.5864
 11  7 28  0 19 30.0000000  0  9G12G28G10G17G09G04G20G27G02
  -2766875.96146  -2147154.00443  24293620.7274                   24293619.7114
  -7391590.00847  -5747890.96945  22119448.1644                   22119446.5234
  -9590376.93447  -7456122.41844  22779386.9774                   22779387.2384
 -12772335.77047  -9934456.43446  21501639.8754                   21501637.5434
 -10819020.02347  -8409974.29745  21952196.5084                   21952194.9804
 -23409388.37148 -18221705.13747  19772941.4384                   19772939.9844
    231638.36745    188740.36342  24416481.1094                   24416479.7154
 -13429468.06647 -10446473.55945  22294564.7734                   22294564.1844
 -15213431.22348 -11835009.97346  21690753.5634                   21690751.0004
 11  7 28  0 20  0.0000000  0  9G12G28G10G17G09G04G20G27G02
  -2848713.79746  -2210923.68743  24278047.6804                   24278046.6954
  -7311759.42647  -5685685.36745  22134639.5634                   22134637.8834
  -9665122.81647  -7514365.84844  22765163.3914                   22765163.5514
 -12722702.44548  -9895781.12946  21511085.1174                   21511082.7664
 -10807153.50847  -8400727.66845  21954454.8054                   21954453.5944
 -23387531.54748 -18204673.83647  19777100.7584                   19777099.7424
    299655.51246    241740.71543  24429424.6024                   24429422.6804
 -13406245.92647 -10428378.39145  22298984.4694                   22298984.0514
 -15266187.70748 -11876118.85546  21680713.6254                   21680711.1524
 11  7 28  0 20 30.0000000  0  9G12G28G10G17G09G04G20G27G02
  -2930458.97746  -2274621.14843  24262492.2034                   24262491.0984
  -7231473.76647  -5623125.16845  22149917.2274                   22149915.5634
  -9739609.66847  -7572407.43444  22750988.8834                   22750989.4534
 -12672890.05948  -9856966.29346  21520563.7114                   21520561.4414
 -10794557.50847  -8390912.58645  21956850.7584                   21956850.2894
 -23365036.94548 -18187145.56647  19781381.4614                   19781380.3014
    368220.73846    295168.16843  24442472.6174                   24442470.2304
 -13382456.46147 -10409841.16045  22303511.1174                   22303510.7154
 -15318517.96548 -11916895.62146  21670755.5634                   21670753.0234
 11  7 28  0 21  0.0000000  0  9G12G28G10G17G09G04G20G27G02
  -3012121.50446  -2338254.14843  24246952.4534                   24246951.3134
  -7150745.31647  -5560219.93045  22165279.3914                   22165277.8164
  -9813845.73047  -7630253.61744  22736862.2894                   22736862.5824
 -12622910.41048  -9818021.12146  21530074.5474                   21530072.3754
 -10781244.31647  -8380538.67645  21959384.4224                   21959383.6374
 -23341917.37548 -18169130.29747  19785780.9844                   19785779.6844
    437321.41446    349012.77043  24455622.1804                   24455619.2424
 -13358112.14547 -10390871.57845  22308143.7504                   22308144.1604
 -15370432.82048 -11957348.69546  21660876.5784                   21660873.5824
 11  7 28  0 21 30.0000000  0  9G12G28G10G17G09G04G20G27G02
  -3093700.55147  -2401822.14143  24231428.5084                   24231427.9614
  -7069575.88347  -5496971.08245  22180725.2504                   22180724.2814
  -9887829.08246  -7687902.87144  22722783.3134                   22722783.7274
 -12572765.31647  -9778947.03546  21539616.9614                   21539614.8244
 -10767215.55547  -8369607.18045  21962054.1564                   21962053.2304
 -23318175.35948 -18150630.01647  19790298.9144                   19790297.3284
    506954.69546    403272.48443  24468873.0554                   24468871.1684
 -13333215.10247 -10371471.29345  22312881.7034                   22312881.4224
 -15421932.25848 -11997478.07046  21651076.8284                   21651074.1094
 11  7 28  0 22  0.0000000  0  9G12G28G10G17G09G04G20G27G02
  -3175195.25847  -2465324.41043  24215920.4844                   24215919.0784
  -6987966.66447  -5433379.54345  22196255.1804                   22196254.0004
  -9961556.79746  -7745352.93044  22708752.8204                   22708753.8984
 -12522455.07047  -9739744.25846  21549190.5634                   21549188.7304
 -10752472.37547  -8358118.99245  21964859.3674                   21964858.4694
 -23293812.78948 -18131646.17247  19794934.9224                   19794933.4774
    577118.56746    457945.61143  24482224.3834                   24482223.1484
 -13307766.81247 -10351641.44545  22317724.1414                   22317723.3444
 -15473016.57448 -12037283.96546  21641355.5164                   21641352.7544
 11  7 28  0 22 30.0000000  0  8G12G28G10G17G09G04G27G02
  -3256600.51647  -2528757.05143  24200429.6174                   24200428.2934
  -6905914.68047  -5369442.99245  22211869.1564                   22211867.8984
 -10035022.37947  -7802598.71544  22694773.0004                   22694773.2734
 -12471976.65248  -9700410.42646  21558796.2114                   21558794.3674
 -10737012.23447  -8346072.14145  21967801.6094                   21967800.6214
 -23268827.64848 -18112177.23047  19799689.3524                   19799687.9734
 -13281765.19147 -10331380.44945  22322672.0004                   22322671.2194
 -15523681.56648 -12076763.11346  21631713.9534                   21631711.4064
 11  7 28  0 23  0.0000000  0  8G12G28G10G17G09G04G27G02
  -3337926.65247  -2592128.03543  24184954.2504                   24184952.2384
  -6823433.38347  -5305171.91845  22227564.8834                   22227564.2854
 -10108234.84047  -7859647.27744  22680841.4844                   22680841.7304
 -12421342.21148  -9660955.02746  21568431.5784                   21568429.6374
 -10720848.18447  -8333476.76645  21970877.3524                   21970876.7504
 -23243233.29748 -18092233.56647  19804559.9844                   19804558.0634
 -13255223.33247 -10310698.48445  22327723.1564                   22327722.8954
 -15573938.48448 -12115924.28546  21622150.7194                   21622148.0124
 11  7 28  0 23 30.0000000  0  8G12G28G10G17G09G04G27G02
  -3419155.46947  -2655423.17243  24169496.0004                   24169495.5514
  -6740506.32447  -5240553.49645  22243345.7664                   22243344.7504
 -10181174.08247  -7916482.95744  22666961.4224                   22666961.1254
 -12370534.92648  -9621364.94146  21578099.9384                   21578098.0634
 -10703963.79748  -8320320.08245  21974090.8204                   21974090.0824
 -23217014.35248 -18071803.20747  19809549.0474                   19809547.3014
 -13228125.35248 -10289583.18745  22332879.6724                   22332879.5314
 -15623769.48048 -12154753.56646  21612667.6484                   21612664.7814
 11  7 28  0 24  0.0000000  0  8G12G28G10G17G09G04G27G02
  -3500283.84446  -2718639.98843  24154057.5704                   24154057.2234
  -6657132.80947  -5175587.17245  22259211.4064                   22259209.9804
 -10253835.42247  -7973102.08644  22653134.3984                   22653133.6644
 -12319553.84048  -9581639.42246  21587801.3134                   21587799.6994
 -10686358.94547  -8306602.00445  21977440.7274                   21977439.6684
 -23190170.64848 -18050886.02747  19814657.2814                   19814655.7664
 -13200471.06247 -10268034.38745  22338141.7814                   22338141.2704
 -15673172.56648 -12193249.40646  21603266.8134                   21603263.8484
 11  7 28  0 24 30.0000000  0  8G12G28G10G17G09G04G27G02
  -3581311.68047  -2781778.47744  24138638.4924                   24138638.3954
  -6573315.70347  -5110275.23445  22275161.3204                   22275159.8204
 -10326217.64847  -8029503.72744  22639360.3054                   22639360.2624
 -12268400.74248  -9541779.87946  21597535.3984                   21597533.3364
 -10668036.18747  -8292324.50845  21980927.5864                   21980926.1214
 -23162705.46148 -18029484.57447  19819883.7114                   19819882.2234
 -13172263.33647 -10246054.33645  22343509.5474                   22343509.4694
 -15722148.98848 -12231412.78946  21593946.7584                   21593943.6484
 11  7 28  0 25  0.0000000  0  8G12G28G10G17G09G04G27G02
  -3662239.75047  -2844839.21944  24123239.2034                   24123238.0704
  -6489058.38747  -5044620.25445  22291195.0004                   22291193.3014
 -10398320.21947  -8085687.44544  22625639.7814                   22625639.5474
 -12217078.61348  -9501788.61746  21607301.7034                   21607299.7274
 -10648999.09047  -8277490.41444  21984550.2894                   21984548.9024
 -23134623.05548 -18007602.17247  19825227.7424                   19825226.2504
 -13143506.10247 -10223646.09845  22348982.2344                   22348981.6684
 -15770700.78548 -12269245.30146  21584707.7504                   21584704.8364
 11  7 28  0 25 30.0000000  0  8G12G28G10G17G09G04G27G02
  -3743066.76247  -2907821.25044  24107858.1024                   24107857.4734
  -6404361.53947  -4978622.75845  22307311.9534                   22307310.9884
 -10470140.02747  -8141650.84044  22611972.6884                   22611972.4104
 -12165587.57448  -9461665.75846  21617100.0314                   21617097.8444
 -10629248.54747  -8262100.36345  21988308.4614                   21988307.7664
 -23105924.87548 -17985239.95347  19830688.8834                   19830687.6564
 -13114200.59447 -10200810.64545  22354558.9064                   22354557.9224
 -15818827.23448 -12306746.36346  21575549.4694                   21575546.6884
 11  7 28  0 26  0.0000000  0  8G12G28G10G17G09G04G27G02
  -3823798.63347  -2970729.10944  24092495.1094                   24092494.2424
  -6319233.75847  -4912289.48845  22323511.1564                   22323510.6134
 -10541681.49647  -8197397.36345  22598358.2734                   22598358.2814
 -12113935.34448  -9421417.27746  21626929.0704                   21626927.3054
 -10608793.20347  -8246161.12945  21992200.8594                   21992200.1214
 -23076620.06248 -17962405.02747  19836265.3594                   19836263.8134
 -13084355.62547 -10177554.83245  22360237.4064                   22360238.1024
 -15866535.23848 -12343921.35546  21566470.9924                   21566467.8874
 11  7 28  0 26 30.0000000  0  8G12G28G10G17G09G04G27G02
  -3904431.90647  -3033560.14544  24077151.1954                   24077150.1214
  -6233674.25847  -4845619.79745  22339793.4224                   22339791.7074
 -10612939.64547  -8252923.10544  22584798.6884                   22584798.5044
 -12062120.39848  -9381042.00846  21636789.6024                   21636787.4964
 -10587632.48847  -8229672.26245  21996227.6644                   21996227.6844
 -23046708.57848 -17939097.35546  19841957.3204                   19841955.8984
 -13053970.86347 -10153878.39145  22366019.5704                   22366019.4344
 -15913822.92648 -12380768.84846  21557471.8054                   21557469.2774
 11  7 28  0 27  0.0000000  0  8G12G28G10G17G09G04G27G02
  -3984963.41447  -3096311.87944  24061826.0314                   24061825.2154
  -6147682.44147  -4778613.25845  22356156.8204                   22356155.4224
 -10683910.06647  -8308224.63745  22571293.2344                   22571293.5084
 -12010141.59048  -9340539.05546  21646680.6884                   21646679.2734
 -10565766.07847  -8212633.47745  22000389.0784                   22000388.4064
 -23016190.52048 -17915317.04747  19847764.5234                   19847762.8054
 -13023046.14547 -10129781.22745  22371904.7814                   22371903.8954
 -15960687.75448 -12417286.82846  21548554.0164                   21548551.5164
 11  7 28  0 27 30.0000000  0  8G12G28G10G17G09G04G27G02
  -4065397.97346  -3158988.03543  24046520.1644                   24046518.9534
  -6061265.39547  -4711275.35245  22372601.4614                   22372600.2464
 -10754595.69547  -8363304.25045  22557842.6644                   22557842.8284
 -11958005.44948  -9299913.49646  21656601.5944                   21656599.8444
 -10543201.32047  -8195050.52745  22004682.5084                   22004681.4024
 -22985073.69548 -17891070.16047  19853685.7424                   19853684.0784
 -12991588.86348 -10105269.07445  22377890.9924                   22377890.3324
 -16007135.37147 -12453479.71546  21539715.1254                   21539712.5704
 11  7 28  0 28  0.0000000  0  8G12G28G10G17G09G04G27G02
  -4145741.02346  -3221592.86743  24031231.1094                   24031230.4774
  -5974431.47347  -4643612.59444  22389125.2274                   22389123.8914
 -10825001.03947  -8418165.48845  22544444.5394                   22544445.0274
 -11905718.79747  -9259170.66446  21666551.6024                   21666550.0594
 -10519946.41047  -8176929.83245  22009108.1484                   22009106.9844
 -22953366.86348 -17866363.52047  19859719.4064                   19859717.9104
 -12959607.71548 -10080348.71145  22383977.1884                   22383976.3594
 -16053172.66048 -12489352.86746  21530954.5084                   21530951.8404
 11  7 28  0 28 30.0000000  0  8G12G28G10G17G09G04G27G02
  -4225989.88346  -3284124.37543  24015959.7974                   24015958.3484
  -5887180.91047  -4575625.21945  22405728.6804                   22405726.6454
 -10895121.96947  -8472805.07845  22531100.6644                   22531101.0044
 -11853281.53948  -9218310.47746  21676530.0474                   21676528.1884
 -10496001.87547  -8158271.72345  22013664.7034                   22013663.2974
 -22921070.83248 -17841197.77047  19865865.3914                   19865863.4884
 -12927103.26247 -10055020.56645  22390162.3364                   22390162.0164
 -16098798.28547 -12524905.24246  21522271.8984                   21522269.3094
 11  7 28  0 29  0.0000000  0  8G12G28G10G17G09G04G27G02
  -4306137.14147  -3346576.73443  24000708.9064                   24000707.1134
  -5799508.85547  -4507309.39545  22422412.0394                   22422410.7854
 -10964949.57447  -8527216.09445  22517812.9614                   22517813.2934
 -11800688.28147  -9177328.72346  21686538.2274                   21686536.5744
 -10471363.37947  -8139072.88345  22018353.6334                   22018351.9964
 -22888181.75848 -17815569.90647  19872123.8204                   19872122.0004
 -12894071.21547 -10029281.32845  22396447.6094                   22396448.1374
 -16144006.04348 -12560131.99646  21513669.6564                   21513667.2974
 11  7 28  0 29 30.0000000  0  8G12G28G10G17G09G04G27G02
  -4386189.40647  -3408955.08243  23985475.5084                   23985473.2544
  -5711424.56247  -4438672.33645  22439174.2814                   22439173.0664
 -11034488.97747  -8581402.55545  22504580.5004                   22504579.9804
 -11747946.91448  -9136231.56246  21696574.4304                   21696572.9654
 -10446040.38347  -8119340.66845  22023171.7734                   22023170.9804
 -22854709.42248 -17789487.54347  19878493.3444                   19878491.6484
 -12860521.19947 -10003138.46945  22402832.5314                   22402832.0824
 -16188803.55148 -12595039.07846  21505144.6644                   21505142.1024
 11  7 28  0 30  0.0000000  0  8G12G28G10G17G09G04G27G02
  -4466148.27347  -3471260.64843  23970259.2814                   23970257.5554
  -5622932.34847  -4369717.43045  22456013.2504                   22456012.9654
 -11103740.60947  -8635364.77045  22491401.7424                   22491401.9064
 -11695060.92247  -9095021.71546  21706638.9304                   21706637.0044
 -10420037.31247  -8099078.52045  22028120.1174                   22028119.4574
 -22820658.84448 -17762954.62147  19884972.9534                   19884971.0744
 -12826457.90248  -9976595.65245  22409314.3834                   22409313.8874
 -16233193.52748 -12629628.61746  21496697.6804                   21496694.6454
 11  7 28  0 30 30.0000000  0  8G12G28G10G17G09G04G27G02
  -4546005.26247  -3533486.82443  23955063.2424                   23955061.4804
  -5534026.68047  -4300440.35244  22472931.6884                   22472930.6484
 -11172694.57447  -8689095.05145  22478280.4064                   22478280.1994
 -11642024.34048  -9053694.52046  21716731.0474                   21716729.2854
 -10393349.10247  -8078282.50845  22033198.6724                   22033198.4924
 -22786025.06648 -17735967.23846  19891563.5474                   19891561.9734
 -12791876.01247  -9949648.73445  22415894.7664                   22415894.4574
 -16277169.03948 -12663895.19546  21488329.2814                   21488326.1564
 11  7 28  0 31  0.0000000  0  8G12G28G10G17G09G04G27G02
  -4625760.61747  -3595633.86743  23939885.6804                   23939884.1454
  -5444710.43047  -4230843.34045  22489927.8674                   22489927.4774
 -11241349.77047  -8742592.52045  22465215.6804                   22465215.3204
 -11588839.14848  -9012251.52046  21726851.8524                   21726850.2894
 -10365979.07447  -8056955.19545  22038407.1564                   22038406.0354
 -22750812.24648 -17708528.67647  19898264.3134                   19898262.4734
 -12756779.02747  -9922300.43745  22422573.5944                   22422573.4384
 -16320731.61748 -12697840.01246  21480039.5084                   21480036.2424
 11  7 28  0 31 30.0000000  0  8G12G28G10G17G09G04G27G02
  -4705412.12947  -3657699.91444  23924728.7974                   23924727.5044
  -5354984.20347  -4160926.87545  22507003.0554                   22507001.3594
 -11309702.34447  -8795854.17245  22452208.2194                   22452208.8554
 -11535504.66448  -8970692.20346  21737001.3594                   21736999.1134
 -10337927.95347  -8035097.18745  22043744.9694                   22043743.7194
 -22715021.19148 -17680639.52747  19905075.1564                   19905073.4734
 -12721167.93747  -9894551.53945  22429350.0784                   22429350.2274
 -16363880.02348 -12731462.10246  21471828.7734                   21471825.5394
 11  7 28  0 32  0.0000000  0  8G12G28G10G17G09G04G27G02
  -4784960.14547  -3719685.29744  23909591.3524                   23909590.4774
  -5264851.01647  -4090693.28945  22524154.6254                   22524153.4104
 -11377751.26247  -8848879.22745  22439259.4844                   22439259.2894
 -11482023.08248  -8929018.24246  21747178.8364                   21747176.6914
 -10309199.04347  -8012711.03545  22049211.5634                   22049210.3754
 -22678655.88748 -17652302.92647  19911995.1334                   19911993.6564
 -12685046.41847  -9866404.91445  22436224.0554                   22436224.0664
 -16406616.00048 -12764762.80546  21463696.4384                   21463693.6564
 11  7 28  0 32 30.0000000  0  8G12G28G10G17G09G04G27G02
  -4864402.89847  -3781588.69144  23894474.1954                   23894472.7774
  -5174312.46547  -4020143.83245  22541383.0864                   22541382.4024
 -11445493.77047  -8901665.52045  22426368.1884                   22426367.7504
 -11428394.80547  -8887229.99246  21757383.4454                   21757381.9654
 -10279793.82447  -7989797.89145  22054807.7114                   22054806.5434
 -22641718.09048 -17623520.21546  19919024.1254                   19919022.8164
 -12648416.16447  -9837861.84845  22443194.7504                   22443194.5434
 -16448939.30147 -12797741.94946  21455642.5164                   21455639.3834
 11  7 28  0 33  0.0000000  0  8G12G28G10G17G09G04G27G02
  -4943744.10247  -3843412.95744  23879375.9224                   23879375.0434
  -5083374.63347  -3949283.25445  22558688.3674                   22558687.5864
 -11512931.92647  -8954214.65245  22413534.9694                   22413534.6094
 -11374625.24248  -8845331.62946  21767615.4694                   21767614.0744
 -10249719.05147  -7966362.99645  22060530.2274                   22060529.8714
 -22604214.93048 -17594296.96947  19926160.7344                   19926159.1524
 -12611283.98847  -9808927.68745  22450260.6954                   22450260.0704
 -16490854.92248 -12830403.41446  21447666.1024                   21447663.4454
 11  7 28  0 33 30.0000000  0  8G12G28G10G17G09G04G27G02
  -5022977.19947  -3905152.97745  23864298.1414                   23864297.6174
  -4992034.50447  -3878109.19545  22576070.1724                   22576069.1604
 -11580058.17647  -9006520.77745  22400761.5164                   22400760.8874
 -11320710.00848  -8803319.77046  21777875.4454                   21777873.5274
 -10218972.09448  -7942404.29745  22066381.8204                   22066381.1884
 -22566144.02348 -17564631.34047  19933405.3594                   19933404.2154
 -12573647.27047  -9779600.38345  22457422.6254                   22457422.6334
 -16532358.02348 -12862743.43746  21439767.8674                   21439765.3524
 11  7 28  0 34  0.0000000  0  8G12G28G10G17G09G04G27G02
  -5102096.15247  -3966804.04344  23849242.6094                   23849241.4694
  -4900288.41447  -3806618.81245  22593528.4614                   22593527.6724
 -11646864.83647  -9058577.85245  22388048.7274                   22388047.7074
 -11266644.68048  -8761190.97346  21788163.7814                   21788161.9534
 -10187549.91848  -7917919.53545  22072361.4694                   22072359.9734
 -22527502.52048 -17534521.07047  19940758.8364                   19940757.0824
 -12535502.76247  -9749877.39145  22464681.3524                   22464681.3914
 -16573443.36348 -12894757.93046  21431950.1334                   21431946.8204
 11  7 28  0 34 30.0000000  0  8G12G28G10G17G09G04G27G02
  -5181107.73847  -4028371.48044  23834207.2034                   23834205.8754
  -4808146.17247  -3734819.73444  22611062.9844                   22611061.5984
 -11713357.40647  -9110390.18745  22375395.2734                   22375394.9884
 -11212437.58248  -8718951.67246  21798479.0944                   21798477.0784
 -10155462.32448  -7892916.21145  22078466.7274                   22078466.9024
 -22488300.76248 -17503974.25047  19948218.8444                   19948217.2154
 -12496860.54747  -9719766.58245  22472034.6174                   22472034.0594
 -16614119.21148 -12926453.34046  21424209.7114                   21424206.6994
 11  7 28  0 35  0.0000000  0  8G12G28G10G17G09G04G27G02
  -5260017.18046  -4089859.27044  23819190.2734                   23819189.7664
  -4715615.95747  -3662718.32445  22628670.6804                   22628669.9064
 -11779539.76247  -9161960.80545  22362801.3984                   22362800.9734
 -11158096.47748  -8676607.96546  21808819.3914                   21808817.5744
 -10122718.31647  -7867401.38745  22084698.1954                   22084697.0234
 -22448547.83248 -17472997.93447  19955783.0474                   19955781.8954
 -12457729.34047  -9689274.74245  22479480.9304                   22479481.1174
 -16654392.37548 -12957834.96946  21416545.6884                   21416542.3714
 11  7 28  0 35 30.0000000  0  8G12G28G10G17G09G04G27G02
  -5338815.10247  -4151260.15244  23804196.3364                   23804194.9574
  -4622691.19947  -3590309.44544  22646353.2034                   22646352.8244
 -11845401.49247  -9213281.57845  22350268.0704                   22350267.8014
 -11103613.72748  -8634153.92246  21819187.3444                   21819185.1174
 -10089311.97347  -7841370.48444  22091055.2194                   22091054.2934
 -22408238.09848 -17441587.75446  19963454.0394                   19963452.8134
 -12418103.46547  -9658397.45345  22487021.5084                   22487021.8134
 -16694255.02748 -12988896.72346  21408959.9144                   21408956.5514
 11  7 28  0 36  0.0000000  0  8G12G28G10G17G09G04G27G02
  -5417500.87547  -4212573.69144  23789222.4384                   23789221.5864
  -4529374.87547  -3517595.52744  22664111.3834                   22664110.6214
 -11910940.69547  -9264351.01245  22337796.1644                   22337795.8594
 -11048990.89148  -8591590.67646  21829581.6334                   21829580.1054
 -10055245.95347  -7814825.56245  22097537.5634                   22097536.9264
 -22367374.70348 -17409746.14546  19971229.9534                   19971228.4534
 -12377985.93747  -9627137.04745  22494655.4384                   22494655.5314
 -16733708.16048 -13019639.37146  21401452.5474                   21401449.4774
 11  7 28  0 36 30.0000000  0  8G12G28G10G17G09G04G27G02
  -5496076.22747  -4273801.18044  23774269.7814                   23774268.9574
  -4435671.74647  -3444580.16444  22681942.1804                   22681941.3014
 -11976158.23047  -9315169.80545  22325385.8364                   22325385.2934
 -10994231.70748  -8548921.19946  21840002.0704                   21840000.3364
 -10020525.82847  -7787770.91445  22104144.9064                   22104143.8914
 -22325963.48048 -17377477.64847  19979110.1254                   19979108.7504
 -12337382.06647  -9595497.68745  22502381.7504                   22502382.0434
 -16772755.23848 -13050065.60546  21394022.3444                   21394019.1094
 11  7 28  0 37  0.0000000  0  8G12G28G10G17G09G04G27G02
  -5574542.51247  -4334943.69144  23759338.2664                   23759337.5514
  -4341585.74647  -3371266.48444  22699846.5314                   22699846.1024
 -12041053.40647  -9365737.40245  22313035.7814                   22313036.5784
 -10939338.48448  -8506147.28146  21850448.1414                   21850446.2384
  -9985156.12547  -7760210.12545  22110875.5234                   22110875.2464
 -22284009.04348 -17344785.87546  19987093.7194                   19987092.2074
 -12296296.20747  -9563482.75845  22510200.3754                   22510200.7664
 -16811398.42248 -13080177.12946  21386668.2424                   21386665.1334
 11  7 28  0 37 30.0000000  0  8G12G28G10G17G09G04G27G02
  -5652896.09047  -4395998.35944  23744428.0634                   23744427.7114
  -4247116.41847  -3297654.09844  22717823.9534                   22717823.1024
 -12105621.47347  -9416050.10945  22300749.3204                   22300748.9384
 -10884309.84048  -8463267.84046  21860919.6174                   21860917.6604
  -9949136.61348  -7732142.98045  22117730.3674                   22117729.3794
 -22241511.50048 -17311670.91047  19995181.0004                   19995179.3444
 -12254728.39147  -9531092.26245  22518110.0314                   22518111.7814
 -16849635.84448 -13109972.46546  21379392.0554                   21379389.4024
 11  7 28  0 38  0.0000000  0  8G12G28G10G17G09G04G27G02
  -5731139.95747  -4456967.51644  23729538.6804                   23729537.9454
  -4152269.87147  -3223747.76244  22735872.3364                   22735871.7854
 -12169864.55547  -9466109.58645  22288524.6724                   22288524.0594
 -10829151.31247  -8420287.19546  21871415.7274                   21871413.7664
  -9912474.26648  -7703574.91045  22124706.1724                   22124705.3094
 -22198478.07848 -17278138.37947  20003369.8204                   20003368.6174
 -12212685.38347  -9498331.51245  22526111.4144                   22526112.0164
 -16887472.21148 -13139455.29346  21372192.3054                   21372188.5394
 11  7 28  0 38 30.0000000  0  8G12G28G10G17G09G04G27G02
  -5809265.74247  -4517844.68744  23714672.2114                   23714670.8324
  -4057040.85547  -3149543.39844  22753993.8834                   22753993.2504
 -12233772.96147  -9515908.27745  22276362.8204                   22276362.5554
 -10773855.83247  -8377199.84446  21881938.3914                   21881936.7934
  -9875163.91848  -7674501.92645  22131805.9144                   22131805.2854
 -22154903.86348 -17244184.45747  20011661.7734                   20011660.5354
 -12170162.31247  -9465196.68045  22534203.7344                   22534203.5314
 -16924900.85248 -13168620.43046  21365069.5394                   21365066.2894
 11  7 28  0 39  0.0000000  0  8G12G28G10G17G09G04G27G02
  -5887270.60947  -4578627.59044  23699827.8364                   23699827.2544
  -3961430.21547  -3075041.67244  22772187.8754                   22772186.8014
 -12297342.58247  -9565442.99245  22264266.1334                   22264265.5204
 -10718422.84047  -8334005.32846  21892487.0394                   21892485.2774
  -9837206.92248  -7644925.03545  22139029.4774                   22139027.7154
 -22110790.29348 -17209810.24646  20020056.3524                   20020054.6684
 -12127160.29347  -9431688.63345  22542386.1484                   22542386.5314
 -16961920.52348 -13197466.87546  21358024.9384                   21358021.8324
 11  7 28  0 39 30.0000000  0  8G12G28G10G17G09G04G27G02
  -5965158.62547  -4639319.47344  23685005.8984                   23685004.8364
  -3865444.90247  -3000247.99644  22790453.6414                   22790452.5594
 -12360576.37947  -9614716.00845  22252233.2584                   22252233.0044
 -10662858.01647  -8290708.09846  21903060.4614                   21903058.4104
  -9798610.80948  -7614850.16445  22146373.9534                   22146372.9964
 -22066145.21948 -17175021.87547  20028551.9694                   20028550.4264
 -12083687.01247  -9397813.38745  22550658.7664                   22550659.2114
 -16998536.66048 -13225998.87546  21351056.8364                   21351053.8554
 11  7 28  0 40  0.0000000  0  8G12G28G10G17G09G04G27G02
  -6042926.59047  -4699917.92644  23670207.4614                   23670205.9414
  -3769084.69947  -2925162.19944  22808790.0784                   22808789.9734
 -12423469.67647  -9663723.70345  22240264.9304                   22240265.0864
 -10607160.09847  -8247307.14146  21913659.3364                   21913657.6254
  -9759376.21948  -7584277.75845  22153839.7734                   22153839.3834
 -22020969.08648 -17139819.69547  20037148.8364                   20037147.2814
 -12039742.81647  -9363571.18445  22559021.1094                   22559021.0004
 -17034747.77048 -13254215.28146  21344166.0864                   21344163.2774
 11  7 28  0 40 30.0000000  0  8G12G28G10G17G09G04G27G02
  -6120574.91847  -4760422.98844  23655431.9774                   23655429.7974
  -3672353.78147  -2849787.53544  22827197.8674                   22827197.3364
 -12486022.73047  -9712466.28145  22228361.4924                   22228361.3834
 -10551332.09047  -8203804.82846  21924283.3984                   21924281.1884
  -9719507.71148  -7553211.41045  22161426.9064                   22161426.2664
 -21975266.98048 -17104207.65646  20045845.5234                   20045844.1454
 -11995332.45347  -9328965.73445  22567472.6954                   22567472.5274
 -17070556.59848 -13282118.21546  21337351.9384                   21337348.8014
 11  7 28  0 41  0.0000000  0  8G12G28G10G17G09G04G27G02
  -6198106.86347  -4820837.41444  23640678.0944                   23640676.1914
  -3575258.07847  -2774128.62144  22845673.8594                   22845673.2384
 -12548237.07047  -9760944.92245  22216522.6804                   22216521.9964
 -10495378.53147  -8160204.67246  21934930.8054                   21934928.9534
  -9679011.72748  -7521656.08645  22169132.3914                   22169131.9884
 -21929045.48048 -17068190.89547  20054641.2504                   20054640.2074
 -11950462.29747  -9294001.99245  22576011.2664                   22576011.3674
 -17105967.35248 -13309710.96146  21330613.5784                   21330610.4964
 11  7 28  0 41 30.0000000  0  8G12G28G10G17G09G04G27G02
  -6275512.93747  -4881153.74644  23625947.5314                   23625946.6914
  -3477791.37147  -2698180.62144  22864221.6254                   22864221.1134
 -12610101.80947  -9809151.13345  22204750.5314                   22204749.6174
 -10439291.98047  -8116500.88745  21945603.7504                   21945601.9614
  -9637882.73047  -7489607.51245  22176959.3674                   22176958.8244
 -21882299.18448 -17031765.19947  20063536.6414                   20063535.1994
 -11905126.69147  -9258675.57045  22584637.9224                   22584637.9264
 -17140972.60948 -13336987.73846  21323952.0554                   21323948.5594
 11  7 28  0 42  0.0000000  0  8G12G28G10G17G09G04G27G02
  -6352796.22347  -4941374.39545  23611240.9144                   23611240.3914
  -3379959.84047  -2621948.32844  22882838.3754                   22882838.1254
 -12671618.73047  -9857086.35245  22193043.2194                   22193042.7114
 -10383077.46548  -8072697.39146  21956301.2814                   21956299.2584
  -9596127.79747  -7457071.18045  22184904.8914                   22184904.1334
 -21835035.25048 -16994936.15647  20072530.7114                   20072529.4534
 -11859332.28947  -9222991.64845  22593352.4224                   22593352.1214
 -17175576.88748 -13363952.06646  21317367.4384                   21317364.2074
 11  7 28  0 42 30.0000000  0  8G12G28G10G17G09G04G27G02
  -6429947.30547  -5001492.04745  23596559.5164                   23596558.4494
  -3281758.39147  -2545427.82044  22901525.8754                   22901525.1054
 -12732778.08247  -9904742.93045  22181405.3594                   22181404.2704
 -10326727.73847  -8028788.53546  21967024.0784                   21967022.1684
  -9553741.67248  -7424043.05145  22192970.8364                   22192970.2504
 -21787248.59448 -16957699.79347  20081624.5314                   20081622.9574
 -11813073.97747  -9186946.24645  22602155.3204                   22602154.9844
 -17209773.05148 -13390598.38346  21310860.1724                   21310856.8364
 11  7 28  0 43  0.0000000  0  8G12G28G10G17G09G04G27G02
  -6506972.89847  -5061511.92645  23581902.1564                   23581900.8954
  -3183196.35247  -2468626.30944  22920282.0164                   22920281.1414
 -12793585.42647  -9952125.22345  22169833.8674                   22169832.8554
 -10270251.39548  -7984781.02346  21977771.3364                   21977769.4454
  -9510735.00448  -7390531.37945  22201154.8834                   22201153.8754
 -21738949.71148 -16920064.29346  20090815.2274                   20090814.0784
 -11766362.31247  -9150547.59845  22611043.9384                   22611043.8954
 -17243569.48448 -13416933.22746  21304428.6334                   21304425.3834
 11  7 28  0 43 30.0000000  0  8G12G28G10G17G09G04G27G02
  -6583867.00047  -5121429.32445  23567269.4534                   23567268.8634
  -3084271.43447  -2391542.01644  22939106.8444                   22939105.4774
 -12854033.35547  -9999227.43445  22158330.4614                   22158329.7274
 -10213643.91048  -7940671.32446  21988543.6804                   21988541.9454
  -9467105.82847  -7356534.60945  22209457.1334                   22209456.6804
 -21690136.75848 -16882028.22746  20100103.8754                   20100103.0204
 -11719195.21147  -9113794.03545  22620019.6414                   22620019.2154
 -17276961.74648 -13442953.12146  21298073.9224                   21298070.6454
 11  7 28  0 44  0.0000000  0  8G12G28G10G17G09G04G27G02
  -6660631.13347  -5181245.45345  23552662.0704                   23552661.1254
  -2984987.82047  -2314178.20744  22957999.4774                   22957998.5664
 -12914122.31647 -10046049.94945  22146896.0784                   22146895.7814
 -10156909.19147  -7896462.49646  21999339.8594                   21999337.8634
  -9422859.30948  -7322056.80145  22217876.8134                   22217876.5204
 -21640815.34048 -16843595.94547  20109489.5004                   20109487.9574
 -11671577.82047  -9076689.62544  22629080.7814                   22629080.3634
 -17309953.07848 -13468660.60946  21291795.7424                   21291792.6954
 11  7 28  0 44 30.0000000  0  8G12G28G10G17G09G04G27G02
  -6737263.74647  -5240959.08645  23538079.2584                   23538077.9384
  -2885348.43447  -2236537.21544  22976960.0164                   22976959.4734
 -12973849.88347 -10092590.85245  22135530.1334                   22135530.0314
 -10100047.98848  -7852155.07846  22010160.1884                   22010158.4304
  -9377998.39847  -7287100.25445  22226413.7584                   22226412.8484
 -21590988.31248 -16804769.68746  20118971.2814                   20118970.1334
 -11623513.09447  -9039236.61745  22638226.6884                   22638227.5744
 -17342544.39148 -13494056.38746  21285594.0784                   21285591.0634
 11  7 28  0 45  0.0000000  0  8G12G28G10G17G09G04G27G02
  -6813764.52347  -5300569.97744  23523521.5634                   23523520.1214
  -2785355.60947  -2158620.77744  22995987.7584                   22995987.1134
 -13033214.01647 -10138848.55945  22124233.6724                   22124233.4804
 -10043061.18747  -7807749.80546  22021004.1884                   22021002.5824
  -9332526.40647  -7251667.53945  22235066.6724                   22235066.4534
 -21540658.85948 -16765551.92246  20128548.6174                   20128547.0274
 -11575003.95347  -9001437.33245  22647458.4774                   22647458.2074
 -17374736.64148 -13519141.21946  21279468.2974                   21279464.8284
 11  7 28  0 45 30.0000000  0  8G12G28G10G17G09G04G27G02
  -6890125.77047  -5360072.18044  23508990.6334                   23508988.7074
  -2685005.39147  -2080425.86344  23015084.5004                   23015083.6214
 -13092206.61347 -10184816.76645  22113007.6954                   22113007.5514
  -9985943.75847  -7763242.73046  22031872.9924                   22031871.0124
  -9286440.52747  -7215756.46945  22243836.3204                   22243836.2304
 -21489824.04748 -16725940.37146  20138222.2814                   20138220.5354
 -11526047.18047  -8963289.23844  22656774.4534                   22656774.9024
 -17406524.35548 -13543910.82846  21273419.3364                   21273415.9534
 11  7 28  0 46  0.0000000  0  8G12G28G10G17G09G04G27G02
  -6966353.13347  -5419470.05544  23494484.7344                   23494483.3874
  -2584306.61747  -2001959.35544  23034246.4924                   23034245.9844
 -13150831.82447 -10230498.68045  22101852.0234                   22101851.2974
  -9928702.62947  -7718639.26646  22042765.7974                   22042764.2504
  -9239749.84447  -7179374.14545  22252721.2894                   22252720.5824
 -21438493.13348 -16685942.25047  20147990.4304                   20147988.5314
 -11476651.97747  -8924799.50844  22666173.8364                   22666174.0904
 -17437914.70348 -13568370.79746  21267445.3914                   21267442.3874
 11  7 28  0 46 30.0000000  0  8G12G28G10G17G09G04G27G02
  -7042438.08647  -5478756.93044  23480006.1804                   23480005.0354
  -2483254.47347  -1923217.48844  23053476.2734                   23053475.8054
 -13209080.53947 -10275887.23045  22090767.2584                   22090767.0824
  -9871331.43447  -7673934.44546  22053682.8364                   22053681.5904
  -9192450.05947  -7142517.18745  22261722.2274                   22261721.6764
 -21386662.30148 -16645554.57447  20157853.1644                   20157851.8984
 -11426814.00047  -8885964.76245  22675657.9064                   22675657.8524
 -17468901.48048 -13592516.29346  21261549.4614                   21261545.5594
 11  7 28  0 47  0.0000000  0  8G12G28G10G17G09G04G27G02
  -7118383.39547  -5537935.01644  23465554.5474                   23465552.4924
  -2381855.19547  -1844205.12544  23072771.6564                   23072771.7344
 -13266954.92248 -10320984.10545  22079754.3674                   22079753.5904
  -9813835.35947  -7629132.32445  22064624.0234                   22064622.9774
  -9144548.68747  -7105191.45745  22270837.2664                   22270837.4064
 -21334338.50048 -16604782.77047  20167809.9454                   20167808.3954
 -11376540.59047  -8846790.73045  22685225.0084                   22685224.1094
 -17499489.50848 -13616351.08646  21255728.3054                   21255724.4844
 11  7 28  0 47 30.0000000  0  8G12G28G10G17G09G04G27G02
  -7194181.41847  -5596998.36744  23451129.7584                   23451128.3874
  -2280104.48847  -1764918.94144  23092134.5164                   23092134.4534
 -13324445.57848 -10365781.96145  22068814.3674                   22068813.1804
  -9756208.12547  -7584227.98446  22075590.5394                   22075588.9844
  -9096041.94547  -7067394.01645  22280068.3204                   22280067.6524
 -21281518.05948 -16563623.97347  20177861.6254                   20177859.9804
 -11325827.48447  -8807274.05945  22694875.0314                   22694875.4264
 -17529672.89148 -13639870.57046  21249984.4844                   21249981.4264
 11  7 28  0 48  0.0000000  0  8G12G28G10G17G09G04G27G02
  -7269835.75047  -5655949.73044  23436733.2194                   23436732.4104
  -2178009.77347  -1685364.67644  23111562.4454                   23111562.8324
 -13381555.72747 -10410283.32845  22057946.4694                   22057945.8634
  -9698455.55147  -7539225.97745  22086580.2814                   22086578.6604
  -9046937.88747  -7029131.14545  22289412.3834                   22289412.0044
 -21228209.13348 -16522084.54347  20188005.8204                   20188004.0044
 -11274682.88747  -8767421.16045  22704608.1254                   22704607.9024
 -17559457.25848 -13663079.13346  21244316.7114                   21244313.6524
 11  7 28  0 48 30.0000000  0  9G12G28G10G17G05G09G04G27G02
  -7345345.10947  -5714788.13744  23422364.6094                   23422363.3484
  -2075573.62547  -1605544.36744  23131055.3364                   23131054.9574
 -13438283.21547 -10454486.52745  22047151.6254                   22047150.5704
  -9640578.60547  -7494127.07045  22097593.6884                   22097591.9454
  -1702145.27356  -1317367.86753  24745907.1804                   24745911.5784
  -8997239.50447  -6990405.14545  22298869.7114                   22298869.9024
 -21174414.68048 -16480166.78147  20198242.6024                   20198241.5594
 -11223109.77047  -8727234.34445  22714421.9224                   22714421.9184
 -17588843.50848 -13685977.46146  21238724.7424                   21238721.1334
 11  7 28  0 49  0.0000000  0  9G12G28G10G17G05G09G04G27G02
  -7420708.64847  -5773512.94944  23408023.2344                   23408021.9344
  -1972798.41047  -1525459.87944  23150613.3204                   23150613.3874
 -13494625.76247 -10498389.75045  22036430.4614                   22036429.1414
  -9582578.37147  -7448932.07845  22108631.2194                   22108629.2704
  -1788625.26946  -1384754.50243  24729451.5784                   24729454.5784
  -8946950.35247  -6951218.81645  22308438.9694                   22308438.5044
 -21120138.12948 -16437873.35547  20208571.0704                   20208569.9574
 -11171111.31647  -8686716.09045  22724317.4064                   22724317.5354
 -17617832.96948 -13708566.62146  21233208.0704                   21233204.8524
 11  7 28  0 49 30.0000000  0  9G12G28G10G17G05G09G04G27G02
  -7495926.75447  -5832124.40644  23393709.2814                   23393708.6524
  -1869687.82847  -1445114.03944  23170233.9774                   23170234.2854
 -13550582.87947 -10541992.64145  22025781.4224                   22025780.4024
  -9524456.53547  -7403642.32446  22119691.6804                   22119689.6604
  -1875163.10546  -1452186.21943  24712983.5634                   24712987.3444
  -8896074.91447  -6911575.64845  22318121.0004                   22318119.8634
 -21065383.88748 -16395207.69947  20218990.5314                   20218989.3524
 -11118691.58647  -8645869.58244  22734292.0634                   22734292.6724
 -17646427.50848 -13730848.03946  21227766.6644                   21227763.2274
 11  7 28  0 50  0.0000000  0  9G12G28G10G17G05G09G04G27G02
  -7571001.91847  -5890624.48044  23379423.7424                   23379421.7814
  -1766248.05547  -1364511.72344  23189918.6884                   23189918.1804
 -13606156.56647 -10585296.75045  22015205.6024                   22015205.2234
  -9466217.81647  -7358261.50846  22130773.9694                   22130772.0084
  -1961761.47746  -1519665.19143  24696504.6094                   24696507.8954
  -8844620.14147  -6871481.04345  22327911.9614                   22327912.2234
 -21010158.97748 -16352175.29347  20229499.7814                   20229498.3444
 -11065857.44947  -8604700.14545  22744346.1564                   22744346.7384
 -17674631.84848 -13752825.40646  21222399.8054                   21222396.0704
 11  7 28  0 50 30.0000000  0  9G12G28G10G17G05G09G04G27G02
  -7645927.72347  -5949008.19944  23365165.0004                   23365163.6214
  -1662476.86747  -1283651.10544  23209665.4454                   23209665.3284
 -13661339.35947 -10628296.27045  22004704.5084                   22004704.2584
  -9407858.23847  -7312786.53146  22141879.4774                   22141877.7584
  -2048413.85246  -1587186.18743  24680014.1414                   24680017.8444
  -8792584.58647  -6830933.88345  22337814.3054                   22337813.7194
 -20954461.56648 -16308774.71147  20240098.4224                   20240096.9844
 -11012607.08247  -8563206.34444  22754479.5944                   22754479.5274
 -17702441.99248 -13774495.61746  21217107.7194                   21217104.4064
 11  7 28  0 51  0.0000000  0  9G12G28G10G17G05G09G04G27G02
  -7720700.86347  -6007272.93445  23350936.7894                   23350934.7624
  -1558374.18447  -1202532.25444  23229475.8754                   23229475.9924
 -13716126.94947 -10670987.83645  21994279.2504                   21994278.2304
  -9349376.13347  -7267216.06646  22153007.6334                   22153006.7194
  -2135116.47746  -1654746.42243  24663515.4064                   24663517.8164
  -8739968.76247  -6789934.55145  22347827.1644                   22347826.6764
 -20898292.25048 -16265006.42246  20250786.9454                   20250785.7504
 -10958940.76647  -8521388.44945  22764691.4144                   22764691.8984
 -17729856.43048 -13795857.48846  21211890.7664                   21211887.3284
 11  7 28  0 51 30.0000000  0  9G12G28G10G17G05G09G04G27G02
  -7795317.06247  -6065415.37145  23336737.6644                   23336736.4534
  -1453939.58647  -1121154.73444  23249348.8054                   23249349.6414
 -13770514.55547 -10713367.73445  21983929.6884                   21983928.0434
  -9290769.37547  -7221548.48045  22164160.4064                   22164158.6454
  -2221864.89846  -1722342.26643  24647007.7734                   24647010.2114
  -8686773.22747  -6748483.50445  22357949.3914                   22357949.3984
 -20841651.53548 -16220870.79747  20261565.1884                   20261563.7624
 -10904858.97747  -8479246.78945  22774983.2894                   22774982.3634
 -17756873.03948 -13816909.36746  21206749.6724                   21206746.1804
 11  7 28  0 52  0.0000000  0  9G12G28G10G17G05G09G04G27G02
  -7869779.35547  -6123437.87545  23322568.1334                   23322567.1094
  -1349179.89847  -1039523.87944  23269283.9454                   23269284.5664
 -13824504.60947 -10755437.84845  21973655.1724                   21973654.3094
  -9232043.24247  -7175787.87945  22175335.5554                   22175333.9344
  -2308662.10246  -1789976.14143  24630489.8284                   24630493.5394
  -8633005.81647  -6706586.84845  22368180.3674                   22368179.9144
 -20784547.11348 -16176373.85547  20272432.0474                   20272430.8094
 -10850369.23847  -8436787.25845  22785352.4454                   22785352.1884
 -17783497.67648 -13837655.80946  21201682.9064                   21201679.5554
 11  7 28  0 52 30.0000000  0  9G12G28G10G17G05G09G04G27G02
  -7944082.00847  -6181336.00445  23308428.4224                   23308427.1174
  -1244093.06247   -957638.12144  23289281.7344                   23289281.4964
 -13878089.96547 -10797192.61345  21963458.7584                   21963457.3634
  -9173193.43047  -7129930.90245  22186534.8674                   22186532.6134
  -2395501.79746  -1857643.14143  24613965.2974                   24613967.5744
  -8578665.05547  -6664243.42645  22378521.7584                   22378521.5204
 -20726977.09448 -16131514.10247  20283386.9144                   20283385.6254
 -10795469.82848  -8394008.48845  22795799.2504                   22795799.0554
 -17809726.16848 -13858093.55946  21196691.8834                   21196688.4454
 11  7 28  0 53  0.0000000  0  9G12G28G10G17G05G09G04G27G02
  -8018219.68447  -6239105.58645  23294320.4844                   23294319.3554
  -1138677.63747   -875496.30544  23309341.6174                   23309340.7894
 -13931265.02048 -10838627.66445  21953340.0164                   21953338.8954
  -9114216.96147  -7083975.22745  22197757.1884                   22197755.5354
  -2482378.47746  -1925338.99243  24597432.6094                   24597435.4024
  -8523750.53547  -6621452.90245  22388971.5634                   22388972.0554
 -20668941.12548 -16086291.26647  20294431.3524                   20294429.9104
 -10740160.03547  -8350909.93445  22806324.5474                   22806324.0904
 -17835555.68448 -13878220.42646  21191776.8984                   21191773.4534
 11  7 28  0 53 30.0000000  0  9G12G28G10G17G05G09G04G27G02
  -8092188.52347  -6296743.58245  23280244.2814                   23280242.9454
  -1032933.04747   -793097.98444  23329463.8834                   23329463.9734
 -13984024.41448 -10879738.82845  21943300.2894                   21943299.4224
  -9055111.46147  -7037919.02045  22209004.7194                   22209002.9734
  -2569287.60246  -1993060.12543  24580894.4924                   24580897.0354
  -8468262.45347  -6578215.46545  22399530.6174                   22399529.5984
 -20610439.19548 -16040705.34447  20305563.5314                   20305562.2274
 -10684439.91047  -8307491.63745  22816927.2664                   22816926.9494
 -17860984.01248 -13898034.68446  21186938.1174                   21186934.6094
 11  7 28  0 54  0.0000000  0  9G12G28G10G17G05G09G04G27G02
  -8165986.41447  -6354248.38745  23266201.0474                   23266199.3984
   -926861.22747   -710444.69144  23349649.2584                   23349648.3984
 -14036365.71548 -10920524.20745  21933339.6174                   21933338.4454
  -8995877.37948  -6991762.62945  22220276.5164                   22220274.9414
  -2656227.08646  -2060804.93044  24564350.1644                   24564352.4884
  -8412203.84447  -6534533.46145  22410198.2034                   22410197.8364
 -20551474.07448 -15994758.50847  20316784.1804                   20316782.6684
 -10628311.85547  -8263755.49645  22827608.1724                   22827607.7384
 -17886011.83248 -13917536.85546  21182174.8834                   21182171.9614
 11  7 28  0 54 30.0000000  0  9G12G28G10G17G05G09G04G27G02
  -8239612.65647  -6411619.44945  23252190.9064                   23252188.9734
   -820465.41847   -627538.91844  23369895.9454                   23369895.1484
 -14088287.49648 -10960982.70345  21923459.2734                   21923458.6374
  -8936516.19147  -6945507.18745  22231572.9454                   22231571.0634
  -2743196.25846  -2128572.83644  24547799.3674                   24547803.6724
  -8355578.75447  -6490410.02345  22420973.5944                   22420973.6294
 -20492049.53948 -15948453.67246  20328092.4774                   20328090.9414
 -10571779.91847  -8219704.62145  22838366.6024                   22838366.5944
 -17910640.73448 -13936728.18046  21177488.5944                   21177485.4964
 11  7 28  0 55  0.0000000  0  9G12G28G10G17G05G09G04G27G02
  -8313071.80947  -6468860.29345  23238212.1804                   23238210.3364
   -713753.64847   -544386.95744  23390202.2034                   23390201.7704
 -14139793.33647 -11001117.07845  21913658.1564                   21913657.6884
  -8877033.78547  -6899157.30145  22242892.1564                   22242890.2894
  -2830198.88747  -2196366.85244  24531244.2114                   24531246.8834
  -8298395.72747  -6445851.83245  22431855.0554                   22431855.1954
 -20432174.44948 -15901797.75847  20339486.3754                   20339484.5354
 -10514852.61747  -8175345.67645  22849199.2974                   22849199.3874
 -17934876.92648 -13955613.49646  21172876.3284                   21172872.9964
 11  7 28  0 55 30.0000000  0  9G12G28G10G17G05G09G04G27G02
  -8386361.96547  -6525969.50445  23224265.0474                   23224262.7664
   -606728.10947   -460990.50044  23410568.8284                   23410567.8674
 -14190880.75848 -11040925.39545  21903936.6094                   21903935.6764
  -8817430.57047  -6852713.28945  22254234.2734                   22254232.3754
  -2917232.75446  -2264185.20744  24514681.8134                   24514684.6914
  -8240658.34047  -6400861.66045  22442842.0394                   22442842.2584
 -20371851.57048 -15854792.91047  20350965.3594                   20350963.8094
 -10457532.78947  -8130680.87545  22860106.2974                   22860106.1564
 -17958722.19148 -13974194.19546  21168338.9384                   21168335.3954
 11  7 28  0 56  0.0000000  0  9G12G28G10G17G05G09G04G27G02
  -8459469.60247  -6582936.46945  23210352.8204                   23210351.6604
   -499379.23847   -377342.10944  23430996.8204                   23430995.6454
 -14241535.32848 -11080396.44145  21894296.9304                   21894296.4104
  -8757695.21547  -6806166.29745  22265601.4614                   22265599.7034
  -3004284.52046  -2332017.51243  24498115.9064                   24498119.0744
  -8182357.68047  -6355432.58245  22453936.8524                   22453936.7774
 -20311071.90248 -15807432.13346  20362531.4144                   20362530.4884
 -10399811.35247  -8085703.14545  22871090.8204                   22871091.3674
 -17982164.05948 -13992460.54746  21163878.0164                   21163874.2114
 11  7 28  0 56 30.0000000  0  9G12G28G10G17G05G09G04G27G02
  -8532398.83647  -6639764.41045  23196475.3984                   23196473.9694
   -391715.14147   -293448.07844  23451484.1724                   23451483.9454
 -14291760.98048 -11119533.27045  21884739.7034                   21884738.8554
  -8697833.61348  -6759520.92645  22276992.6724                   22276990.8014
  -3091358.16846  -2399866.86743  24481546.0554                   24481549.7384
  -8123502.74247  -6309571.59845  22465136.3284                   22465136.6254
 -20249844.27348 -15759722.29347  20374182.4144                   20374181.0394
 -10341696.95747  -8040419.19145  22882149.3834                   22882149.3054
 -18005209.28548 -14010417.84046  21159492.7504                   21159488.8794
 11  7 28  0 57  0.0000000  0  9G12G28G10G17G05G09G04G27G02
  -8605155.00447  -6696457.50445  23182629.9534                   23182628.4774
   -283745.09046   -209315.66044  23472030.5704                   23472029.7974
 -14341562.44947 -11158339.55945  21875262.3444                   21875261.6334
  -8637853.55548  -6712783.25046  22288407.0554                   22288404.7154
  -3178458.77346  -2467737.21143  24464971.1094                   24464974.0944
  -8064104.01647  -6263286.86345  22476439.5554                   22476439.3014
 -20188178.71148 -15711671.20746  20385917.1564                   20385915.8634
 -10283199.53147  -7994836.80145  22893280.7974                   22893280.9264
 -18027865.64548 -14028072.10546  21155181.3204                   21155177.7274
 11  7 28  0 57 30.0000000  0  9G12G28G10G17G05G09G04G27G02
  -8677728.06247  -6753007.92245  23168819.6804                   23168817.8014
   -175462.31646   -124939.53544  23492636.2814                   23492635.2544
 -14390928.30948 -11196806.43045  21865868.8054                   21865867.6414
  -8577746.01248  -6665946.21946  22299844.8754                   22299842.7854
  -3265575.33246  -2535619.99643  24448394.0394                   24448395.6804
  -8004155.52347  -6216573.74245  22487847.4144                   22487847.7194
 -20126069.05548 -15663274.07846  20397735.8674                   20397735.0394
 -10224312.87947  -7948951.09045  22904486.5394                   22904487.6884
 -18050125.09448 -14045417.10246  21150945.5164                   21150941.7504
 11  7 28  0 58  0.0000000  0  9G12G28G10G17G05G09G04G27G02
  -8750126.09847  -6809421.95745  23155043.3754                   23155041.9844
    -66879.35246    -40329.51244  23513298.0554                   23513298.2154
 -14439866.52047 -11234940.04345  21856555.7814                   21856554.7624
  -8517521.76647  -6619018.27046  22311304.9454                   22311303.1994
  -3352715.79346  -2603521.41343  24431810.5944                   24431813.2854
  -7943670.74247  -6169442.72745  22499357.4694                   22499357.4144
 -20063528.19948 -15614540.93746  20409637.0314                   20409636.0204
 -10165050.19147  -7902772.39545  22915764.1484                   22915764.8364
 -18071998.43448 -14062461.21546  21146783.1024                   21146779.6454
 11  7 28  0 58 30.0000000  0  9G12G28G10G17G05G09G04G27G02
  -8822337.06647  -6865690.21945  23141301.7344                   23141300.4694
     42012.28546     44521.01644  23534019.6564                   23534019.8444
 -14488364.47347 -11272730.60245  21847327.0634                   21847325.9844
  -8457170.51648  -6571991.34846  22322789.8984                   22322787.9184
  -3439867.77346  -2671431.79743  24415226.0314                   24415228.2344
  -7882642.01247  -6121887.83645  22510970.9064                   22510970.8324
 -20000548.91448 -15565466.17247  20421621.9454                   20421620.5944
 -10105403.64847  -7856294.57845  22927114.3364                   22927114.9734
 -18093476.14548 -14079197.05946  21142695.8524                   21142692.1884
 11  7 28  0 59  0.0000000  0  9G12G28G10G17G05G09G04G27G02
 -10469781.71547  -8149413.25445  22827804.0234                   22827802.2464
  -1424206.52346  -1097987.22343  23255007.5634                   23255007.2934
 -16111841.12947 -12537777.30945  21538389.5314                   21538388.6884
  -9972110.96948  -7752464.45746  22034506.3054                   22034505.0164
  -5102452.87946  -3966952.37943  24098846.3054                   24098848.9574
  -9396490.85547  -7301510.29345  22222894.4614                   22222894.0984
 -21512552.01648 -16743650.40647  20133897.1724                   20133896.3794
 -11620794.60247  -9037118.71145  22638745.8444                   22638745.4614
 -19689979.94948 -15323225.95746  20838891.2114                   20838887.5124
 11  7 28  0 59 30.0000000  0  9G12G28G10G17G05G09G04G27G02
 -10541612.22347  -8205385.05145  22814134.9454                   22814132.9264
  -1314703.61346  -1012660.35544  23275845.5394                   23275845.8714
 -16159449.91847 -12574875.00045  21529329.2814                   21529329.0634
  -9911506.09048  -7705239.89146  22046038.5704                   22046037.2624
  -5189621.43046  -4034875.67644  24082259.4614                   24082260.2704
  -9334383.49247  -7253114.91845  22234713.4924                   22234713.2074
 -21448703.48848 -16693898.29747  20146047.2584                   20146046.1214
 -11560388.34847  -8990048.90645  22650240.1094                   22650240.4614
 -19710667.54748 -15339346.10546  20834954.5394                   20834950.6054
 11  7 28  1  0  0.0000000  0  9G12G28G10G17G05G09G04G27G02
 -10613250.86347  -8261207.30945  22800502.3444                   22800500.9774
  -1204899.59447   -927098.84444  23296740.9924                   23296740.7584
 -16206612.24247 -12611624.80945  21520354.4844                   21520354.1374
  -9850775.75047  -7657917.57046  22057595.4534                   22057593.7424
  -5276796.25846  -4102803.79744  24065670.9774                   24065672.9964
  -9271742.78947  -7204303.93445  22246633.5394                   22246633.7344
 -21384425.71948 -16643811.71947  20158279.2114                   20158277.3714
 -11499607.53947  -8942687.25845  22661806.3754                   22661806.5044
 -19730962.16048 -15355160.04746  20831092.6804                   20831088.9494
 11  7 28  1  0 30.0000000  0  9G12G28G10G17G05G09G04G27G02
 -10684691.47747  -8316875.25045  22786907.0554                   22786905.8364
  -1094792.83646   -841301.43743  23317693.6954                   23317693.6414
 -16253321.16848 -12648021.30545  21511466.2344                   21511465.3324
  -9789916.18748  -7610494.55945  22069176.4384                   22069175.2934
  -5363971.30946  -4170732.08644  24049080.6804                   24049082.7114
  -9208567.80947  -7155076.64845  22258655.2974                   22258654.5004
 -21319717.25448 -16593389.53947  20170592.7424                   20170591.2034
 -11438451.07047  -8895032.88345  22673444.1564                   22673444.2304
 -19750860.11348 -15370664.90646  20827306.0784                   20827302.4144
 11  7 28  1  1  0.0000000  0  9G12G28G10G17G05G09G04G27G02
 -10755931.37147  -8372386.79745  22773350.4534                   22773349.4454
   -984383.51646   -755268.30544  23338703.3674                   23338703.8244
 -16299572.84447 -12684061.52045  21502665.1334                   21502663.9614
  -9728926.05947  -7562969.79745  22080782.2424                   22080781.3204
  -5451142.59046  -4238657.48844  24032492.3364                   24032494.0594
  -9144860.19547  -7105434.33245  22270778.7424                   22270777.7344
 -21254579.62948 -16542632.94547  20182987.9924                   20182986.1334
 -11376920.13747  -8847086.70745  22685153.1804                   22685153.3914
 -19770360.64548 -15385860.07846  20823595.0554                   20823591.7154
 11  7 28  1  1 30.0000000  0  9G12G28G10G17G05G09G04G27G02
 -10826972.64847  -8427743.54345  22759832.2424                   22759830.3134
   -873678.15246   -669004.46944  23359770.1334                   23359770.8014
 -16345369.30947 -12719747.03945  21493950.0314                   21493949.3164
  -9667809.44148  -7515346.46945  22092412.8674                   22092411.3324
  -5538312.40646  -4306581.72343  24015903.3284                   24015906.5984
  -9080627.40247  -7055382.76645  22283001.5394                   22283000.6374
 -21189019.63748 -16491547.24646  20195463.5164                   20195461.7624
 -11315021.68747  -8798854.17245  22696931.8834                   22696931.9804
 -19789468.98448 -15400749.66046  20819959.0554                   20819955.4804
 11  7 28  1  2  0.0000000  0  9G12G28G10G17G05G09G04G27G02
 -10897807.69147  -8482939.61745  22746352.6644                   22746351.1334
   -762673.25446   -582507.20743  23380893.7814                   23380893.6684
 -16390702.49247 -12755071.53945  21485323.7034                   21485322.8014
  -9606560.92247  -7467620.35945  22104068.1094                   22104066.7584
  -5625472.95346  -4374498.73843  23999318.1094                   23999319.8094
  -9015867.15647  -7004920.21945  22295325.1564                   22295324.2384
 -21123034.86748 -16440130.54347  20208019.9064                   20208018.4144
 -11252752.98847  -8750333.09445  22708781.3444                   22708781.8754
 -19808179.86748 -15415329.53146  20816398.6024                   20816395.0984
 11  7 28  1  2 30.0000000  0  9G12G28G10G17G05G09G04G27G02
 -10968435.50447  -8537974.19145  22732912.5314                   22732910.9734
   -651372.49246   -495779.44543  23402073.7974                   23402073.5124
 -16435571.04348 -12790033.99645  21476785.5704                   21476783.7504
  -9545181.90247  -7419792.55945  22115748.0084                   22115746.0434
  -5712623.00447  -4442407.58244  23982734.5004                   23982735.8634
  -8950583.50047  -6954049.82845  22307747.9694                   22307748.1214
 -21056629.04348 -16388385.75047  20220656.4844                   20220654.8874
 -11190117.86347  -8701526.52045  22720700.3054                   22720699.8014
 -19826495.10248 -15429601.11746  20812913.2274                   20812909.7234
 11  7 28  1  3  0.0000000  0  9G12G28G10G17G05G09G04G27G02
 -11038855.84047  -8592847.10545  22719511.3984                   22719510.2854
   -539778.91846   -408823.47343  23423308.5784                   23423309.1914
 -16479974.03148 -12824633.69545  21468336.0004                   21468334.8954
  -9483673.70347  -7371864.10545  22127452.4064                   22127450.7664
  -5799761.72746  -4510307.59844  23966151.0084                   23966153.5044
  -8884781.18447  -6902775.28945  22320269.8754                   22320269.3954
 -20989806.29748 -16336316.07846  20233372.4534                   20233371.3834
 -11127120.29347  -8652437.50445  22732688.1414                   22732688.0704
 -19844416.75048 -15443566.00446  20809502.5314                   20809499.0124
 11  7 28  1  3 30.0000000  0  9G12G28G10G17G05G09G04G27G02
 -11109069.32047  -8647558.84045  22706150.6484                   22706149.1414
   -427897.63346   -321643.34443  23444598.9384                   23444599.2584
 -16523911.67648 -12858870.77745  21459974.8754                   21459973.7974
  -9422039.10547  -7323837.19545  22139181.1094                   22139179.0124
  -5886889.62546  -4578199.18744  23949571.5784                   23949573.0314
  -8818466.08647  -6851101.18445  22332889.4774                   22332889.4574
 -20922571.91048 -16283925.64546  20246166.3594                   20246165.4884
 -11063765.82847  -8603070.39545  22744743.8984                   22744743.7344
 -19861948.07048 -15457226.73846  20806166.4774                   20806162.9224
 11  7 28  1  4  0.0000000  0  9G12G28G10G17G05G09G04G27G02
 -11179068.18447  -8702103.34445  22692830.0004                   22692828.5514
   -315724.96546   -234236.12143  23465945.5234                   23465946.0784
 -16567375.91848 -12892738.95745  21451704.1884                   21451702.8674
  -9360272.52347  -7275707.37945  22150935.3984                   22150932.8954
  -5973998.53546  -4646076.02044  23932995.0554                   23932996.8094
  -8751635.26647  -6799025.23445  22345606.8284                   22345606.9184
 -20854922.82448 -16231212.07847  20259040.0864                   20259038.7114
 -11000051.56647  -8553422.92644  22756868.5314                   22756867.7504
 -19879084.20348 -15470579.54746  20802905.7974                   20802902.2344
 11  7 28  1  4 30.0000000  0  9G12G28G10G17G05G09G04G27G02
 -11248853.59847  -8756481.50845  22679550.3984                   22679549.0704
   -203265.76646   -146605.68443  23487346.2814                   23487345.8714
 -16610367.27747 -12926238.67645  21443522.5944                   21443521.3014
  -9298376.90247  -7227477.05545  22162713.7194                   22162711.6454
  -6061089.40246  -4713938.78144  23916422.3594                   23916423.8484
  -8684295.08647  -6746552.39145  22358420.7814                   22358421.0904
 -20786864.94148 -16178179.96946  20271990.9534                   20271989.6564
 -10935983.34447  -8503499.64845  22769060.2114                   22769060.2344
 -19895828.29348 -15483626.87146  20799719.3834                   20799715.8284
 11  7 28  1  5  0.0000000  0  9G12G28G10G17G05G09G04G27G02
 -11318423.55147  -8810691.78545  22666311.9064                   22666309.8874
    -90522.66846    -58753.98843  23508800.6024                   23508800.5274
 -16652883.81647 -12959368.39845  21435432.1724                   21435431.0274
  -9236352.70348  -7179146.53145  22174516.2114                   22174514.1684
  -6148160.18447  -4781785.90644  23899852.1804                   23899854.3984
  -8616449.25847  -6693685.53145  22371331.5164                   22371331.3634
 -20718401.48048 -16124831.82446  20285019.4144                   20285017.7584
 -10871564.15247  -8453302.88745  22781319.0944                   22781318.7464
 -19912181.47748 -15496369.59046  20796607.6174                   20796603.6134
 11  7 28  1  5 30.0000000  0  9G12G28G10G17G05G09G04G27G02
 -11387774.07447  -8864731.10945  22653114.7034                   22653113.1294
     22504.02746     29318.67643  23530308.2504                   23530308.4304
 -16694920.83247 -12992124.45345  21427432.4454                   21427431.8554
  -9174197.57448  -7130713.98845  22186344.4694                   22186341.7774
  -6235206.38347  -4849613.88744  23883287.9774                   23883289.6804
  -8548098.96947  -6640425.59045  22384337.8984                   22384338.3164
 -20649532.82048 -16071167.93746  20298124.2034                   20298122.6764
 -10806794.84047  -8402833.29344  22793644.4774                   22793643.7704
 -19928142.16848 -15508806.46946  20793569.7584                   20793566.3524
 11  7 28  1  6  0.0000000  0  9G12G28G10G17G05G09G04G27G02
 -11456904.39547  -8918598.84445  22639959.5864                   22639958.0124
    135811.06346    117609.76643  23551869.9924                   23551870.5474
 -16736477.10547 -13024505.91445  21419524.7344                   21419523.7664
  -9111913.00048  -7082180.54345  22198196.4694                   22198194.3284
  -6322226.92647  -4917421.90644  23866728.9614                   23866730.0664
  -8479248.60547  -6586775.94545  22397440.3134                   22397440.0314
 -20580263.03548 -16017191.49246  20311306.0314                   20311304.2704
 -10741679.13747  -8352093.81645  22806035.0394                   22806035.2154
 -19943712.53148 -15520939.19946  20790606.9844                   20790603.8874
 11  7 28  1  6 30.0000000  0  9G12G28G10G17G05G09G04G27G02
 -11525808.35547  -8972290.19945  22626847.4144                   22626845.7584
    249400.33646    206120.82043  23573485.5554                   23573485.3794
 -16777546.56647 -13056508.03945  21411709.2814                   21411708.3634
  -9049494.98048  -7033543.15245  22210074.0164                   22210072.1294
  -6409215.54347  -4985205.03144  23850174.8984                   23850177.4414
  -8409897.33647  -6532736.02345  22410637.3054                   22410636.9344
 -20510590.99648 -15962901.57846  20324563.9304                   20324562.7194
 -10676216.13747  -8301083.69144  22818492.4144                   22818493.0394
 -19958889.12548 -15532765.09046  20787719.3914                   20787715.3874
 11  7 28  1  7  0.0000000  0  9G12G28G10G17G05G09G04G27G02
 -11594485.68047  -9025804.98445  22613779.2034                   22613776.9454
    363267.97746    294848.78943  23595153.9224                   23595153.9184
 -16818128.50447 -13088130.27745  21403986.7274                   21403986.2814
  -8986944.88348  -6984802.80945  22221977.0554                   22221974.8914
  -6496171.30147  -5052962.54344  23833628.0474                   23833629.1994
  -8340049.95347  -6478309.50045  22423928.6804                   22423927.9574
 -20440520.84848 -15908301.46546  20337897.7504                   20337896.4924
 -10610409.98847  -8249806.20744  22831015.1094                   22831014.7034
 -19973674.24648 -15544285.94946  20784906.0314                   20784902.3404
 11  7 28  1  7 30.0000000  0  9G12G28G10G17G05G09G04G27G02
 -11662937.40647  -9079143.97345  22600752.6644                   22600750.8914
    477409.04347    383789.83244  23616874.6414                   23616874.2774
 -16858223.64147 -13119373.19145  21396357.3204                   21396356.4264
  -8924265.95347  -6935962.10245  22233904.6484                   22233903.3594
  -6583095.02347  -5120695.12144  23817086.6254                   23817087.6644
  -8269712.92647  -6423501.44145  22437313.7734                   22437312.4454
 -20370058.37948 -15853395.64146  20351306.2974                   20351305.1054
 -10544266.57047  -8198265.89544  22843601.6564                   22843601.9144
 -19988071.50048 -15555504.56646  20782166.0554                   20782162.8444
 11  7 28  1  8  0.0000000  0  9G12G28G10G17G05G09G04G27G02
 -11731164.10247  -9132307.60245  22587769.6414                   22587768.0124
    591818.43047    472939.93044  23638645.6804                   23638645.8834
 -16897832.16047 -13150236.91845  21388819.7424                   21388818.5554
  -8861460.85247  -6887023.06645  22245855.2584                   22245854.3954
  -6669987.09847  -5188403.00844  23800551.0004                   23800553.0234
  -8198892.05947  -6368316.38745  22450790.6254                   22450789.2344
 -20299209.26648 -15798188.55146  20364788.5944                   20364787.2734
 -10477791.51647  -8146467.16044  22856251.3984                   22856251.2344
 -20002084.37548 -15566423.66446  20779499.4454                   20779495.8204
 11  7 28  1  8 30.0000000  0  9G12G28G10G17G05G09G04G27G02
 -11799155.98447  -9185288.26645  22574831.1954                   22574829.4774
    706501.29747    562303.16844  23660469.6564                   23660469.5554
 -16936944.49247 -13180714.00846  21381376.7344                   21381375.7304
  -8798521.94147  -6837979.76245  22257832.6804                   22257830.9734
  -6756837.55147  -5256078.47344  23784024.3134                   23784025.5234
  -8127583.38347  -6312751.19145  22464359.3984                   22464359.3094
 -20227968.61348 -15742676.36346  20378345.3204                   20378343.9574
 -10410980.33647  -8094406.53944  22868965.1094                   22868965.2934
 -20015706.27048 -15577038.10246  20776907.1804                   20776904.1094
 11  7 28  1  9  0.0000000  0  9G12G28G10G17G05G09G04G27G02
 -11866917.03947  -9238089.06245  22561936.2734                   22561935.0744
    821449.91047    651873.43043  23682343.2194                   23682343.5234
 -16975564.19147 -13210807.22345  21374027.5554                   21374026.5314
  -8735455.08247  -6788836.76245  22269834.1094                   22269832.3874
  -6843649.72346  -5323724.08244  23767503.3284                   23767505.9304
  -8055796.06247  -6256813.01645  22478021.0554                   22478020.5594
 -20156345.03148 -15686865.79346  20391974.8364                   20391974.0394
 -10343841.44147  -8042090.54744  22881741.8364                   22881741.1644
 -20028943.21948 -15587352.59046  20774388.4924                   20774384.7034
 11  7 28  1  9 30.0000000  0  9G12G28G10G17G05G09G04G27G02
 -11934438.81247  -9290703.41845  22549087.6564                   22549085.7934
    936668.16446    741653.82043  23704268.2034                   23704268.5554
 -17013682.52048 -13240509.77745  21366774.2344                   21366772.9184
  -8672254.13747  -6739589.29345  22281860.7274                   22281859.0514
  -6930415.26647  -5391333.35944  23750992.2194                   23750993.9454
  -7983526.98847  -6200499.46945  22491772.9144                   22491772.5164
 -20084334.99248 -15630754.08246  20405677.8444                   20405677.1024
 -10276371.50047  -7989516.60244  22894580.9534                   22894580.4184
 -20041789.92648 -15597362.98446  20771943.5314                   20771939.9734
 11  7 28  1 10  0.0000000  0  9G12G28G10G17G05G09G04G27G02
 -12001722.60947  -9343132.32045  22536284.2584                   22536282.1294
   1052150.60546    831640.07043  23726244.3134                   23726244.2974
 -17051300.35948 -13269822.32445  21359615.3284                   21359614.1484
  -8608921.84848  -6690239.45745  22293912.5314                   22293911.1054
  -7017134.62147  -5458906.68044  23734490.0164                   23734492.0784
  -7910782.77747  -6143815.66045  22505615.9614                   22505615.3324
 -20011944.19548 -15574345.66846  20419453.4694                   20419452.1724
 -10208576.47747  -7936689.34444  22907481.7034                   22907481.7114
 -20054250.27048 -15607072.31646  20769572.2424                   20769568.8674
 11  7 28  1 10 30.0000000  0  9G12G28G10G17G05G09G04G27G02
 -12068770.07047  -9395377.05945  22523524.7734                   22523523.4064
   1167891.35546    921827.62943  23748269.0634                   23748269.1374
 -17088419.65248 -13298746.40245  21352552.3134                   21352550.5594
  -8545462.26648  -6640790.45345  22305988.2664                   22305987.0784
  -7103809.72347  -5526445.50044  23717996.3984                   23717998.4024
  -7837570.57047  -6086767.22745  22519546.9924                   22519546.8714
 -19939179.45748 -15517645.88346  20433299.7664                   20433298.8134
 -10140463.04747  -7883613.95344  22920442.7814                   22920443.3714
 -20066328.92248 -15616484.21946  20767273.8914                   20767270.2974
 11  7 28  1 11  0.0000000  0  9G12G28G10G17G05G09G04G27G02
 -12135578.70347  -9447435.66845  22510812.0944                   22510810.4024
   1283888.30546   1012214.81343  23770342.5004                   23770342.0984
 -17125037.50048 -13327279.75045  21345583.7814                   21345582.6414
  -8481875.21148  -6591242.10945  22318088.5234                   22318087.5864
  -7190437.54747  -5593947.48844  23701511.5864                   23701513.5394
  -7763893.34447  -6029356.39545  22533567.8444                   22533567.7234
 -19866043.21548 -15460656.60946  20447217.3914                   20447215.9064
 -10072033.86747  -7830292.55945  22933464.2974                   22933465.4774
 -20078026.52048 -15625599.20346  20765047.7814                   20765044.4694
 11  7 28  1 11 30.0000000  0  9G12G28G10G17G05G09G04G27G02
 -12202143.21547  -9499304.11345  22498145.1094                   22498142.6134
   1400142.32046   1102802.26643  23792464.3674                   23792464.9964
 -17161148.92648 -13355418.47745  21338711.8834                   21338710.3204
  -8418157.40247  -6541591.86745  22330213.5474                   22330212.3094
  -7277012.65647  -5661408.39144  23685037.5944                   23685038.2544
  -7689751.65647  -5971583.65645  22547676.4534                   22547676.6094
 -19792535.34848 -15403377.75846  20461205.5944                   20461204.3364
 -10003288.78947  -7776724.98844  22946546.1804                   22946546.0394
 -20089340.43748 -15634415.21946  20762895.0164                   20762891.1644
 11  7 28  1 12  0.0000000  0  9G12G28G10G17G05G09G04G27G02
 -12268457.65647  -9550977.66045  22485525.8204                   22485523.9064
   1516655.37946   1193591.60543  23814636.4844                   23814636.6374
 -17196747.46547 -13383157.55145  21331937.7114                   21331936.1374
  -8354304.70747  -6491836.53145  22342364.4614                   22342363.2114
  -7363528.52047  -5728823.14145  23668573.1884                   23668575.1024
  -7615144.56647  -5913448.27745  22561874.1724                   22561873.1254
 -19718654.18748 -15345808.02346  20475264.5864                   20475262.9884
  -9934226.43747  -7722910.20744  22959689.2814                   22959688.7274
 -20100267.26248 -15642929.59446  20760815.5864                   20760811.7974
 11  7 28  1 12 30.0000000  0  9G12G28G10G17G05G09G04G27G02
 -12334518.18747  -9602453.35545  22472954.8674                   22472953.1214
   1633426.58246   1284582.10543  23836857.9064                   23836856.9574
 -17231829.53947 -13410494.18745  21325261.6414                   21325260.2544
  -8290315.59047  -6441974.86345  22354541.1724                   22354539.9184
  -7449981.19147  -5796188.66044  23652122.2424                   23652122.4694
  -7540074.23047  -5854951.91045  22576159.4144                   22576159.3164
 -19644401.14548 -15287948.51646  20489394.4614                   20489393.0634
  -9864848.37947  -7668849.37544  22972890.5704                   22972891.2854
 -20110806.37548 -15651141.85946  20758809.9694                   20758806.1724
 11  7 28  1 13  0.0000000  0  9G12G28G10G17G05G09G04G27G02
 -12400332.79347  -9653737.39545  22460430.5314                   22460428.5474
   1750443.98846   1375764.43842  23859124.6254                   23859124.3094
 -17266402.57048 -13437434.16445  21318682.8834                   21318681.4384
  -8226199.86347  -6392014.57445  22366741.7274                   22366740.7664
  -7536378.10947  -5863510.76245  23635680.8914                   23635681.6094
  -7464553.90647  -5796104.89845  22590529.8984                   22590529.7894
 -19569788.97748 -15229809.15646  20503593.0234                   20503591.3204
  -9795167.35247  -7614552.45344  22986151.1174                   22986150.3794
 -20120968.53948 -15659060.39146  20756876.1884                   20756872.7274
 11  7 28  1 13 30.0000000  0  9G12G28G10G17G05G09G04G27G02
 -12465898.92647  -9704827.81645  22447953.8284                   22447952.2234
   1867705.67246   1467137.11743  23881439.6724                   23881439.3484
 -17300464.16847 -13463975.63345  21312201.0634                   21312199.8244
  -8161957.05147  -6341955.25845  22378967.0004                   22378966.0664
  -7622716.54747  -5930787.27044  23619251.1024                   23619251.5704
  -7388586.45347  -5736909.50045  22604986.2194                   22604985.5744
 -19494819.88748 -15171391.68746  20517858.8754                   20517857.5664
  -9725185.86347  -7560021.45344  22999467.4144                   22999468.0514
 -20130754.24248 -15666685.58246  20755014.1484                   20755010.4064
 11  7 28  1 14  0.0000000  0  9G12G28G10G17G05G09G04G27G02
 -12531213.27047  -9755722.05945  22435525.0634                   22435523.0944
   1985210.26646   1558699.07443  23903799.9534                   23903799.9264
 -17334011.16447 -13490116.11345  21305817.3524                   21305815.5084
  -8097585.98047  -6291795.98845  22391216.6564                   22391215.3914
  -7708992.96547  -5998015.45744  23602833.3914                   23602834.1884
  -7312174.27347  -5677367.55945  22619526.7114                   22619526.6994
 -19419495.60948 -15112697.44146  20532192.7894                   20532191.4384
  -9654905.78547  -7505257.75044  23012841.5084                   23012842.4414
 -20140162.93048 -15674017.00846  20753223.6884                   20753219.9304
 11  7 28  1 14 30.0000000  0  9G12G28G10G17G05G09G04G27G02
 -12596270.42247  -9806415.88745  22423144.9614                   22423143.1024
   2102958.89846   1650451.19543  23926206.7664                   23926206.9414
 -17367038.32047 -13515851.52046  21299532.6724                   21299531.1954
  -8033083.26248  -6241534.14145  22403491.3134                   22403489.4774
  -7795201.61747  -6065190.85944  23586428.1724                   23586428.1024
  -7235317.52047  -5617479.18045  22634152.4304                   22634152.6994
 -19343815.62548 -15053726.03146  20546594.1644                   20546593.0704
  -9584326.67247  -7450261.07444  23026273.0864                   23026271.4304
 -20149192.39548 -15681052.92246  20751505.5864                   20751501.8094
 11  7 28  1 15  0.0000000  0  9G12G28G10G17G05G09G04G27G02
 -12661065.07848  -9856905.16445  22410815.0394                   22410812.9694
   2220952.60946   1742394.32843  23948660.8204                   23948660.2344
 -17399539.93748 -13541177.41046  21293347.3134                   21293346.1914
  -7968445.54347  -6191167.10945  22415791.2974                   22415790.0434
  -7881336.58647  -6132308.84444  23570037.3444                   23570037.6484
  -7158016.15647  -5557244.37945  22648862.3284                   22648861.8284
 -19267779.39848 -14994477.03546  20561063.4534                   20561062.1414
  -9513448.14547  -7395031.06644  23039759.9384                   23039761.0084
 -20157840.04348 -15687791.30546  20749859.9614                   20749856.4304
 11  7 28  1 15 30.0000000  0  9G12G28G10G17G05G09G04G27G02
 -12725595.91447  -9907188.87545  22398534.8284                   22398533.3324
   2339188.20446   1834525.91243  23971159.8984                   23971159.6724
 -17431514.69948 -13566092.77046  21287262.7664                   21287261.6454
  -7903673.64148  -6140695.52045  22428116.7974                   22428115.1564
  -7967396.47747  -6199368.32444  23553660.5944                   23553660.4844
  -7080274.84447  -5496666.74645  22663655.7034                   22663655.5594
 -19191390.47748 -14934953.21146  20575599.6254                   20575598.6334
  -9442273.93747  -7339570.63344  23053304.5164                   23053304.2274
 -20166107.52348 -15694233.45746  20748286.7424                   20748282.7504
 11  7 28  1 16  0.0000000  0  9G12G28G10G17G05G09G04G27G02
 -12789866.46548  -9957269.76645  22386304.6174                   22386302.2464
   2457657.74246   1926839.77043  23993704.1484                   23993704.1764
 -17462966.54348 -13590600.64846  21281277.4454                   21281276.4924
  -7838773.07448  -6090123.67245  22440467.1954                   22440465.2814
  -8053384.39547  -6266371.71544  23537296.3054                   23537297.1724
  -7002102.61347  -5435753.32844  22678531.6484                   22678531.5434
 -19114657.16848 -14875161.03146  20590201.7034                   20590200.3134
  -9370812.58247  -7283886.49644  23066903.2504                   23066902.7504
 -20174001.09048 -15700384.25046  20746784.6024                   20746780.2154
 11  7 28  1 16 30.0000000  0  9G12G28G10G17G05G09G04G27G02
 -12853868.41048 -10007141.35945  22374125.0474                   22374123.1644
   2576364.68846   2019338.65243  24016293.0704                   24016292.8754
 -17493887.07848 -13614694.53146  21275393.3444                   21275392.5664
  -7773737.72747  -6039446.78145  22452842.9614                   22452840.5434
  -8139291.89847  -6333312.47344  23520949.1094                   23520949.5434
  -6923497.16447  -5374502.32845  22693489.7034                   22693489.1094
 -19037576.65648 -14815098.30946  20604869.6484                   20604868.0004
  -9299061.34447  -7227976.45344  23080556.9384                   23080557.6254
 -20181516.27748 -15706240.20746  20745354.2894                   20745350.1764
 11  7 28  1 17  0.0000000  0  9G12G28G10G17G05G09G04G27G02
 -12917604.52748 -10056805.81245  22361996.8674                   22361994.7774
   2695302.59046   2112017.50043  24038927.0004                   24038926.5434
 -17524279.23048 -13638376.67646  21269610.1804                   21269608.9884
  -7708572.41847  -5988668.64545  22465243.8364                   22465241.4694
  -8225121.14847  -6400192.22344  23504615.9614                   23504617.3874
  -6844466.24647  -5312919.82045  22708529.0864                   22708528.6564
 -18960155.91448 -14754770.44946  20619602.1254                   20619601.0164
  -9227027.62547  -7171846.29344  23094264.1484                   23094264.3204
 -20188658.01648 -15711805.16846  20743995.0784                   20743991.1374
 11  7 28  1 17 30.0000000  0  9G12G28G10G17G05G09G04G27G02
 -12981067.69548 -10106257.57845  22349920.1884                   22349918.3484
   2814473.63346   2204878.02343  24061602.9614                   24061603.8134
 -17554136.22748 -13661641.82846  21263927.7344                   21263927.3054
  -7643271.76648  -5937785.04345  22477669.6954                   22477667.3524
  -8310864.57847  -6467005.10545  23488299.9304                   23488300.4344
  -6765008.81247  -5251004.94145  22723649.4224                   22723648.2894
 -18882392.78548 -14694175.80546  20634400.0394                   20634398.6454
  -9154709.62947  -7115494.62544  23108025.7974                   23108026.2194
 -20195422.53548 -15717076.19546  20742708.2274                   20742703.4734
 11  7 28  1 18  0.0000000  0  9G12G28G10G17G05G09G04G27G02
 -13044259.25848 -10155497.70745  22337895.8134                   22337893.2274
   2933871.87946   2297915.54743  24084323.9924                   24084324.8444
 -17583459.26648 -13684490.89846  21258348.3054                   21258347.6524
  -7577839.19947  -5886798.63745  22490121.2974                   22490119.1024
  -8396523.56647  -6533752.20745  23471999.4304                   23471999.8524
  -6685131.96947  -5188763.25845  22738849.6484                   22738849.0274
 -18804293.86348 -14633319.50846  20649261.9774                   20649260.4384
  -9082113.70747  -7058926.39144  23121840.4694                   23121841.1994
 -20201814.04748 -15722056.55946  20741491.6024                   20741487.5904
 11  7 28  1 18 30.0000000  0  9G12G28G10G17G05G09G04G27G02
 -13107175.57448 -10204523.36346  22325922.9144                   22325920.5704
   3053496.71946   2391129.63743  24107088.4454                   24107088.9024
 -17612245.26248 -13706921.49646  21252870.6414                   21252869.3594
  -7512273.63747  -5835708.60545  22502597.3284                   22502595.5634
  -8482093.92647  -6600430.24645  23455715.8054                   23455716.2074
  -6604837.58246  -5126196.24245  22754128.5084                   22754128.8914
 -18725860.12548 -14572202.31246  20664186.9454                   20664185.9494
  -9009241.39847  -7002142.82444  23135707.7894                   23135707.9774
 -20207832.21548 -15726746.00846  20740346.6024                   20740342.1914
 11  7 28  1 19  0.0000000  0  9G12G28G10G17G05G09G04G27G02
 -13169815.46547 -10253333.60946  22314002.3204                   22314000.7074
   3173344.70346   2484517.57843  24129894.3444                   24129895.7194
 -17640493.01648 -13728932.68446  21247495.4144                   21247493.8714
  -7446575.52747  -5784515.26245  22515099.7034                   22515097.4534
  -8567574.29747  -6667038.18045  23439449.4064                   23439449.8484
  -6524130.33647  -5063307.46945  22769486.2734                   22769487.0514
 -18647095.80148 -14510827.50446  20679175.4534                   20679173.9064
  -8936096.84847  -6945147.09844  23149626.2734                   23149627.5164
 -20213478.66448 -15731145.80146  20739271.8134                   20739267.4574
 11  7 28  1 19 30.0000000  0  9G12G28G10G17G05G09G04G27G02
 -13232172.94148 -10301923.79746  22302136.3984                   22302134.7424
   3293417.19546   2578080.52043  24152744.4614                   24152745.1094
 -17668196.94148 -13750520.11346  21242223.3364                   21242222.1684
  -7380741.11347  -5733215.71945  22527627.7664                   22527625.6884
  -8652958.30147  -6733571.02345  23423201.2274                   23423201.9804
  -6443009.98847  -5000096.82445  22784924.0704                   22784923.9184
 -18567999.41048 -14449193.94946  20694227.1564                   20694225.5904
  -8862679.18047  -6887938.57444  23163597.5004                   23163597.5314
 -20218750.70348 -15735253.85946  20738268.5704                   20738264.7424
 11  7 28  1 20  0.0000000  0  9G12G28G10G17G05G09G04G27G02
 -13294242.25047 -10350289.45346  22290324.6954                   22290322.9304
   3413715.09046   2671819.05143  24175635.6254                   24175636.5864
 -17695351.75048 -13771679.66046  21237055.8674                   21237054.5124
  -7314767.37147  -5681807.62945  22540182.0394                   22540179.6884
  -8738240.20347  -6800024.27745  23406971.9384                   23406972.9104
  -6361477.00046  -4936564.64145  22800438.7894                   22800439.1054
 -18488570.87548 -14387301.58246  20709341.9534                   20709340.9844
  -8788988.29747  -6830517.13744  23177620.1484                   23177621.3054
 -20223646.15648 -15739068.46946  20737336.8594                   20737332.8834
 11  7 28  1 20 30.0000000  0  9G12G28G10G17G05G09G04G27G02
 -13356026.28148 -10398432.81246  22278567.7114                   22278565.7814
   3534231.93046   2765728.23043  24198569.5004                   24198570.5664
 -17721959.73048 -13792413.09445  21231992.5004                   21231990.9494
  -7248658.09447  -5630293.89145  22552762.0474                   22552761.0824
  -8823421.72347  -6866399.35545  23390762.9304                   23390762.9534
  -6279538.90647  -4872716.77345  22816030.9304                   22816031.1914
 -18408816.97348 -14325155.67246  20724518.4384                   20724517.0664
  -8715031.19947  -6772888.27744  23191694.1954                   23191694.0594
 -20228170.12948 -15742593.60946  20736475.9144                   20736471.8364
 11  7 28  1 21  0.0000000  0  9G12G28G10G17G05G09G04G27G02
 -13417523.14147 -10446352.39846  22266865.0864                   22266863.3914
   3654964.91846   2859805.82843  24221543.1414                   24221545.6254
 -17748019.43048 -13812719.31246  21227033.1954                   21227032.1884
  -7182413.68047  -5578674.86345  22565367.9304                   22565366.2464
  -8908500.87147  -6932694.64845  23374572.7504                   23374572.9304
  -6197199.97747  -4808556.55944  22831699.4844                   22831699.5004
 -18328740.67648 -14262758.55146  20739756.5004                   20739754.8634
  -8640811.45347  -6715054.73844  23205817.6644                   23205817.8714
 -20232324.04348 -15745830.40246  20735685.8834                   20735681.6024
 11  7 28  1 21 30.0000000  0  9G12G28G10G17G05G09G04G27G02
 -13478731.63347 -10494047.27746  22255217.6644                   22255215.6914
   3775910.46546   2954049.05943  24244560.1254                   24244560.3524
 -17773530.27048 -13832597.84046  21222178.5474                   21222178.0984
  -7116034.89847  -5526951.14145  22577999.1254                   22577998.2934
  -8993476.08647  -6998908.96145  23358402.7734                   23358402.4224
  -6114464.60947  -4744087.43445  22847443.3914                   22847443.8754
 -18248345.94148 -14200113.30146  20755054.8914                   20755053.7544
  -8566333.02747  -6657019.64844  23219990.9844                   23219990.7304
 -20236109.79748 -15748780.31246  20734965.0394                   20734960.8484
 11  7 28  1 22  0.0000000  0  9G12G28G10G17G05G09G04G27G02
 -13539648.79748 -10541515.16846  22243625.7504                   22243622.9184
   3897066.69146   3048456.43843  24267614.7504                   24267615.7154
 -17798489.96948 -13852046.90246  21217429.5394                   21217428.0744
  -7049521.17647  -5475122.27345  22590656.0704                   22590655.0394
  -9078344.31247  -7065039.88745  23342251.9534                   23342252.1684
  -6031336.08647  -4679311.96145  22863262.9534                   22863263.0864
 -18167635.10248 -14137221.74646  20770413.7344                   20770412.2894
  -8491598.51647  -6598785.00044  23234212.0944                   23234211.6994
 -20239527.85248 -15751443.70346  20734314.8984                   20734310.8634
 11  7 28  1 22 30.0000000  0  9G12G28G10G17G05G09G04G27G02
 -13600271.77347 -10588753.83645  22232089.2814                   22232086.4964
   4018432.07047   3143026.90243  24290710.4224                   24290710.4144
 -17822895.79748 -13871064.38746  21212784.6414                   21212783.4264
  -6982871.91847  -5423187.77745  22603339.5234                   22603338.2934
  -9163102.28547  -7131084.91444  23326123.2274                   23326122.9614
  -5947817.31647  -4614232.38345  22879155.9774                   22879155.5904
 -18086610.12548 -14074085.40246  20785832.3984                   20785831.1764
  -8416610.09047  -6540352.48844  23248482.0394                   23248482.3404
 -20242578.21148 -15753820.58246  20733734.0004                   20733730.7854
 11  7 28  1 23  0.0000000  0  9G12G28G10G17G05G09G04G27G02
 -13660601.54748 -10635764.00045  22220608.9144                   22220607.0004
   4140001.29346   3237756.12143  24313843.7814                   24313843.6254
 -17846749.02048 -13889651.27046  21208245.7504                   21208243.9614
  -6916089.86747  -5371149.79345  22616047.5234                   22616046.9064
  -9247750.64147  -7197044.50845  23310014.1954                   23310015.2234
  -5863914.91447  -4548853.87545  22895122.2814                   22895122.1994
 -18005276.82048 -14010708.79346  20801309.6484                   20801308.4694
  -8341373.94147  -6481726.96144  23262799.1724                   23262799.0204
 -20245265.11748 -15755914.25046  20733223.0944                   20733219.1884
 11  7 28  1 23 30.0000000  0  9G12G28G10G17G05G09G04G27G02
 -13720629.09447 -10682538.68046  22209185.8834                   22209183.5784
   4261778.50846   3332647.50442  24337017.2584                   24337018.2424
 -17870040.73848 -13907800.62146  21203813.6174                   21203812.1764
  -6849167.87947  -5319002.79745  22628782.8754                   22628781.2854
  -9332279.88347  -7262911.30144  23293929.2734                   23293929.1684
  -5779625.62947  -4483173.90244  22911161.5314                   22911160.7854
 -17923630.77748 -13947088.50446  20816845.9064                   20816845.0274
  -8265886.05547  -6422905.26244  23277164.1414                   23277164.1644
 -20247582.73848 -15757720.15246  20732781.9064                   20732777.9494
 11  7 28  1 24  0.0000000  0  9G12G28G10G17G05G09G04G27G02
 -13780353.50448 -10729077.15246  22197820.7424                   22197818.7774
   4383760.32846   3427698.25042  24360229.9774                   24360230.3754
 -17892770.55148 -13925512.12146  21199488.0704                   21199486.7854
  -6782107.33247  -5266747.82045  22641544.0234                   22641542.8324
  -9416688.70347  -7328684.27744  23277867.1954                   23277866.3754
  -5694954.46547  -4417196.35244  22927273.5394                   22927273.9574
 -17841676.30548 -13883227.87546  20832441.7274                   20832440.9654
  -8190150.67647  -6363890.69544  23291575.5864                   23291575.9694
 -20249533.17648 -15759239.95346  20732410.9384                   20732406.8484
 11  7 28  1 24 30.0000000  0  8G12G10G17G05G09G04G27G02
 -13839778.37547 -10775382.21545  22186512.3524                   22186510.6724
 -17914942.43748 -13942788.87146  21195268.6954                   21195267.7424
  -6714913.66047  -5214389.09045  22654330.1644                   22654329.3204
  -9500980.21147  -7394365.81645  23261826.7114                   23261827.0664
  -5609910.42647  -4350928.26244  22943457.1724                   22943456.3834
 -17759421.63348 -13819133.32046  20848094.4454                   20848092.9264
  -8114176.36747  -6304689.94544  23306033.2194                   23306033.1564
 -20251122.98448 -15760478.73846  20732108.3674                   20732104.4384
 11  7 28  1 25  0.0000000  0  8G12G10G17G05G09G04G27G02
 -13898894.17647 -10821446.44545  22175263.1954                   22175260.9264
 -17936547.82848 -13959624.21546  21191157.2274                   21191155.9654
  -6647579.44547  -5161920.88345  22667143.8834                   22667142.9654
  -9585144.87147  -7459948.52745  23245810.7664                   23245810.3444
  -5524490.28147  -4284367.11744  22959712.0234                   22959712.3244
 -17676862.48848 -13754801.52346  20863804.6414                   20863803.5274
  -8037959.45747  -6245300.16844  23320537.1024                   23320536.6374
 -20252346.28948 -15761431.93746  20731875.4774                   20731871.1644
 11  7 28  1 25 30.0000000  0  8G12G10G17G05G09G04G27G02
 -13957695.37148 -10867265.53945  22164073.7114                   22164071.4534
 -17957581.70748 -13976014.21146  21187155.1174                   21187153.4104
  -6580101.57447  -5109340.73045  22679985.0164                   22679983.6484
  -9669176.58247  -7525427.64545  23229819.9384                   23229819.7584
  -5438694.56647  -4217513.31644  22976038.8364                   22976038.0704
 -17593998.32448 -13690232.05146  20879573.4534                   20879571.8134
  -7961499.73447  -6185721.17244  23335087.3134                   23335086.2384
 -20253200.87548 -15762097.82046  20731712.8674                   20731708.8094
 11  7 28  1 26  0.0000000  0  8G12G10G17G05G09G04G27G02
 -14016180.57847 -10912838.40645  22152944.3914                   22152941.9614
 -17978043.38348 -13991958.33246  21183260.6174                   21183259.8794
  -6512480.43047  -5056648.93045  22692852.2194                   22692851.1884
  -9753073.92647  -7590802.06645  23213854.1174                   23213854.7774
  -5352527.60247  -4150370.24244  22992435.3444                   22992434.2544
 -17510832.58248 -13625427.57446  20895399.5234                   20895397.6804
  -7884801.26647  -6125956.11344  23349681.6564                   23349682.6294
 -20253688.40648 -15762477.69146  20731619.9454                   20731615.7304
 11  7 28  1 26 30.0000000  0  8G12G10G17G05G09G04G27G02
 -14074346.12547 -10958162.20345  22141876.0234                   22141873.2624
 -17997929.33648 -14007453.84446  21179476.7974                   21179475.4614
  -6444714.48047  -5003844.30145  22705747.6884                   22705746.5864
  -9836832.35547  -7656068.23845  23197916.0704                   23197915.9734
  -5265991.37547  -4082939.41044  23008902.9454                   23008902.3284
 -17427366.49248 -13560389.06246  20911282.7114                   20911280.9844
  -7807865.09847  -6066005.85944  23364321.6334                   23364323.2624
 -20253808.33648 -15762571.11346  20731597.1954                   20731593.2584
 11  7 28  1 27  0.0000000  0  8G12G10G17G05G09G04G27G02
 -14132188.61347 -11003234.26245  22130868.7114                   22130866.5634
 -18017236.51648 -14022498.36346  21175802.9224                   21175801.5204
  -6376801.88747  -4950925.39145  22718671.3914                   22718669.3754
  -9920447.89147  -7721223.06245  23182003.8444                   23182004.7544
  -5179087.99247  -4015222.50444  23025440.3134                   23025439.3674
 -17343601.18748 -13495117.39546  20927222.4224                   20927220.6884
  -7730692.82846  -6005871.62944  23379007.2504                   23379008.0004
 -20253560.34848 -15762377.84846  20731644.2974                   20731640.5704
 11  7 28  1 27 30.0000000  0  8G12G10G17G05G09G04G27G02
 -14189710.29347 -11048056.32845  22119922.9224                   22119920.7934
 -18035967.91848 -14037094.22346  21172238.0554                   21172236.6884
  -6308747.52047  -4897896.02045  22731621.4844                   22731620.1764
 -10003923.03547  -7786268.49645  23166119.0704                   23166119.2074
  -5091826.17247  -3947226.30944  23042044.6174                   23042045.2424
 -17259544.30148 -13429618.52046  20943217.9454                   20943216.3204
  -7653292.45346  -5945559.66044  23393736.6334                   23393736.3484
 -20252950.12548 -15761902.31646  20731760.5784                   20731756.2894
 11  7 28  1 28  0.0000000  0  8G12G10G17G05G09G04G27G02
 -14246904.72347 -11092623.40245  22109038.9924                   22109036.9024
 -18054117.65248 -14051236.83646  21168784.4304                   21168782.9734
  -6240547.03547  -4844752.77745  22744599.3444                   22744598.2034
 -10087250.73847  -7851199.05145  23150262.3914                   23150262.4344
  -5004205.20747  -3878950.25844  23058718.6094                   23058718.1994
 -17175194.13348 -13363891.11346  20959269.2504                   20959267.7504
  -7575662.71147  -5885068.94944  23408508.8364                   23408508.7934
 -20251974.57848 -15761142.12146  20731946.0004                   20731941.8364
 11  7 28  1 28 30.0000000  0  8G12G10G17G05G09G04G27G02
 -14303772.82847 -11136936.19145  22098217.6564                   22098215.0664
 -18071687.28148 -14064927.42246  21165440.8754                   21165439.2384
  -6172202.86347  -4791497.57445  22757604.9774                   22757604.3244
 -10170431.40247  -7916015.00845  23134433.6414                   23134433.9184
  -4916231.57847  -3810399.43044  23075459.9844                   23075459.5634
 -17090556.28548 -13297939.53546  20975375.0704                   20975373.9224
  -7497809.43447  -5824404.03944  23423324.5084                   23423324.3754
 -20250637.57448 -15760100.27046  20732200.3984                   20732196.5004
 11  7 28  1 29  0.0000000  0  8G12G10G17G05G09G04G27G02
 -14360315.82048 -11180995.63746  22087457.8914                   22087455.4304
 -18088678.97348 -14078167.65646  21162207.5004                   21162206.1174
  -6103718.62947  -4738133.26645  22770637.0314                   22770635.7624
 -10253465.78547  -7980716.98845  23118632.6174                   23118632.7274
  -4827912.69947  -3741579.55544  23092266.5634                   23092265.2584
 -17005636.94948 -13231768.61746  20991535.0164                   20991533.3874
  -7419739.43746  -5763570.28544  23438179.9844                   23438180.8164
 -20248943.72748 -15758780.36346  20732522.9454                   20732518.6644
 11  7 28  1 29 30.0000000  0  8G12G10G17G05G09G04G27G02
 -14416525.87147 -11224795.66846  22076761.1414                   22076759.1054
 -18105085.38348 -14090951.83246  21159085.9534                   21159084.1094
  -6035088.30947  -4684655.10545  22783696.8914                   22783695.5274
 -10336345.89547  -8045298.76645  23102861.0864                   23102860.9224
  -4739246.58247  -3672489.13744  23109139.4924                   23109139.1684
 -16920433.28148 -13165376.13746  21007748.6094                   21007747.6844
  -7341449.96946  -5702565.53144  23453077.8914                   23453078.4304
 -20246888.38348 -15757178.78146  20732913.8364                   20732910.0744
 11  7 28  1 30  0.0000000  0  8G12G10G17G05G09G04G27G02
 -14472407.05947 -11268339.41846  22066127.3134                   22066124.9454
 -18120911.18748 -14103283.58246  21156073.9304                   21156072.6644
  -5966317.93447  -4631067.81645  22796783.0634                   22796781.5704
 -10419075.10547  -8109762.95345  23087117.9844                   23087117.8794
  -4650243.07847  -3603135.77344  23126076.1484                   23126076.4144
 -16834954.06248 -13098768.94546  21024014.7344                   21024013.9454
  -7262950.16047  -5641396.86344  23468015.8834                   23468016.7584
 -20244479.00448 -15755301.31646  20733372.1954                   20733368.1414
 11  7 28  1 30 30.0000000  0  8G12G10G17G05G09G04G27G02
 -14527956.26247 -11311624.48846  22055556.2114                   22055554.3794
 -18136153.82848 -14115160.91846  21153173.8054                   21153171.7154
  -5897406.60547  -4577370.71145  22809896.8984                   22809894.9384
 -10501650.14147  -8174107.00445  23071404.0084                   23071404.4184
  -4560905.03147  -3533521.75444  23143076.7894                   23143076.7034
 -16749201.15648 -13031948.49646  21040332.7894                   21040331.6414
  -7184242.34847  -5580066.12144  23482993.7734                   23482994.6684
 -20241715.49648 -15753147.90646  20733898.5704                   20733894.4734
 11  7 28  1 31  0.0000000  0  8G12G10G17G05G09G04G27G02
 -14583169.82847 -11354648.01646  22045049.9144                   22045047.8754
 -18150810.41848 -14126581.60246  21150384.2424                   21150382.5824
  -5828352.70347  -4523562.48445  22823037.3134                   22823035.7234
 -10584066.28947  -8238327.24245  23055720.9534                   23055720.6724
  -4471234.62547  -3463648.74244  23160139.8914                   23160140.5594
 -16663175.78948 -12964915.72746  21056702.9454                   21056701.8524
  -7105328.19546  -5518574.59844  23498010.1804                   23498011.7034
 -20238597.71548 -15750718.45346  20734491.5234                   20734487.5594
 11  7 28  1 31 30.0000000  0  8G12G10G17G05G09G04G27G02
 -14638049.96948 -11397411.72745  22034606.5164                   22034604.1724
 -18164884.00048 -14137547.98446  21147706.3134                   21147704.4494
  -5759160.49647  -4469646.49245  22836203.9844                   22836202.7504
 -10666326.14147  -8302425.71145  23040067.1954                   23040067.0824
  -4381240.07847  -3393523.14544  23177265.6174                   23177266.2424
 -16576885.19548 -12897676.29746  21073123.2734                   21073121.9924
  -7026215.56646  -5456928.42644  23513065.2274                   23513065.7544
 -20235131.40248 -15748017.41846  20735151.2504                   20735147.4454
 11  7 28  1 32  0.0000000  0  8G12G10G17G05G09G04G27G02
 -14692590.00847 -11439910.41846  22024227.5234                   22024225.6294
 -18178369.10548 -14148055.82446  21145140.0394                   21145138.7034
  -5689825.40247  -4415619.15645  22849398.3204                   22849397.1954
 -10748422.79747  -8366397.00845  23024444.8134                   23024444.8094
  -4290920.75847  -3323144.47344  23194452.7584                   23194452.6844
 -16490327.39848 -12830228.65646  21089595.0314                   21089593.6604
  -6946902.84046  -5395126.33644  23528157.9454                   23528158.9384
 -20231313.02748 -15745042.05146  20735877.8834                   20735873.6414
 11  7 28  1 32 30.0000000  0  8G12G10G17G05G09G04G27G02
 -14746782.16047 -11482138.01246  22013915.2504                   22013913.7624
 -18191258.53548 -14158099.51246  21142687.4384                   21142685.7624
  -5620341.52047  -4361475.87545  22862620.6254                   22862619.0084
 -10830347.76247  -8430234.52345  23008855.3134                   23008854.9304
  -4200274.84447  -3252511.32444  23211701.6724                   23211701.8284
 -16403499.59047 -12762570.61346  21106117.5704                   21106116.1914
  -6867387.60247  -5333166.46944  23543289.3834                   23543290.2344
 -20227138.03148 -15741788.79746  20736672.4924                   20736668.3914
 11  7 28  1 33  0.0000000  0  8G12G10G17G05G09G04G27G02
 -14800626.14847 -11524094.34446  22003669.2114                   22003666.5904
 -18203552.96548 -14167679.54746  21140347.6174                   21140346.3914
  -5550710.90247  -4307218.23045  22875870.9454                   22875869.3834
 -10912100.19947  -8493937.60245  22993297.5944                   22993297.7624
  -4109307.96547  -3181628.03544  23229012.0314                   23229012.4414
 -16316406.23448 -12694705.65646  21122690.8364                   21122689.3954
  -6787674.71146  -5271052.55544  23558458.4144                   23558458.7704
 -20222609.35548 -15738259.94147  20737534.1094                   20737529.7704
 11  7 28  1 33 30.0000000  0  8G12G10G17G05G09G04G27G02
 -14854121.80947 -11565779.23446  21993489.3444                   21993486.7664
 -18215252.93448 -14176796.36746  21138121.2814                   21138120.0944
  -5480935.00047  -4252847.39845  22889148.6884                   22889147.4264
 -10993679.46547  -8557505.74645  22977773.5944                   22977773.6524
  -4018025.66847  -3110498.99644  23246382.9304                   23246382.9574
 -16229051.93748 -12626637.36346  21139313.8754                   21139312.2304
  -6707769.09846  -5208788.48044  23573664.1334                   23573664.2894
 -20217730.49648 -15734458.21946  20738462.4384                   20738458.4454
 11  7 28  1 34  0.0000000  0  8G12G10G17G05G09G04G27G02
 -14907270.12947 -11607193.46946  21983375.3284                   21983373.2774
 -18226360.39548 -14185451.48446  21136007.5944                   21136005.9144
  -5411016.79747  -4198365.68745  22902453.3594                   22902452.2114
 -11075086.19947  -8620939.45345  22962282.7194                   22962282.5314
  -3926434.72347  -3039129.39844  23263812.5394                   23263812.3634
 -16141442.57448 -12558370.31646  21155985.6094                   21155983.7464
  -6627677.07846  -5146379.15244  23588905.0944                   23588904.4024
 -20212505.53548 -15730386.80546  20739456.5554                   20739452.2734
 11  7 28  1 34 30.0000000  0  8G12G10G17G05G09G04G27G02
 -14960066.98047 -11648333.84046  21973328.5394                   21973326.6374
 -18236871.79748 -14193642.15246  21134006.9844                   21134005.6954
  -5340954.47347  -4143771.66445  22915786.5554                   22915784.9224
 -11156315.93747  -8684235.22345  22946824.4924                   22946824.8404
  -3834537.16447  -2967520.91844  23281299.7584                   23281298.5354
 -16053579.01648 -12489905.20746  21172705.2974                   21172703.9454
  -6547400.02346  -5083825.65644  23604181.0704                   23604181.2894
 -20206933.83648 -15726045.20346  20740516.9144                   20740512.7304
 11  7 28  1 35  0.0000000  0  8G12G10G17G05G09G04G27G02
 -15012507.57047 -11689196.59446  21963349.1334                   21963347.3524
 -18246783.08248 -14201365.18746  21132121.0704                   21132119.7894
  -5270745.16047  -4089063.10545  22929147.0164                   22929144.5594
 -11237363.11747  -8747388.76645  22931401.7274                   22931401.9924
  -3742334.06647  -2895674.33644  23298845.8674                   23298845.7234
 -15965460.87948 -12421241.73446  21189473.8134                   21189472.1684
  -6466938.35246  -5021128.28944  23619492.0554                   23619493.2934
 -20201013.64548 -15721432.04346  20741643.5704                   20741639.2974
 11  7 28  1 35 30.0000000  0  8G12G10G17G05G09G04G27G02
 -15064587.60247 -11729778.39546  21953438.5394                   21953436.3094
 -18256091.16848 -14208618.21946  21130349.9694                   21130348.8834
  -5200385.99247  -4034237.77045  22942536.1414                   22942533.0704
 -11318223.00047  -8810396.35245  22916014.4064                   22916014.4454
  -3649826.92247  -2823590.87144  23316449.2664                   23316448.5004
 -15877088.84448 -12352380.40246  21206290.3284                   21206289.1254
  -6386292.87546  -4958287.68444  23634838.7504                   23634839.5594
 -20194743.94948 -15716546.54346  20742836.1954                   20742832.3524
 11  7 28  1 36  0.0000000  0  8G12G10G17G05G09G04G27G02
 -15116306.43747 -11770078.76246  21943597.1024                   21943594.3754
 -18264796.59048 -14215401.62946  21128693.6414                   21128691.7934
  -5129879.07447  -3979297.30945  22955953.5474                   22955950.8054
 -11398894.67647  -8873257.27745  22900663.2664                   22900663.2114
  -3557021.00847  -2751274.58644  23334109.0944                   23334109.8834
 -15788467.12548 -12283324.52046  21223154.3284                   21223152.8554
  -6305468.26246  -4895307.53144  23650219.2734                   23650219.8754
 -20188127.57848 -15711390.90646  20744095.4694                   20744091.0984
 11  7 28  1 36 30.0000000  0  8G12G10G17G05G09G04G27G02
 -15167660.72747 -11810095.05946  21933824.2974                   21933822.1954
 -18272896.88748 -14221713.50846  21127151.6804                   21127150.3914
  -5059222.65647  -3924240.36745  22969398.5394                   22969396.0554
 -11479374.41447  -8935968.65645  22885348.3984                   22885347.9964
  -3463918.96946  -2678727.53944  23351824.8364                   23351826.0514
 -15699597.34048 -12214075.34846  21240066.0394                   21240064.2344
  -6224466.60946  -4832189.38743  23665632.9064                   23665634.0784
 -20181164.59048 -15705965.18046  20745420.4924                   20745416.6094
 11  7 28  1 37  0.0000000  0  8G12G10G17G05G09G04G27G02
 -15218646.49647 -11849824.20346  21924122.3284                   21924119.8484
 -18280389.08648 -14227551.55546  21125726.4224                   21125725.0704
  -4988414.86747  -3869065.48045  22982872.8204                   22982871.1214
 -11559657.73847  -8998526.97745  22870071.2274                   22870070.7464
  -3370522.84447  -2605951.37544  23369599.3754                   23369598.2384
 -15610479.81248 -12144633.12546  21257024.4144                   21257023.1134
  -6143289.12546  -4768934.22344  23681080.9454                   23681081.6214
 -20173854.33648 -15700268.85546  20746811.6094                   20746807.4344
 11  7 28  1 37 30.0000000  0  8G12G10G17G05G09G04G27G02
 -15269264.48047 -11889266.75846  21914489.6644                   21914487.8244
 -18287274.87948 -14232917.06646  21124415.8364                   21124414.5274
  -4917458.39147  -3813774.71145  22996374.8754                   22996373.4804
 -11639744.78147  -9060932.37945  22854830.5864                   22854830.2704
  -3276839.27747  -2532951.18444  23387425.6954                   23387425.2074
 -15521120.42248 -12075002.44146  21274028.6414                   21274027.6134
  -6061941.83246  -4705546.73444  23696561.0944                   23696561.8284
 -20166201.00848 -15694305.21146  20748268.0784                   20748263.8164
 11  7 28  1 38  0.0000000  0  8G12G10G17G05G09G04G27G02
 -15319510.87547 -11928419.76246  21904928.2664                   21904926.7704
 -18293551.61348 -14237807.99646  21123221.1254                   21123220.0944
  -4846351.46947  -3758366.71545  23009905.6094                   23009903.7464
 -11719631.50047  -9123181.66445  22839628.9064                   22839628.2274
  -3182870.56247  -2459728.82044  23405308.0554                   23405307.2664
 -15431520.07048 -12005183.99246  21291079.2424                   21291077.7664
  -5980425.97346  -4642027.92644  23712073.0634                   23712073.4924
 -20158203.93748 -15688073.70346  20749789.5784                   20749785.2854
 11  7 28  1 38 30.0000000  0  8G12G10G17G05G09G04G27G02
 -15369385.67647 -11967283.22346  21895437.2274                   21895435.4734
 -18299220.30148 -14242225.11746  21122142.6884                   21122141.3984
  -4775095.92647  -3702842.88745  23023465.7424                   23023463.9494
 -11799317.09447  -9185274.24245  22824465.1564                   22824464.6524
  -3088622.30547  -2386288.64144  23423243.2194                   23423241.4964
 -15341683.43748 -11935181.43446  21308174.2974                   21308173.5274
  -5898746.98446  -4578381.96144  23727615.2504                   23727616.6564
 -20149866.66848 -15681577.11346  20751376.3054                   20751372.2074
 11  7 28  1 39  0.0000000  0  8G12G10G17G05G09G04G27G02
 -16994308.80947 -13233457.07046  21586224.4224                   21586222.4494
 -19879700.70748 -15473768.26246  20821387.1174                   20821385.4224
  -6279109.77047  -4874801.73845  22737260.9844                   22737259.4844
 -13454222.36747 -10474810.72345  22509547.1724                   22509546.1254
  -4569515.54746  -3540231.43844  23141438.3054                   23141438.0354
 -16827030.60948 -13092594.82846  21025522.3754                   21025521.0784
  -7392325.80946  -5742209.62944  23443396.8134                   23443397.0784
 -21716610.40648 -16902416.37946  20453234.8134                   20453230.6054
 11  7 28  1 39 30.0000000  0  8G12G10G17G05G09G04G27G02
 -17043431.68747 -13271734.59846  21576876.9144                   21576874.9264
 -19884148.32848 -15477233.90646  20820540.5704                   20820539.0234
  -6207554.77347  -4819044.58645  22750877.2114                   22750876.7074
 -13533496.28947 -10536582.50845  22494461.8674                   22494461.1334
  -4474717.36746  -3466362.75444  23159477.3524                   23159476.0124
 -16736727.10948 -13022228.47746  21042706.9774                   21042704.9414
  -7310327.94546  -5678315.21144  23459000.5394                   23459001.3244
 -21707594.10248 -16895390.66046  20454950.4064                   20454946.4534
 11  7 28  1 40  0.0000000  0  9G12G25G10G17G05G09G04G27G02
 -17092178.31247 -13309718.96146  21567600.6484                   21567598.8014
  -4847909.29357  -3768743.25053  24497815.5004                   24497815.7774
 -19887986.80948 -15480224.90246  20819810.3054                   20819808.5984
  -6135852.71947  -4763172.83245  22764521.9614                   22764520.8054
 -13612563.23047 -10598193.02045  22479415.3524                   22479414.4884
  -4379653.03946  -3392286.69544  23177567.5314                   23177567.6454
 -16646197.07048 -12951685.59846  21059933.8914                   21059933.1254
  -7228178.12946  -5614302.38344  23474633.2504                   23474634.2274
 -21698243.04348 -16888104.09846  20456729.7734                   20456725.7274
 11  7 28  1 40 30.0000000  0  9G12G25G10G17G05G09G04G27G02
 -17140549.50448 -13347410.75446  21558395.7424                   21558393.7234
  -4930893.08647  -3833405.90643  24482023.9774                   24482025.6054
 -19891217.71948 -15482742.46146  20819195.3444                   20819193.6054
  -6064005.72346  -4707188.18745  22778193.5234                   22778193.2074
 -13691423.19947 -10659642.25445  22464409.0784                   22464408.4414
  -4284329.07447  -3318008.31644  23195707.0234                   23195706.8094
 -16555445.59048 -12880970.16846  21077203.3834                   21077201.9574
  -7145882.11746  -5550175.64144  23490293.5944                   23490294.4414
 -21688561.08648 -16880559.69147  20458572.5394                   20458567.8634
 11  7 28  1 41  0.0000000  0  9G12G25G10G17G05G09G04G27G02
 -17188542.61347 -13384807.94546  21549263.3914                   21549260.8754
  -5013764.45347  -3897980.91043  24466253.8834                   24466255.6724
 -19893839.66448 -15484785.50046  20818696.3284                   20818694.8634
  -5992013.81347  -4651090.57845  22791893.2034                   22791892.4414
 -13770073.49247 -10720928.09445  22449442.2114                   22449441.4344
  -4188748.82846  -3243530.25044  23213895.5164                   23213895.3364
 -16464475.21148 -12810084.15246  21094514.5234                   21094513.3134
  -7063442.94547  -5485937.34044  23505982.0704                   23505982.7154
 -21678549.66048 -16872758.53947  20460477.3834                   20460473.6484
 11  7 28  1 41 30.0000000  0  9G12G25G10G17G05G09G04G27G02
 -17236154.69947 -13421908.21946  21540202.2814                   21540200.2504
  -5096520.37146  -3962465.90243  24450505.2344                   24450507.8164
 -19895851.39148 -15486353.04346  20818313.6254                   20818311.2424
  -5919875.88747  -4594879.21145  22805621.1094                   22805620.0744
 -13848510.84047 -10782048.01645  22434516.0004                   22434515.1414
  -4092915.07447  -3168854.64544  23232132.7114                   23232131.7234
 -16373287.39548 -12739028.73446  21111867.0314                   21111865.5944
  -6980862.80547  -5421589.20344  23521696.3754                   23521696.4184
 -21668208.56248 -16864700.50846  20462445.1564                   20462441.1484
 11  7 28  1 42  0.0000000  0  9G12G25G10G17G05G09G04G27G02
 -17283381.21947 -13458708.04346  21531216.0164                   21531213.4774
  -5179156.18846  -4026857.32843  24434780.2344                   24434782.7424
 -19897249.23448 -15487442.23446  20818047.7424                   20818045.8404
  -5847589.22347  -4538551.93745  22819377.1804                   22819375.5904
 -13926729.96947 -10842997.89545  22419631.7114                   22419630.5744
  -3996829.21147  -3093982.56344  23250416.4064                   23250417.8134
 -16281882.33248 -12667804.01646  21129260.7734                   21129259.6644
  -6898142.07447  -5357131.53944  23537437.3914                   23537438.3524
 -21657536.69148 -16856384.72346  20464476.2034                   20464471.7544
 11  7 28  1 42 30.0000000  0  9G12G25G10G17G05G09G04G27G02
 -17330225.09047 -13495209.71146  21522301.9844                   21522299.8444
  -5261674.91846  -4091157.52043  24419077.5394                   24419079.4804
 -19898037.57448 -15488056.48846  20817897.5234                   20817895.1684
  -5775158.56647  -4482112.46145  22833160.3284                   22833158.8404
 -14004732.96947 -10903779.35245  22404787.5944                   22404787.4614
  -3900500.22747  -3018921.04744  23268748.2194                   23268746.9534
 -16190267.56248 -12596415.89146  21146694.0394                   21146692.8874
  -6815289.28147  -5292570.94144  23553204.4384                   23553204.2544
 -21646540.52348 -16847816.22747  20466568.3134                   20466564.2034
 11  7 28  1 43  0.0000000  0  9G12G25G10G17G05G09G04G27G02
 -17376678.38347 -13531407.00846  21513461.7974                   21513459.8134
  -5344068.55546  -4155360.23843  24403398.7894                   24403400.5514
 -19898209.73048 -15488190.59846  20817864.6804                   20817863.1684
  -5702578.22747  -4425556.35245  22846972.1724                   22846971.1994
 -14082511.60547 -10964385.99245  22389986.7894                   22389986.1454
  -3803925.86347  -2943668.32844  23287125.8054                   23287126.0904
 -16098439.96948 -12524861.91446  21164168.4304                   21164167.0234
  -6732301.69146  -5227905.34043  23568995.2114                   23568996.2854
 -21635215.46948 -16838991.46946  20468723.6094                   20468719.3444
 11  7 28  1 43 30.0000000  0  9G12G25G10G17G05G09G04G27G02
 -17422740.87548 -13567299.78946  21504696.3914                   21504694.3164
  -5426336.60546  -4219465.15243  24387743.8834                   24387745.4224
 -19897766.39547 -15487845.10946  20817948.7814                   20817946.9774
  -5629849.51647  -4368884.63745  22860811.2814                   22860809.8094
 -14160064.90647 -11024817.05145  22375228.7504                   22375228.1134
  -3707111.35947  -2868228.48444  23305547.9224                   23305548.0474
 -16006403.56247 -12453145.24646  21181682.5944                   21181681.6994
  -6649183.98046  -5163138.34444  23584812.9144                   23584813.5274
 -21623564.22348 -16829912.54347  20470940.6644                   20470936.5044
 11  7 28  1 44  0.0000000  0  9G12G25G10G17G05G09G04G27G02
 -17468405.98848 -13602882.93446  21496006.5704                   21496004.6994
  -5508473.10247  -4283467.53944  24372113.8674                   24372115.0164
 -19896702.88748 -15487016.37146  20818151.3054                   20818149.8914
  -5556968.45747  -4312094.19144  22874679.8984                   22874678.8714
 -14237386.29747 -11085067.41445  22360515.2424                   22360513.5044
  -3610056.95747  -2792601.70344  23324017.5314                   23324017.5044
 -15914156.98847 -12381264.80146  21199236.2344                   21199235.2074
  -6565935.43446  -5098269.41044  23600653.8204                   23600654.4884
 -21611584.48848 -16820577.66046  20473220.2194                   20473216.3094
 11  7 28  1 44 30.0000000  0  9G12G25G10G17G05G09G04G27G02
 -17513671.30548 -13638154.54746  21487393.1254                   21487390.5824
  -5590475.19146  -4347365.20343  24356509.2504                   24356510.4694
 -19895017.72748 -15485703.23046  20818471.7424                   20818470.5084
  -5483934.19946  -4255184.35244  22888577.1724                   22888575.9184
 -14314472.52347 -11145134.51645  22345846.1334                   22345845.3134
  -3512765.53147  -2716790.25844  23342531.9064                   23342531.4384
 -15821702.22748 -12309222.14546  21216830.3754                   21216828.6804
  -6482558.59046  -5033300.52044  23616520.3594                   23616521.0594
 -21599276.77348 -16810987.20746  20475562.4064                   20475558.5434
 11  7 28  1 45  0.0000000  0  9G12G25G10G17G05G09G04G27G02
 -17558531.34048 -13673110.35946  21478856.5394                   21478854.1564
  -5672337.69946  -4411154.10543  24340930.4304                   24340931.8984
 -19892707.15648 -15483902.75846  20818911.4534                   20818909.8204
  -5410743.38747  -4198152.55144  22902505.7734                   22902504.0434
 -14391317.93747 -11205013.97345  22331222.8674                   22331221.6024
  -3415238.00047  -2640794.80144  23361089.8754                   23361090.1564
 -15729038.74648 -12237016.84046  21234463.6884                   21234461.9654
  -6399053.46146  -4968231.60944  23632411.5864                   23632411.1684
 -21586639.31248 -16801139.82047  20477966.9534                   20477963.1094
 11  7 28  1 45 30.0000000  0  9G12G25G10G17G05G09G04G27G02
 -17602989.33648 -13707752.90646  21470396.1884                   21470394.4414
  -5754063.28546  -4474836.32443  24325378.6724                   24325379.6994
 -19889775.37948 -15481618.23046  20819469.5004                   20819467.5124
  -5337400.62947  -4141002.35244  22916462.5784                   22916460.4024
 -14467924.76247 -11264707.51645  22316644.9064                   22316643.9414
  -3317482.94947  -2564622.04744  23379692.7504                   23379693.1524
 -15636173.86348 -12164654.60546  21252135.5704                   21252134.0084
  -6315427.90247  -4903068.91844  23648324.4384                   23648325.6294
 -21573678.25448 -16791040.27746  20480433.6644                   20480429.3984
 11  7 28  1 46  0.0000000  0  9G12G25G10G17G05G09G04G27G02
 -17647040.03548 -13742078.07046  21462013.6804                   21462011.2034
  -5835646.72746  -4538407.78143  24309854.0704                   24309855.4264
 -19886218.95748 -15478846.95746  20820146.3134                   20820144.6764
  -5263902.87947  -4083731.36744  22930448.3834                   22930445.4694
 -14544287.31647 -11324210.73445  22302113.7034                   22302112.4494
  -3219501.17246  -2488272.62144  23398337.2664                   23398338.2154
 -15543106.93448 -12092134.92646  21269845.2974                   21269844.1804
  -6231681.93847  -4837812.34844  23664261.1024                   23664260.3054
 -21560391.71148 -16780687.10246  20482962.0084                   20482957.7274
 11  7 28  1 46 30.0000000  0  9G12G25G10G17G05G09G04G27G02
 -17690682.16048 -13776084.87946  21453709.0704                   21453706.4494
  -5917086.51646  -4601867.29743  24294357.0084                   24294358.3164
 -19882037.82848 -15475588.90246  20820941.8444                   20820939.8594
  -5190250.74247  -4026340.08644  22944464.3204                   22944461.7234
 -14620403.88347 -11383522.26645  22287628.8364                   22287627.3674
  -3121297.04746  -2411749.95744  23417025.0784                   23417025.8874
 -15449841.17648 -12019460.32046  21287593.2274                   21287591.6374
  -6147819.49646  -4772465.06644  23680219.5164                   23680220.4064
 -21546781.76648 -16770081.92647  20485551.7974                   20485547.7344
 11  7 28  1 47  0.0000000  0  9G12G25G10G17G05G09G04G27G02
 -17733913.81648 -13809771.85246  21445482.2424                   21445479.8954
  -5998380.77046  -4665213.45743  24278887.1334                   24278888.8754
 -19877231.39148 -15471843.59846  20821856.6484                   20821854.8874
  -5116444.12147  -3968828.40644  22958509.4774                   22958505.5824
 -14696271.93447 -11442640.15245  22273192.0394                   22273190.6914
  -3022874.58647  -2335057.16844  23435754.7974                   23435755.5354
 -15356379.33648 -11946632.91046  21305378.3754                   21305377.0234
  -6063843.86746  -4707029.58644  23696199.3914                   23696200.0164
 -21532850.03948 -16759226.00847  20488202.7274                   20488198.7934
 11  7 28  1 47 30.0000000  0  9G12G25G10G17G05G09G04G27G02
 -17776727.64848 -13843133.24646  21437334.7424                   21437332.5004
  -6079521.79347  -4728440.12543  24263445.8204                   24263447.6604
 -19871793.93048 -15467606.58246  20822891.2344                   20822888.9694
  -5042477.81647  -3911192.32045  22972584.8754                   22972581.6764
 -14771883.41047 -11501558.10245  22258803.2814                   22258802.5044
  -2924232.14147  -2258192.92644  23454526.3204                   23454525.6174
 -15262718.62948 -11873650.54746  21323201.2194                   21323199.8634
  -5979752.86746  -4641504.17644  23712201.4144                   23712203.0784
 -21518592.60948 -16748116.29347  20490915.7504                   20490912.1994
 11  7 28  1 48  0.0000000  0  9G12G25G10G17G05G09G04G27G02
 -17819129.47348 -13876173.60946  21429266.2424                   21429263.7894
  -6160515.76646  -4791552.21543  24248033.1254                   24248034.5634
 -19865733.02748 -15462883.76246  20824044.8754                   20824042.6844
  -4968359.66447  -3853437.89144  22986688.8054                   22986686.1214
 -14847244.25047 -11560280.74645  22244462.6024                   22244461.3484
  -2825382.05147  -2181166.88344  23473336.1024                   23473336.2664
 -15168869.51648 -11800521.35946  21341059.6724                   21341058.3954
  -5895557.75846  -4575897.69944  23728223.8984                   23728224.4774
 -21504018.87548 -16736760.10547  20493689.2114                   20493685.2424
 11  7 28  1 48 30.0000000  0  9G12G25G10G17G05G09G04G27G02
 -17861114.21148 -13908888.97346  21421276.4454                   21421274.1054
  -6241356.86747  -4854545.24243  24232649.8674                   24232650.5704
 -19859044.45748 -15457671.86346  20825317.2974                   20825315.7504
  -4894086.07447  -3795562.34845  23000822.7194                   23000820.5044
 -14922347.85247 -11618802.95745  22230170.8594                   22230169.5164
  -2726324.44147  -2103979.18444  23492186.4384                   23492186.8444
 -15074831.27048 -11727244.79345  21358954.9384                   21358953.4064
  -5811258.20346  -4510209.79343  23744265.2894                   23744266.2584
 -21489126.36748 -16725155.52747  20496522.8914                   20496518.6564
 11  7 28  1 49  0.0000000  0  9G12G25G10G17G05G09G04G27G02
 -17902678.15248 -13941276.44146  21413367.1024                   21413364.9454
  -6322041.52746  -4917416.37943  24217296.0944                   24217296.1884
 -19851726.53948 -15451969.55546  20826710.0474                   20826707.8054
  -4819655.13747  -3737564.20744  23014986.3054                   23014984.4454
 -14997190.53147 -11677121.84845  22215928.7344                   22215927.5124
  -2627061.53146  -2026631.42244  23511075.6334                   23511075.7934
 -14980604.60248 -11653821.41846  21376885.8284                   21376883.9924
  -5726855.80146  -4444441.74644  23760326.1094                   23760327.3324
 -21473915.24248 -16713302.67247  20499417.3134                   20499413.6254
 11  7 28  1 49 30.0000000  0  9G12G25G10G17G05G09G04G27G02
 -17943816.54748 -13973332.32446  21405538.9224                   21405536.6174
  -6402564.50046  -4980161.53143  24201972.4224                   24201973.5274
 -19843775.58247 -15445773.98046  20828223.0554                   20828220.9844
  -4745063.87947  -3679441.13344  23029180.2194                   23029178.8634
 -15071766.53147 -11735232.94545  22201737.3284                   22201736.5084
  -2527594.09046  -1949124.35544  23530003.6414                   23530002.9064
 -14886189.27048 -11580251.02046  21394852.2034                   21394850.8204
  -5642350.82846  -4378593.80143  23776406.8914                   23776407.9024
 -21458383.89148 -16701200.30147  20502372.9774                   20502369.0434
 11  7 28  1 50  0.0000000  0  9G12G25G10G17G05G09G04G27G02
 -17984532.68448 -14005059.16446  21397790.7034                   21397788.2304
  -6482929.15246  -5042783.31643  24186680.3914                   24186680.9384
 -19835196.72748 -15439089.12546  20829855.3364                   20829853.3674
  -4670317.94947  -3621197.58645  23043403.5944                   23043402.6094
 -15146078.92247 -11793138.62145  22187596.2504                   22187594.9304
  -2427931.38746  -1871465.10544  23548968.4534                   23548969.5634
 -14791593.03948 -11506539.66446  21412853.0944                   21412852.0704
  -5557751.72746  -4312672.47743  23792505.9844                   23792506.1764
 -21442539.15248 -16688853.73047  20505388.4144                   20505384.0164
 11  7 28  1 50 30.0000000  0  9G12G25G10G17G05G09G04G27G02
 -18024820.90648 -14036452.57846  21390124.1954                   21390121.8594
  -6563129.67246  -5105277.20744  24171418.1094                   24171418.4884
 -19825986.29348 -15431912.13746  20831608.2814                   20831606.3364
  -4595413.68447  -3562830.58645  23057657.6954                   23057656.0434
 -15220121.34847 -11850833.93045  22173506.4614                   22173504.9454
  -2328073.59446  -1793653.87544  23567970.4694                   23567970.7424
 -14696814.79348 -11432686.48846  21430888.9064                   21430887.6604
  -5473058.33646  -4246677.66043  23808622.7584                   23808622.9924
 -21426379.16848 -16676261.51247  20508463.6644                   20508459.6764
 11  7 28  1 51  0.0000000  0  9G12G25G10G17G05G09G04G27G02
 -18064677.46548 -14067509.61746  21382539.6564                   21382537.3404
  -6643162.27746  -5167640.27043  24156188.9144                   24156189.2034
 -19816142.13748 -15424241.33646  20833481.4144                   20833479.3204
  -4520348.96947  -3504338.59845  23071941.9304                   23071940.6054
 -15293889.84847 -11908315.79345  22159468.2034                   22159466.9414
  -2228023.00846  -1715692.38744  23587009.9224                   23587009.9344
 -14601855.63348 -11358692.32046  21448959.1334                   21448957.7304
  -5388272.04747  -4180610.43843  23824758.0634                   23824757.1604
 -21409903.10548 -16663423.00447  20511598.6884                   20511594.7584
 11  7 28  1 51 30.0000000  0  9G12G25G10G17G05G09G04G27G02
 -18104098.66448 -14098227.41846  21375038.4844                   21375035.5474
  -6723022.73447  -5229869.18744  24140992.3364                   24140993.1254
 -19805661.99648 -15416074.95746  20835475.2974                   20835473.5864
  -4445121.73847  -3445719.97344  23086257.1254                   23086255.6374
 -15367379.80147 -11965580.60945  22145483.6484                   22145482.2584
  -2127781.37546  -1637582.04344  23606085.0784                   23606084.4884
 -14506715.84448 -11284557.41846  21467063.6724                   21467062.2734
  -5303393.93847  -4114471.67243  23840909.0944                   23840908.5044
 -21393110.43048 -16650337.78147  20514794.2114                   20514790.4924
 11  7 28  1 52  0.0000000  0  9G12G25G10G17G05G09G04G27G02
 -18143080.85248 -14128603.12146  21367620.2344                   21367617.8794
  -6802707.09447  -5291960.87944  24125828.7344                   24125829.0354
 -19794543.68048 -15407411.31646  20837591.0864                   20837589.3404
  -4369730.11747  -3386973.21944  23100603.9224                   23100602.5274
 -15440586.90247 -12022625.03146  22131552.9694                   22131551.4384
  -2027351.09446  -1559324.64544  23625196.0784                   23625195.2704
 -14411396.07048 -11210282.25445  21485202.3444                   21485201.0514
  -5218425.60547  -4048262.60543  23857077.3984                   23857078.0044
 -21376000.87548 -16637005.64147  20518049.9694                   20518046.0594
 11  7 28  1 52 30.0000000  0  9G12G25G10G17G05G09G04G27G02
 -18181625.10248 -14158637.57846  21360285.2894                   21360283.2304
  -6882216.22747  -5353916.05944  24110698.9454                   24110698.8484
 -19782790.51248 -15398252.96946  20839828.2114                   20839826.3204
  -4294177.56347  -3328101.14844  23114981.2034                   23114979.8714
 -15513512.01247 -12079449.69946  22117675.5634                   22117674.4184
  -1926738.61747  -1480925.37944  23644342.6024                   23644342.0164
 -14315902.00848 -11135871.30146  21503374.7734                   21503373.3714
  -5133373.04347  -3981987.89843  23873263.2344                   23873263.4344
 -21358579.38748 -16623430.43447  20521365.2274                   20521360.9734
 11  7 28  1 53  0.0000000  0  9G12G25G10G17G05G09G04G27G02
 -18219729.62148 -14188329.37946  21353034.3984                   21353031.8134
  -6961547.81646  -5415732.85544  24095602.3284                   24095602.9494
 -19770401.86348 -15388599.43046  20842185.7114                   20842183.4924
  -4218463.68446  -3269103.30944  23129388.5784                   23129387.1054
 -15586152.12947 -12136052.31246  22103852.6564                   22103851.2154
  -1825947.88346  -1402387.15244  23663522.2034                   23663521.8524
 -14220235.78548 -11061326.18046  21521579.2114                   21521578.2384
  -5048239.42247  -3915650.04343  23889463.0474                   23889463.1764
 -21340846.86748 -16609612.86347  20524739.6094                   20524735.2384
 11  7 28  1 53 30.0000000  0  9G12G25G10G17G05G09G04G27G02
 -18257390.73848 -14217675.66446  21345867.6884                   21345865.7774
  -7040697.81646  -5477408.11744  24080540.7974                   24080541.1294
 -19757375.54348 -15378449.01246  20844664.1334                   20844661.8794
  -4142586.48446  -3209978.16844  23143827.8054                   23143826.5084
 -15658502.99648 -12192429.53146  22090084.9844                   22090083.3014
  -1724980.89446  -1323711.58744  23682735.1954                   23682735.3794
 -14124398.17248 -10986647.50446  21539816.5864                   21539815.1764
  -4963026.16447  -3849250.14843  23905678.8984                   23905679.2814
 -21322802.94948 -16595552.64547  20528173.3674                   20528169.2344
 11  7 28  1 54  0.0000000  0  9G12G25G10G17G05G09G04G27G02
 -18294603.55148 -14246672.62546  21338786.2114                   21338783.9614
  -7119661.38346  -5538938.06243  24065513.5704                   24065514.9024
 -19743708.64847 -15367799.46146  20847264.6724                   20847262.9844
  -4066543.01647  -3150723.53144  23158298.8594                   23158296.9384
 -15730559.60947 -12248577.46946  22076372.8054                   22076371.1374
  -1623838.61747  -1244899.44544  23701983.0004                   23701983.3164
 -14028388.86348 -10911835.03145  21558086.2504                   21558085.2114
  -4877733.78146  -3782788.57843  23921909.5554                   23921910.0044
 -21304446.60548 -16581248.98047  20531666.7034                   20531662.1024
 11  7 28  1 54 30.0000000  0  9G12G25G10G17G05G09G04G27G02
 -18331369.23448 -14275321.17646  21331789.6334                   21331787.4774
  -7198439.25846  -5600323.24243  24050522.8134                   24050524.1374
 -19729404.28548 -15356653.16846  20849986.6484                   20849984.8404
  -3990336.41047  -3091341.76245  23172800.1024                   23172797.9924
 -15802321.94947 -12304496.09446  22062716.5704                   22062715.7074
  -1522527.78146  -1165956.00844  23721261.7664                   23721261.9574
 -13932213.22348 -10836892.98445  21576388.0004                   21576386.7544
  -4792368.28546  -3716270.04343  23938154.6414                   23938153.6334
 -21285781.94548 -16566705.06247  20535218.1334                   20535213.9774
 11  7 28  1 55  0.0000000  0  9G12G25G10G17G05G09G04G27G02
 -18367695.29348 -14303627.14846  21324876.9064                   21324874.8244
  -7277038.27746  -5661569.11344  24035565.7274                   24035567.1914
 -19714471.56248 -15345017.25046  20852828.5394                   20852826.3554
  -3913975.73047  -3031839.90245  23187331.2114                   23187329.9264
 -15873796.99247 -12360190.85946  22049115.7424                   22049113.9454
  -1421061.65647  -1086891.51644  23740569.7974                   23740570.2774
 -13835882.75448 -10761830.23445  21594718.7504                   21594717.3914
  -4706941.87946  -3649704.07843  23954409.2664                   23954410.0434
 -21266819.62548 -16551929.21947  20538826.9534                   20538822.4414
 11  7 28  1 55 30.0000000  0  9G12G25G10G17G05G09G04G27G02
 -18403567.37548 -14331579.39146  21318050.7664                   21318048.4844
  -7355444.00846  -5722664.34843  24020646.3204                   24020647.0634
 -19698897.85248 -15332881.86346  20855792.1174                   20855790.0944
  -3837448.48847  -2972208.34845  23201894.1804                   23201892.5594
 -15944969.89847 -12415650.18046  22035571.3594                   22035570.4494
  -1319431.42647  -1007699.19544  23759908.8754                   23759909.3134
 -13739387.61348 -10686639.24245  21613080.8594                   21613079.4574
  -4621445.36746  -3583083.55543  23970679.2344                   23970679.9574
 -21247548.69548 -16536912.89547  20542493.6884                   20542489.3954
 11  7 28  1 56  0.0000000  0  9G12G25G10G17G05G09G04G27G02
 -18438987.10948 -14359179.14546  21311310.6024                   21311308.3204
  -7433657.89546  -5783610.10943  24005762.2034                   24005763.4104
 -19682686.62948 -15320249.71946  20858876.8754                   20858875.2034
  -3760758.45347  -2912449.84445  23216487.1414                   23216486.1994
 -16015841.70747 -12470874.88746  22022085.0004                   22022083.4734
  -1217644.85247   -928385.02344  23779279.1414                   23779278.0704
 -13642733.96948 -10611324.69145  21631473.1094                   21631472.7774
  -4535885.64146  -3516413.70343  23986961.3674                   23986961.5204
 -21227974.39548 -16521660.17647  20546218.2664                   20546214.6994
 11  7 28  1 56 30.0000000  0  9G12G25G10G17G05G09G04G27G02
 -18473952.45748 -14386424.84846  21304656.7664                   21304654.5664
  -7511677.11747  -5844404.16844  23990914.6254                   23990916.2194
 -19665837.90248 -15307120.80946  20862082.8594                   20862081.0204
  -3683904.74647  -2852563.85544  23231111.9384                   23231110.4454
 -16086409.47747 -12525862.69546  22008656.2504                   22008655.1994
  -1115705.04347   -848951.42644  23798677.5634                   23798677.3484
 -13545923.59448 -10535888.02045  21649896.2274                   21649894.6094
  -4450265.40645  -3449696.72343  24003253.0864                   24003254.4344
 -21208097.79748 -16506171.90647  20550000.9384                   20549997.0514
 11  7 28  1 57  0.0000000  0  9G12G25G10G17G05G09G04G27G02
 -18508454.23848 -14413309.31646  21298091.7734                   21298089.2504
  -7589492.55947  -5905039.42644  23976106.8984                   23976108.6374
 -19648344.57847 -15293489.62546  20865411.7504                   20865409.7274
  -3606880.57447  -2792545.02344  23245769.3444                   23245767.9494
 -16156663.98047 -12580606.37946  21995287.5394                   21995286.0354
  -1013608.54347   -769395.75444  23818105.0634                   23818104.8554
 -13448951.82048 -10460325.60545  21668349.6024                   21668347.7504
  -4364580.95346  -3382929.70343  24019559.0784                   24019560.2814
 -21187913.27748 -16490443.68747  20553841.9924                   20553838.0944
 11  7 28  1 57 30.0000000  0  9G12G25G10G17G05G09G04G27G02
 -18542498.91448 -14439837.61746  21291612.8594                   21291610.8244
  -7667110.03147  -5965520.39144  23961337.0554                   23961338.6804
 -19630214.75448 -15279362.44546  20868861.9304                   20868859.7074
  -3529693.90247  -2732399.55145  23260457.7344                   23260456.3244
 -16226610.45747 -12635110.06646  21981977.0234                   21981975.3834
   -911367.31647   -689727.35244  23837561.8054                   23837560.9534
 -13351829.24248 -10384645.65645  21686831.2194                   21686829.6954
  -4278843.16446  -3316121.12943  24035874.3914                   24035875.3404
 -21167430.25848 -16474482.87147  20557739.6024                   20557735.7304
 11  7 28  1 58  0.0000000  0  9G12G25G10G17G05G09G04G27G02
 -18576088.80948 -14466011.53146  21285220.9694                   21285218.5594
  -7744531.07447  -6025848.37544  23946603.6564                   23946604.7384
 -19611452.05948 -15264742.14546  20872432.3984                   20872430.7194
  -3452348.28147  -2672130.25044  23275176.2114                   23275174.2154
 -16296250.18747 -12689374.71946  21968724.6804                   21968723.5784
   -808989.29347   -609952.29344  23857043.3524                   23857043.7114
 -13254561.90248 -10308852.91045  21705340.9844                   21705339.6644
  -4193059.07046  -3249276.50043  24052198.9694                   24052199.4844
 -21146653.84848 -16458293.44947  20561693.4534                   20561689.2544
 11  7 28  1 58 30.0000000  0  9G12G25G10G17G05G09G04G27G02
 -18609208.79748 -14491819.30146  21278918.2974                   21278915.8554
  -7821740.60947  -6086011.56644  23931911.4304                   23931912.9024
 -19592043.47748 -15249618.54346  20876125.4224                   20876123.2974
  -3374830.74646  -2611727.00844  23289926.4064                   23289925.3204
 -16365567.96147 -12743388.50046  21955534.2274                   21955532.5784
   -706464.76647   -530063.12144  23876553.4924                   23876553.6454
 -13157139.23048 -10232939.14545  21723879.4534                   21723878.1724
  -4107218.99646  -3182388.21143  24068533.3204                   24068534.7704
 -21125572.73448 -16441866.58647  20565705.1024                   20565700.5984
 11  7 28  1 59  0.0000000  0  9G12G25G10G17G05G09G04G27G02
 -18641865.73448 -14517266.24646  21272704.2194                   21272701.8594
  -7898744.84847  -6146014.78944  23917258.6174                   23917259.0824
 -19571998.09048 -15233998.73046  20879939.8054                   20879937.4844
  -3297150.18446  -2551196.69144  23304709.0634                   23304707.7544
 -16434569.95747 -12797156.21946  21942403.3524                   21942402.0704
   -603806.22347   -450069.53544  23896088.4844                   23896088.5784
 -13059572.24648 -10156912.92645  21742446.1334                   21742444.3324
  -4021334.57446  -3115465.37544  24084877.6024                   24084878.4574
 -21104196.97348 -16425210.12547  20569772.5784                   20569768.3164
 11  7 28  1 59 30.0000000  0  9G12G25G10G17G05G09G04G27G02
 -18674057.74648 -14542350.89146  21266578.2584                   21266575.6564
  -7975541.55947  -6205856.31244  23902643.8444                   23902644.7504
 -19551315.92248 -15217882.73446  20883876.0704                   20883873.6174
  -3219306.17247  -2490539.03944  23319522.5004                   23319520.8954
 -16503253.62547 -12850675.89146  21929333.0084                   21929331.9614
   -501017.63747   -369974.57444  23915648.4064                   23915648.1094
 -12961863.06648 -10080775.89545  21761039.1804                   21761037.7584
  -3935408.58246  -3048510.12543  24101228.9224                   24101229.4574
 -21082528.10248 -16408325.26647  20573895.9454                   20573891.5124
 11  7 28  2  0  0.0000000  0  9G12G25G10G17G05G09G04G27G02
 -18705777.95348 -14567067.92646  21260541.7344                   21260539.2624
  -8052123.57847  -6265530.59444  23888071.1094                   23888071.2974
 -19529992.47748 -15201267.04346  20887933.2664                   20887930.8524
  -3141293.81347  -2429750.21144  23334367.6024                   23334366.1024
 -16571611.64847 -12903941.81246  21916325.0394                   21916323.8984
   -398097.91847   -289777.43444  23935234.0704                   23935234.0084
 -12864009.34848 -10004526.25845  21779660.2664                   21779658.7934
  -3849439.43846  -2981521.25444  24117588.4384                   24117589.8164
 -21060562.60548 -16391209.26647  20578076.1094                   20578071.4964
 11  7 28  2  0 30.0000000  0  9G12G25G10G17G05G09G04G27G02
 -18737033.68448 -14591423.02346  21254594.0314                   21254591.3594
  -8128497.18847  -6325042.48444  23873537.0474                   23873538.2464
 -19508036.57048 -15184158.51646  20892111.3834                   20892109.5594
  -3063121.81647  -2368836.96944  23349242.8594                   23349241.3164
 -16639649.97347 -12956958.62146  21903377.9304                   21903376.5044
   -295059.14846   -209487.53944  23954840.3444                   23954841.5824
 -12766021.81248  -9928172.31245  21798307.0084                   21798305.3874
  -3763438.98847  -2914508.01244  24133953.4454                   24133954.3014
 -21038310.41448 -16373869.87147  20582310.3444                   20582305.8794
 11  7 28  2  1  0.0000000  0  9G12G25G10G17G05G09G04G27G02
 -18767813.39848 -14615407.20746  21248737.0164                   21248734.6564
  -8204650.29747  -6384382.53944  23859045.5314                   23859046.7974
 -19485438.34448 -15166549.48446  20896411.8674                   20896409.3954
  -2984779.79346  -2307791.24244  23364150.6954                   23364149.6644
 -16707356.34847 -13009716.77346  21890493.4774                   21890492.3634
   -191895.39547   -129100.25444  23974472.8364                   23974473.0784
 -12667892.82848  -9851708.17245  21816979.7584                   21816978.4224
  -3677400.38347  -2847465.00043  24150326.3674                   24150327.4304
 -21015763.41448 -16356300.75047  20586600.8054                   20586596.3134
 11  7 28  2  1 30.0000000  0  9G12G25G10G17G05G09G04G27G02
 -18798120.05148 -14639022.77346  21242969.8594                   21242966.7464
  -8280585.76647  -6443552.99644  23844595.9144                   23844597.6174
 -19462203.25048 -15148444.19546  20900833.1024                   20900831.1094
  -2906273.52746  -2246617.52744  23379090.2664                   23379088.9144
 -16774733.82447 -13062218.63746  21877672.0004                   21877670.9534
    -88615.19547    -48622.25044  23994126.4534                   23994126.6174
 -12569629.92248  -9775139.68445  21835679.1804                   21835677.3594
  -3591332.01247  -2780398.78543  24166704.7034                   24166704.9024
 -20992927.94148 -16338506.84847  20590946.0784                   20590942.1374
 11  7 28  2  2  0.0000000  0  9G12G25G10G17G05G09G04G27G02
 -18827950.27748 -14662267.09846  21237293.1334                   21237290.5084
  -8356299.16847  -6502550.46944  23830188.6094                   23830189.8054
 -19438329.58648 -15129841.31646  20905376.1724                   20905374.0554
  -2827600.46546  -2185313.84444  23394061.2274                   23394059.7584
 -16841777.43047 -13114460.34046  21864914.0474                   21864912.6604
     14779.36346     31944.89144  24013801.8444                   24013802.4224
 -12471233.52048  -9698467.17245  21854403.2664                   21854401.6684
  -3505234.75446  -2713310.06343  24183088.2034                   24183088.5634
 -20969803.77748 -16320487.98047  20595346.4224                   20595342.4924
 11  7 28  2  2 30.0000000  0  9G12G25G10G17G05G09G04G27G02
 -18857307.08248 -14685142.50846  21231707.0164                   21231704.7154
  -8431793.20747  -6561376.99244  23815822.4774                   23815823.0944
 -19413822.47747 -15110744.81646  20910039.8444                   20910037.3484
  -2748765.63146  -2123884.08244  23409063.2664                   23409061.3134
 -16908489.60247 -13166443.78946  21852218.8444                   21852217.2704
    118279.73047    112594.47744  24033498.0554                   24033497.5594
 -12372710.52748  -9621696.00045  21873151.3364                   21873149.5234
  -3419116.57446  -2646205.08243  24199476.0394                   24199476.9614
 -20946396.93448 -16302248.85547  20599800.9384                   20599796.3674
 11  7 28  2  3  0.0000000  0  9G12G25G10G17G05G09G04G27G02
 -18886184.05948 -14707644.02346  21226211.5634                   21226209.0044
  -8507060.86347  -6620027.09044  23801499.5394                   23801500.0434
 -19388677.85548 -15091151.60546  20914824.8444                   20914822.5864
  -2669764.18446  -2062324.51244  23424096.0004                   23424095.3634
 -16974863.56247 -13218163.67646  21839588.1174                   21839586.7234
    221886.72747    193327.14143  24053212.7814                   24053212.8794
 -12274058.68748  -9544824.46545  21891924.1884                   21891922.5744
  -3332975.99646  -2579082.52343  24215868.2584                   24215868.0904
 -20922704.52348 -16283787.21547  20604309.1024                   20604304.8954
 11  7 28  2  3 30.0000000  0  9G12G25G10G17G05G09G04G27G02
 -18914579.25048 -14729770.14146  21220808.6884                   21220805.9064
  -8582099.39547  -6678498.65644  23787220.3674                   23787220.9264
 -19362895.40648 -15071061.35246  20919730.7974                   20919728.5664
  -2590595.43847  -2000634.57845  23439162.6724                   23439160.7504
 -17040896.35947 -13269617.73846  21827023.1484                   21827021.6564
    325597.18747    274140.50043  24072949.0864                   24072948.9574
 -12175279.72348  -9467853.83245  21910721.1024                   21910719.3984
  -3246815.67246  -2511944.66442  24232263.6094                   24232264.2624
 -20898727.32048 -16265103.64547  20608871.7194                   20608867.4144
 11  7 28  2  4  0.0000000  0  9G12G25G10G17G05G09G04G27G02
 -18942492.66048 -14751520.82846  21215496.2034                   21215494.0514
  -8656908.68047  -6736791.56244  23772984.7034                   23772985.7664
 -19336477.96148 -15050476.28946  20924757.8914                   20924755.5044
  -2511262.19946  -1938816.45744  23454258.5314                   23454257.2934
 -17106587.72747 -13320805.75046  21814521.9614                   21814519.9384
    429405.37546    355029.94143  24092701.9774                   24092702.6414
 -12076378.20347  -9390787.71545  21929541.3984                   21929540.0514
  -3160640.83246  -2444795.51643  24248661.9844                   24248662.9414
 -20874469.16048 -16246201.15647  20613487.7894                   20613483.5824
 11  7 28  2  4 30.0000000  0  9G12G25G10G17G05G09G04G27G02
 -18969912.82848 -14772887.16446  21210278.7734                   21210276.3164
  -8731475.80947  -6794895.77344  23758794.4614                   23758795.8164
 -19309415.18448 -15029388.39846  20929907.7424                   20929905.5314
  -2431753.53146  -1876861.65644  23469388.5234                   23469387.1684
 -17171924.63748 -13371717.57446  21802088.6724                   21802087.6884
    533317.90646    436000.76243  24112476.4924                   24112477.3094
 -11977345.53148  -9313619.40645  21948386.6024                   21948385.6994
  -3074443.80946  -2377629.05942  24265065.9224                   24265065.2734
 -20849920.72748 -16227072.48047  20618159.2664                   20618155.0044
 11  7 28  2  5  0.0000000  0  9G12G25G10G17G05G09G04G27G02
 -18996847.77348 -14793875.41046  21205153.4224                   21205150.7664
  -8805808.72347  -6852817.46544  23744649.9144                   23744650.0944
 -19281717.93048 -15007806.09846  20935178.5864                   20935176.5314
  -2352079.37546  -1814777.88744  23484550.2734                   23484548.8674
 -17236915.08648 -13422359.42246  21789721.3524                   21789720.3324
    637321.11347    517042.17243  24132267.9774                   24132266.1524
 -11878194.13348  -9236358.58245  21967254.8914                   21967252.8554
  -2988237.86745  -2310455.61342  24281470.1724                   24281469.4924
 -20825093.62548 -16207726.66047  20622883.7974                   20622879.1604
 11  7 28  2  5 30.0000000  0  9G12G25G10G17G05G09G04G27G02
 -19023293.41448 -14814482.38346  21200120.8754                   21200118.0744
  -8879902.43747  -6910552.77744  23730550.0084                   23730550.6024
 -19253383.99648 -14985727.68046  20940570.3284                   20940568.0204
  -2272237.44946  -1752563.39544  23499743.0314                   23499741.6484
 -17301553.75848 -13472727.16046  21777421.4454                   21777419.1884
    741413.90647    598153.45343  24152075.4694                   24152074.1884
 -11778923.69947  -9159005.00045  21986145.4384                   21986143.8444
  -2902023.59445  -2243275.76642  24297875.1804                   24297874.6334
 -20799986.94148 -16188162.98447  20627661.5084                   20627656.8244
 11  7 28  2  6  0.0000000  0  9G12G25G10G17G05G09G04G27G02
 -19049247.96548 -14834706.68746  21195181.6094                   21195178.7234
  -8953754.64847  -6968099.85944  23716495.7664                   23716496.9264
 -19224413.55948 -14963153.27746  20946083.0234                   20946080.5744
  -2192227.49246  -1690217.98844  23514968.9384                   23514967.9414
 -17365838.45748 -13522819.06246  21765188.0394                   21765186.7734
    845592.59447    679331.66843  24171900.7274                   24171900.6334
 -11679536.30148  -9081560.27745  22005057.7664                   22005056.6134
  -2815803.83245  -2176091.64142  24314282.6724                   24314282.2194
 -20774602.27748 -16168382.70347  20632492.0634                   20632487.2424
 11  7 28  2  6 30.0000000  0  9G12G25G10G17G05G09G04G27G02
 -19074708.54748 -14854546.06246  21190336.3204                   21190333.9454
  -9027361.76647  -7025455.94944  23702489.0944                   23702489.3794
 -19194806.05948 -14940082.48446  20951716.8054                   20951714.6724
  -2112047.99246  -1627740.44144  23530226.4924                   23530225.1024
 -17429765.30947 -13572632.12946  21753022.8834                   21753021.6134
    949854.74247    760574.88343  24191740.7894                   24191740.7384
 -11580032.96148  -9004025.19545  22023992.6254                   22023991.7274
  -2729580.57445  -2108904.75843  24330691.0394                   24330691.8404
 -20748939.52348 -16148385.73047  20637375.5164                   20637370.8134
 11  7 28  2  7  0.0000000  0  9G12G25G10G17G05G09G04G27G02
 -19099671.20348 -14873997.45746  21185586.5394                   21185584.0274
  -9100718.90647  -7082617.26644  23688529.3594                   23688530.5634
 -19164559.91048 -14916514.01246  20957472.5314                   20957470.4064
  -2031696.59046  -1565128.96144  23545516.8204                   23545516.1294
 -17493329.56248 -13622162.67646  21740927.2814                   21740925.7814
   1054199.23046    841882.21943  24211596.5634                   24211598.1564
 -11480413.18748  -8926399.42245  22042949.8284                   22042948.6804
  -2643354.19046  -2041715.44743  24347099.0004                   24347099.9534
 -20722997.79748 -16128171.37947  20642311.7894                   20642307.4964
 11  7 28  2  7 30.0000000  0  9G12G25G10G17G05G09G04G27G02
 -19124135.93448 -14893060.86746  21180930.7814                   21180928.2074
  -9173825.48047  -7139583.31244  23674617.8204                   23674619.6024
 -19133677.14848 -14892449.49246  20963349.3984                   20963347.0234
  -1951174.91847  -1502384.80144  23560840.0314                   23560838.6724
 -17556530.55947 -13671410.14846  21728900.3594                   21728899.0744
   1158620.60246    923249.47743  24231467.2894                   24231468.3284
 -11380680.77048  -8848685.85245  22061928.4224                   22061927.1254
  -2557129.51246  -1974527.51243  24363507.4304                   24363507.8874
 -20696780.27748 -16107742.11747  20647301.2194                   20647296.3984
 11  7 28  2  8  0.0000000  0  9G12G25G10G17G05G09G04G27G02
 -19148100.49648 -14911734.51246  21176370.6334                   21176368.3524
  -9246678.57447  -7196351.84044  23660753.5784                   23660754.9344
 -19102157.81648 -14867888.94546  20969347.4384                   20969345.1764
  -1870482.43446  -1439507.56344  23576194.6884                   23576193.5514
 -17619365.29747 -13720372.22346  21716943.4774                   21716941.9774
   1263116.09046   1004674.49243  24251352.3364                   24251352.7974
 -11280837.53148  -8770885.92645  22080927.6884                   22080926.7114
  -2470909.03946  -1907342.81643  24379914.2974                   24379915.3524
 -20670287.77748 -16087098.59447  20652342.3914                   20652338.1134
 11  7 28  2  8 30.0000000  0  9G12G25G10G17G05G09G04G27G02
 -19171566.55148 -14930019.71946  21171905.2344                   21171902.2734
  -9319278.96147  -7252923.47744  23646938.5634                   23646939.4184
 -19070005.54348 -14842835.19146  20975465.8364                   20975463.5594
  -1789622.11747  -1376499.51244  23591582.2894                   23591580.6334
 -17681834.51247 -13769049.47746  21705055.8524                   21705054.3554
   1367679.02046   1086152.00043  24271249.7504                   24271251.4694
 -11180888.65247  -8693003.68045  22099947.4304                   22099946.1684
  -2384698.78146  -1840166.09043  24396320.2194                   24396320.2734
 -20643524.71948 -16066244.23847  20657435.1564                   20657431.2974
 11  7 28  2  9  0.0000000  0  9G12G25G10G17G05G09G04G27G02
 -19194530.78948 -14947913.89546  21167535.3134                   21167532.6294
  -9391622.54347  -7309295.02344  23633171.7504                   23633172.9884
 -19037219.40648 -14817287.52046  20981704.4774                   20981702.2584
  -1708591.92647  -1313359.10544  23607001.6174                   23606999.9414
 -17743933.98047 -13817438.61346  21693238.2664                   21693237.3014
   1472307.37546   1167680.52043  24291159.5784                   24291160.6994
 -11080834.19547  -8615039.18445  22118987.0634                   22118985.7504
  -2298500.02746  -1772998.30544  24412723.4454                   24412724.7774
 -20616490.89148 -16045178.88347  20662579.5634                   20662575.4494
 11  7 28  2  9 30.0000000  0  9G12G25G10G17G05G09G04G27G02
 -19216995.23448 -14965418.61346  21163260.4304                   21163257.8134
  -9463710.73047  -7365467.51244  23619453.5004                   23619456.1094
 -19003803.91048 -14791249.43446  20988063.5164                   20988061.3054
  -1627396.04747  -1250089.58645  23622452.9844                   23622451.5474
 -17805664.96547 -13865540.62146  21681491.7114                   21681489.9804
   1576993.66846   1249254.17243  24311080.8984                   24311081.2934
 -10980680.28947  -8536997.15245  22138045.9454                   22138044.4774
  -2212319.35946  -1705844.64544  24429122.7274                   24429123.5554
 -20589192.07048 -16023907.05147  20667773.9304                   20667769.9024
 11  7 28  2 10  0.0000000  0  9G12G25G10G17G05G09G04G27G02
 -19238946.08248 -14982523.12946  21159082.8834                   21159080.8164
  -9535528.62547  -7421429.44144  23605788.0234                   23605788.4694
 -18969747.09048 -14764711.62946  20994544.0944                   20994542.0824
  -1546022.16847  -1186681.38344  23637938.4614                   23637935.7464
 -17867013.26247 -13913344.43746  21669817.4384                   21669816.0944
   1681746.91046   1330880.02344  24331016.2974                   24331015.9964
 -10880416.35247  -8458869.39545  22157125.4384                   22157123.9184
  -2126147.31646  -1638697.70344  24445521.5314                   24445522.6844
 -20561616.62948 -16002419.68047  20673021.9844                   20673017.4344
 11  7 28  2 10 30.0000000  0  9G12G25G10G17G05G09G04G27G02
 -19260387.62148 -14999230.80146  21155003.1024                   21155000.5474
  -9607079.67247  -7477183.47344  23592172.0004                   23592172.5354
 -18935055.62948 -14737679.28546  21001145.7274                   21001143.6764
  -1464475.75447  -1123138.72744  23653455.8594                   23653453.9884
 -17927981.57847 -13960852.16046  21658215.1484                   21658213.4414
   1786557.73046   1412550.75843  24350959.5864                   24350961.6724
 -10780050.32847  -8380662.08645  22176224.2584                   22176222.9224
  -2039992.71147  -1571564.31644  24461915.5164                   24461917.4064
 -20533771.82048 -15980722.40647  20678320.3984                   20678315.7734
 11  7 28  2 11  0.0000000  0  9G12G25G10G17G05G09G04G27G02
 -19281324.74248 -15015545.39546  21151018.6804                   21151016.3164
  -9678367.96547  -7532732.75444  23578606.1804                   23578606.9454
 -18899736.77348 -14710158.06246  21007866.4224                   21007864.5204
  -1382763.26247  -1059466.67644  23669005.0164                   23669002.8204
 -17988574.36748 -14008067.26246  21646685.2424                   21646683.6254
   1891416.13746   1494258.53544  24370913.7194                   24370914.6844
 -10679590.61347  -8302381.78145  22195341.8284                   22195340.0704
  -1953865.04746  -1504451.93843  24478305.2034                   24478306.5744
 -20505665.54348 -15958821.38747  20683668.8984                   20683664.7774
 11  7 28  2 11 30.0000000  0  9G12G25G10G17G05G09G04G27G02
 -19301743.62148 -15031456.17246  21147133.1484                   21147130.2074
  -9749378.79347  -7588065.79744  23565093.1024                   23565093.9654
 -18863778.68448 -14682138.75046  21014709.2974                   21014707.1604
  -1300872.14146   -995655.38744  23684588.5314                   23684586.8364
 -18048776.90247 -14054978.26646  21635228.5704                   21635227.2034
   1996330.90246   1576010.23044  24390878.6024                   24390879.8554
 -10579027.04347  -8224020.55545  22214478.5704                   22214476.6024
  -1867754.94546  -1437353.27043  24494691.6024                   24494692.9804
 -20477287.23848 -15936708.39146  20689069.1484                   20689064.4144
 11  7 28  2 12  0.0000000  0  9G12G25G10G17G05G09G04G27G02
 -19321649.43448 -15046967.18046  21143344.9064                   21143342.2344
  -9820116.44947  -7643186.02744  23551632.4304                   23551632.7194
 -18827189.09048 -14653627.34846  21021671.9224                   21021669.8634
  -1218809.22746   -931710.28144  23700204.2504                   23700202.3284
 -18108593.57848 -14101588.61746  21623846.3134                   21623844.2384
   2101291.66447   1657797.77744  24410852.9534                   24410853.2424
 -10478368.12547  -8145585.03145  22233632.9694                   22233631.8834
  -1781671.82446  -1370275.59043  24511072.4774                   24511074.3244
 -20448644.81648 -15914389.60947  20694519.3054                   20694514.9734
 11  7 28  2 12 30.0000000  0  9G12G25G10G17G05G09G04G27G02
 -19341040.69948 -15062077.22346  21139654.7664                   21139652.3244
  -9890578.73847  -7698091.68744  23538223.5084                   23538224.0904
 -18789968.89148 -14624624.56646  21028754.7114                   21028752.7624
  -1136574.48846   -867631.28144  23715853.5164                   23715851.8094
 -18168022.10248 -14147896.51246  21612536.9924                   21612535.1454
   2206294.68446   1739618.25444  24430833.8054                   24430834.6524
 -10377616.23848  -8067077.05945  22252805.8444                   22252803.6454
  -1695618.98446  -1303221.54743  24527447.8444                   24527449.6844
 -20419739.81248 -15891866.20747  20700019.6644                   20700015.3444
 11  7 28  2 13  0.0000000  0  9G12G25G10G17G05G09G04G27G02
 -19359917.31248 -15076786.24646  21136062.7664                   21136060.0744
  -9960764.55547  -7752781.89844  23524867.1644                   23524868.1454
 -18752120.34048 -14595132.17246  21035957.0554                   21035955.0594
  -1054169.18846   -803419.34044  23731533.6954                   23731532.6844
 -18227061.55147 -14193901.22746  21601302.1884                   21601300.0204
   2311335.53547   1821468.21944  24450823.2114                   24450824.1024
 -10276774.70347  -7988499.24645  22271994.9384                   22271993.2544
  -1609600.46145  -1236194.27042  24543815.4144                   24543818.4304
 -20390575.07448 -15869140.41847  20705569.6644                   20705565.2384
 11  7 28  2 13 30.0000000  0  9G12G25G10G17G05G09G04G27G02
 -19378271.87148 -15091088.48046  21132570.6174                   21132567.4184
 -10030665.34447  -7807249.98444  23511566.3204                   23511567.0084
 -18713638.30148 -14565146.14546  21043279.9384                   21043278.0634
   -971587.27346   -739069.78944  23747249.2274                   23747247.6604
 -18285703.40647 -14239596.13746  21590143.1724                   21590141.3954
   2416416.52747   1903349.48844  24470818.7814                   24470819.8014
 -10175839.07047  -7909848.11745  22291202.1414                   22291200.8134
  -1523613.17645  -1169191.27042  24560180.2814                   24560180.8284
 -20361145.68048 -15846208.41047  20711170.0944                   20711165.3524
 11  7 28  2 14  0.0000000  0  9G12G25G10G17G05G09G04G27G02
 -19396110.56248 -15104988.73846  21129175.3444                   21129173.0824
 -10100286.57447  -7861500.26244  23498317.9454                   23498318.0594
 -18674531.33248 -14534673.15646  21050721.7664                   21050719.4734
   -888836.70346   -674588.78944  23762995.7584                   23762994.4964
 -18343953.31648 -14284985.61746  21579058.5394                   21579056.6174
   2521526.04747   1985252.98444  24490821.3754                   24490821.7154
 -10074819.34047  -7831131.44945  22310425.4694                   22310423.9534
  -1437667.70746  -1102220.83242  24576534.6954                   24576535.6724
 -20331461.13748 -15823077.56247  20716818.8914                   20716814.1884
 11  7 28  2 14 30.0000000  0  9G12G25G10G17G05G09G04G27G02
 -19413424.98848 -15118480.46946  21125880.4534                   21125877.6914
 -10169618.49647  -7915525.09044  23485124.3754                   23485125.2304
 -18634793.38348 -14503708.50446  21058283.3364                   21058281.3754
   -805909.94546   -609970.57844  23778775.3524                   23778775.2234
 -18401801.62548 -14330062.17646  21568050.2344                   21568048.3554
   2626668.14847   2067181.84444  24510828.7894                   24510829.8404
  -9973710.13747  -7752345.05145  22329666.2114                   22329663.9064
  -1351759.67245  -1035279.58242  24592882.6724                   24592883.9694
 -20301515.34448 -15799743.15647  20722517.1804                   20722512.5004
 11  7 28  2 15  0.0000000  0  9G12G25G10G17G05G09G04G27G02
 -19430212.46548 -15131561.60246  21122686.1334                   21122683.1764
 -10238657.80147  -7969321.87944  23471985.9144                   23471985.9774
 -18594424.29748 -14472252.05946  21065965.4064                   21065963.5824
   -722806.05146   -545214.32443  23794589.6724                   23794588.3134
 -18459244.96548 -14374823.18046  21557118.4774                   21557117.1914
   2731840.40646   2149134.21543  24530842.4454                   24530841.8794
  -9872512.62547  -7673489.84845  22348922.7504                   22348921.6684
  -1265891.12146   -968369.08642  24609222.2424                   24609223.4304
 -20271308.87548 -15776205.61747  20728265.3914                   20728260.9304
 11  7 28  2 15 30.0000000  0  9G12G25G10G17G05G09G04G27G02
 -19446480.93748 -15144238.32046  21119590.3524                   21119587.5704
 -10307411.07047  -8022895.81244  23458903.0634                   23458902.2934
 -18553433.98448 -14440311.53146  21073765.5944                   21073763.7774
   -639534.14546   -480327.11343  23810436.2814                   23810435.0204
 -18516290.24648 -14419274.00046  21546263.6334                   21546262.0234
   2837030.27746   2231100.28543  24550858.7664                   24550860.1484
  -9771237.46947  -7594574.13745  22368195.0084                   22368193.1254
  -1180074.00046   -901498.69542  24625554.1484                   24625554.3324
 -20240852.52748 -15752473.38347  20734061.1724                   20734056.3054
 11  7 28  2 16  0.0000000  0  8G12G25G10G17G05G09G04G02
 -19462225.31248 -15156506.63346  21116594.1254                   21116591.6094
 -10375872.72747  -8076242.48844  23445875.2974                   23445874.6094
 -18511820.10948 -14407885.09846  21081684.6094                   21081682.5314
   -556090.51246   -415306.07044  23826314.5784                   23826314.7774
 -18572932.34848 -14463410.64846  21535484.8524                   21535483.2734
   2942237.45746   2313079.84843  24570879.5084                   24570879.8754
  -9669883.61347  -7515597.10945  22387482.0704                   22387480.8524
 -20210144.14848 -15728544.74647  20739904.6724                   20739899.6024
 11  7 28  2 16 30.0000000  0  8G12G25G10G17G05G09G04G02
 -19477442.85948 -15168364.43746  21113698.6724                   21113695.8014
 -10444038.47347  -8129358.59044  23432903.5234                   23432904.1684
 -18469582.13348 -14374972.37546  21089721.7424                   21089720.0904
   -472474.00846   -350150.38344  23842226.0084                   23842225.9734
 -18629166.02748 -14507229.05546  21524784.2974                   21524782.1024
   3047460.34446   2395071.66443  24590902.3054                   24590904.0354
  -9568450.65247  -7436558.43045  22406784.2034                   22406782.6804
 -20179183.66048 -15704419.66447  20745796.2584                   20745792.0234
 11  7 28  2 17  0.0000000  0  8G12G25G10G17G05G09G04G02
 -19492122.37948 -15179802.99646  21110905.0474                   21110902.3794
 -10511896.25047  -8182234.71944  23419990.7274                   23419990.8484
 -18426711.41848 -14341566.60546  21097880.3444                   21097878.0274
   -388674.40246   -284852.05144  23858173.7034                   23858172.0124
 -18684980.15248 -14550720.53946  21514162.9144                   21514161.4804
   3152705.15646   2477080.55143  24610930.4774                   24610930.7114
  -9466931.05147  -7357452.23445  22426102.4454                   22426101.0164
 -20147962.17648 -15680091.22747  20751737.2814                   20751732.4774
 11  7 28  2 17 30.0000000  0  8G12G25G10G17G05G09G04G02
 -21081687.01648 -16418424.77046  20808420.7664                   20808418.3524
 -12154870.03547  -9462473.94144  23107343.2274                   23107343.8594
 -19958631.69548 -15535270.69146  20806365.1564                   20806363.3014
  -1880113.39846  -1447012.27044  23574362.8754                   23574361.1484
 -20315798.49248 -15821488.02346  21203828.5164                   21203826.7034
   1682547.94145   1331503.43843  24331168.1884                   24331168.6214
 -10940747.70347  -8505880.76645  22145644.5784                   22145643.0664
 -21691904.49648 -16883163.13346  20457934.9534                   20457930.5744
 11  7 28  2 18  0.0000000  0  8G12G25G10G17G05G09G04G02
 -21095297.41448 -16429030.25846  20805830.7734                   20805827.9844
 -12222115.73847  -9514873.11344  23094546.5234                   23094547.2274
 -19914509.63748 -15500889.84046  20814761.1954                   20814759.2034
  -1795959.28147  -1381437.64544  23590377.1334                   23590375.2194
 -20370777.75448 -15864328.96146  21193366.4454                   21193364.4654
   1787815.37545   1413529.95342  24351201.0784                   24351200.7154
 -10839071.72347  -8426652.72345  22164993.3984                   22164991.5394
 -21660177.04348 -16858440.41847  20463972.6414                   20463967.9264
 11  7 28  2 18 30.0000000  0  8G12G25G10G17G05G09G04G02
 -21108371.85948 -16439218.10546  20803342.6884                   20803339.5164
 -12289052.03547  -9567031.18744  23081809.0864                   23081809.5434
 -19869764.05148 -15466023.13346  20823276.5164                   20823273.8674
  -1711627.82846  -1315724.86344  23606423.9614                   23606423.5004
 -20425336.22748 -15906842.02346  21182984.2894                   21182982.3554
   1893088.84445   1495561.16842  24371233.3754                   24371234.2504
 -10737320.43447  -8347365.99245  22184355.6414                   22184354.1294
 -21628198.81248 -16833522.28947  20470057.4144                   20470053.0704
 11  7 28  2 19  0.0000000  0  8G12G25G10G17G05G09G04G02
 -21120908.19148 -16448986.64846  20800957.2894                   20800954.0314
 -12355675.84847  -9618945.75445  23069130.9064                   23069130.9964
 -19824395.06247 -15430670.64146  20831909.5784                   20831907.3164
  -1627118.76646  -1249873.62944  23622506.4304                   23622504.6484
 -20479471.42648 -15949025.23046  21172682.1954                   21172680.6414
   1998365.68045   1577594.95343  24391266.9694                   24391266.7544
 -10635495.04347  -8268021.55145  22203732.3674                   22203730.4144
 -21595970.67248 -16808409.43047  20476190.2344                   20476186.2974
 11  7 28  2 19 30.0000000  0  8G12G25G10G17G05G09G04G02
 -21132907.11348 -16458336.42646  20798673.7194                   20798671.3794
 -12421986.67647  -9670616.46145  23056512.0394                   23056512.6884
 -19778406.21948 -15394835.15246  20840661.4144                   20840659.1484
  -1542433.64147  -1183885.25044  23638620.7814                   23638618.7854
 -20533182.90248 -15990878.27346  21162461.6334                   21162459.7974
   2103640.59046   1659627.24243  24411300.5944                   24411301.0904
 -10533599.30947  -8188622.27345  22223122.2974                   22223121.0704
 -21563495.85948 -16783104.35546  20482370.0314                   20482365.7894
 11  7 28  2 20  0.0000000  0  8G12G25G10G17G05G09G04G02
 -21144361.75048 -16467262.09446  20796494.1804                   20796491.1844
 -12487976.90647  -9722037.35545  23043954.8364                   23043954.4104
 -19731793.29747 -15358513.37946  20849531.1804                   20849529.2384
  -1457567.45347  -1117755.72345  23654770.9224                   23654769.4774
 -20586462.92248 -16032395.13346  21152322.4694                   21152320.8714
   2208915.17246   1741659.38343  24431332.4924                   24431334.3634
 -10431629.75047  -8109165.47745  22242526.2194                   22242524.5824
 -21530770.81248 -16757604.30947  20488597.4694                   20488593.1564
 11  7 28  2 20 30.0000000  0  8G12G25G10G17G05G09G04G02
 -21155269.97348 -16475761.98046  20794418.2194                   20794415.6484
 -12553642.69947  -9773205.42245  23031459.0394                   23031459.9304
 -19684556.12548 -15321705.18046  20858520.2974                   20858517.8714
  -1372518.68747  -1051483.96545  23670954.7814                   23670953.5474
 -20639308.07448 -16073573.12546  21142266.4844                   21142264.6914
   2314187.42246   1823689.59443  24451366.0944                   24451366.7704
 -10329586.98447  -8029651.64545  22261944.8284                   22261943.1374
 -21497795.07448 -16731908.91446  20494872.4924                   20494868.3244
 11  7 28  2 21  0.0000000  0  8G12G25G10G17G05G09G04G02
 -21165630.56648 -16483835.14546  20792446.7664                   20792443.9654
 -12618981.59447  -9824118.78144  23019025.2194                   23019025.8674
 -19636695.82848 -15284411.43046  20867627.6954                   20867625.6094
  -1287287.20747   -985069.82845  23687173.3984                   23687172.4184
 -20691716.03948 -16114410.44946  21132293.6644                   21132291.5784
   2419453.97746   1905715.41444  24471398.0474                   24471399.0824
 -10227472.45747  -7950081.89145  22281376.7504                   22281374.7154
 -21464570.19148 -16706019.36346  20501194.7114                   20501190.6684
 11  7 28  2 21 30.0000000  0  8G12G25G10G17G05G09G04G02
 -21175450.60948 -16491487.10946  20790578.1174                   20790575.2934
 -12683999.78147  -9874782.23845  23006652.2034                   23006653.2504
 -19588222.26648 -15246639.80546  20876851.9304                   20876849.8874
  -1201881.91447   -918520.23845  23703426.4694                   23703424.2624
 -20743693.58648 -16154912.38346  21122402.3524                   21122400.1564
   2524702.88746   1987727.46944  24491425.5474                   24491427.4144
 -10125296.65247  -7870464.38345  22300820.1724                   22300818.6524
 -21431106.28548 -16679943.58646  20507562.9844                   20507558.6644
 11  7 28  2 22  0.0000000  0  8G12G25G10G17G05G09G04G02
 -21184724.01248 -16498713.10546  20788813.2584                   20788810.5904
 -12748689.76647  -9925189.94145  22994342.6804                   22994343.1644
 -19539131.86748 -15208387.52746  20886193.8134                   20886191.5394
  -1116297.78947   -851831.29744  23719712.0554                   23719710.2034
 -20795233.15648 -16195073.04746  21112595.0314                   21112592.6954
   2629936.12947   2069727.33644  24511451.3834                   24511452.0744
 -10023056.23847  -7790796.53545  22320275.3444                   22320274.3204
 -21397399.67648 -16653678.67646  20513977.2734                   20513972.6414
 11  7 28  2 22 30.0000000  0  8G12G25G10G17G05G09G04G02
 -21193458.37547 -16505519.07446  20787151.1414                   20787148.4304
 -12813058.10547  -9975347.03145  22982093.8674                   22982093.7544
 -19489434.81248 -15169662.52746  20895650.8054                   20895648.8014
  -1030543.52747   -785009.80944  23736030.7894                   23736028.9224
 -20846341.87148 -16234897.97346  21102869.3444                   21102867.4064
   2735141.48446   2151705.48844  24531471.4614                   24531472.3484
  -9920761.87547  -7711086.64545  22339741.7894                   22339740.1914
 -21363460.37148 -16627232.45746  20520435.4924                   20520431.1094
 11  7 28  2 23  0.0000000  0  8G12G25G10G17G05G09G04G02
 -21201645.96547 -16511898.99646  20785593.1644                   20785590.4064
 -12877095.50447 -10025246.25445  22969907.5944                   22969907.8794
 -19439125.43047 -15130460.39146  20905223.6414                   20905221.8674
   -944612.27046   -718050.43044  23752382.3134                   23752380.8484
 -20897010.64848 -16274380.09046  21093227.5704                   21093225.2274
   2840322.64546   2233664.74244  24551487.2664                   24551487.5434
  -9818408.53947  -7631330.80545  22359219.1804                   22359217.2464
 -21329283.06248 -16600600.77046  20526939.1564                   20526935.0984
 11  7 28  2 23 30.0000000  0  8G12G25G10G17G05G09G04G02
 -21209282.28147 -16517849.35546  20784140.1024                   20784137.3364
 -12940796.36747 -10074883.21945  22957785.5164                   22957785.6094
 -19388202.18047 -15090779.91846  20914914.4694                   20914912.4104
   -858500.84847   -650950.59044  23768769.3594                   23768767.6054
 -20947233.88748 -16313515.03946  21083670.0164                   21083668.2034
   2945479.17246   2315604.84844  24571496.6724                   24571498.3014
  -9715994.61347  -7551527.73845  22378707.5554                   22378706.5594
 -21294866.05948 -16573782.31246  20533488.5554                   20533484.5554
 11  7 28  2 24  0.0000000  0  8G12G25G10G17G05G09G04G02
 -21216376.77048 -16523377.51246  20782789.9614                   20782787.2704
 -13004168.73047 -10124264.23844  22945725.8284                   22945726.2774
 -19336676.73847 -15050630.19546  20924719.3364                   20924717.1374
   -772219.97747   -583718.73044  23785188.1334                   23785186.1804
 -20997020.08648 -16352309.44546  21074195.8054                   21074194.0234
   3050597.42246   2397515.09444  24591499.8984                   24591501.7274
  -9613532.39147  -7471687.05545  22398206.0234                   22398204.3094
 -21260221.05148 -16546786.19147  20540081.2194                   20540077.4384
 11  7 28  2 24 30.0000000  0  8G12G25G10G17G05G09G04G02
 -21222925.34848 -16528480.27746  20781543.7734                   20781540.8794
 -13067207.19547 -10173385.06245  22933729.8364                   22933731.0664
 -19284547.39847 -15010009.90246  20934639.0634                   20934637.2384
   -685766.70347   -516352.57444  23801639.1884                   23801637.7854
 -21046364.48448 -16390759.57846  21064806.0554                   21064803.8364
   3155677.12546   2479395.36743  24611496.2344                   24611496.3914
  -9511020.39147  -7391807.56645  22417712.3284                   22417711.9844
 -21225346.46148 -16519611.16446  20546718.1254                   20546713.5004
 11  7 28  2 25  0.0000000  0  8G12G25G10G17G05G09G04G02
 -21228925.48448 -16533155.69946  20780401.8914                   20780399.1134
 -13129908.01647 -10222242.77745  22921798.8984                   22921799.0944
 -19231814.43747 -14968919.25046  20944673.8594                   20944671.7424
   -599139.69146   -448851.02344  23818123.4694                   23818122.3554
 -21095263.19148 -16428862.43446  21055500.9304                   21055498.8164
   3260716.42646   2561244.10943  24631484.6024                   24631485.9414
  -9408459.03147  -7311889.62145  22437229.7664                   22437229.1684
 -21190242.19948 -16492257.18746  20553397.7504                   20553393.2774
 11  7 28  2 25 30.0000000  0  8G12G25G10G17G05G09G04G02
 -21234376.91848 -16537403.55946  20779364.7344                   20779362.0354
 -13192269.62147 -10270836.21145  22909931.8444                   22909932.6454
 -19178480.12148 -14927360.02046  20954823.3204                   20954820.8284
   -512339.41846   -381214.46944  23834641.8594                   23834639.6094
 -21143715.15648 -16466617.16446  21046280.5084                   21046279.1374
   3365711.14546   2643058.11343  24651464.3754                   24651467.0004
  -9305850.75447  -7231935.11745  22456755.7504                   22456754.4534
 -21154910.66448 -16464726.11346  20560121.3054                   20560116.5784
 11  7 28  2 26  0.0000000  0  8G12G25G10G17G05G09G04G02
 -21239274.57848 -16541219.89846  20778432.8444                   20778430.2814
 -13254285.17247 -10319159.95745  22898130.1024                   22898130.8674
 -19124541.82047 -14885330.14846  20965087.2424                   20965085.1604
   -425361.68746   -313439.63344  23851193.4384                   23851190.6414
 -21191713.80548 -16504018.66846  21037146.9144                   21037144.6414
   3470662.53146   2724838.36343  24671436.4454                   24671437.2584
  -9203192.95747  -7151942.02045  22476290.5234                   22476288.8014
 -21119348.57048 -16437015.37546  20566888.4224                   20566884.2544
 11  7 28  2 26 30.0000000  0  8G12G25G10G17G05G09G04G02
 -21243614.56248 -16544601.69946  20777606.8834                   20777603.8244
 -13315949.69947 -10367210.19945  22886396.1024                   22886396.0784
 -19069998.23448 -14842828.62546  20975466.6174                   20975464.2234
   -338204.16446   -245524.73843  23867778.0704                   23867775.8094
 -21239254.59448 -16541063.39846  21028100.0784                   21028098.3594
   3575569.62146   2806584.09843  24691399.0554                   24691400.6724
  -9100484.35547  -7071909.34045  22495834.8674                   22495833.3364
 -21083554.76648 -16409124.07846  20573699.9304                   20573695.0514
 11  7 28  2 27  0.0000000  0  8G12G25G10G17G05G09G04G02
 -21247395.85248 -16547548.14146  20776887.5634                   20776884.7304
 -13377260.54747 -10414984.84445  22874728.5944                   22874729.1174
 -19014850.52047 -14799856.35946  20985960.9844                   20985958.2664
   -250866.77346   -177469.62943  23884397.0634                   23884397.3014
 -21286335.38348 -16577749.68446  21019140.6804                   21019139.3324
   3680429.76245   2888293.14143  24711353.3674                   24711354.5984
  -8997726.80147  -6991838.51645  22515389.2894                   22515387.9024
 -21047530.32048 -16381053.07446  20580554.8914                   20580550.7234
 11  7 28  2 27 30.0000000  0  8G12G25G10G17G05G09G04G02
 -21250624.59048 -16550064.02746  20776272.7584                   20776269.9184
 -13438222.97347 -10462487.96945  22863128.1954                   22863128.5864
 -18959108.12148 -14756420.69546  20996567.9224                   20996566.2034
   -163356.98446   -109280.22343  23901050.1094                   23901048.2624
 -21332961.54348 -16614081.71546  21010267.9224                   21010266.0274
   3785232.05945   2969957.25042  24731296.1884                   24731297.9614
  -8894929.20347  -6911736.49245  22534951.6564                   22534949.3794
 -21011284.30548 -16352809.40646  20587452.1334                   20587447.8834
 11  7 28  2 28  0.0000000  0  8G12G25G10G17G05G09G04G02
 -21253298.03948 -16552147.21146  20775763.9224                   20775761.3134
 -13498832.07447 -10509715.80545  22851594.1954                   22851595.1174
 -18902770.05547 -14712520.89546  21007288.4774                   21007286.6254
    -75672.39546    -40954.52343  23917736.4064                   23917733.4304
 -21379128.65248 -16650056.05146  21001482.6414                   21001480.6524
   3889975.74245   3051575.65242  24751228.8054                   24751230.6484
  -8792090.74647  -6831602.60944  22554520.4064                   22554518.6214
 -20974815.40248 -16324392.05546  20594391.8204                   20594387.7114
 11  7 28  2 28 30.0000000  0  8G12G25G10G17G05G09G04G02
 -21255411.43448 -16553793.99646  20775361.6724                   20775358.5204
 -13559082.22347 -10556663.91045  22840128.3914                   22840129.5474
 -18845834.71547 -14668155.66046  21018122.9064                   21018120.9694
     12190.27046     27509.85543  23934456.1804                   23934454.3834
 -21424831.55948 -16685668.66446  20992785.5864                   20992783.9734
   3994660.97755   3133148.44552  24771150.1174                   24771150.9614
  -8689209.86747  -6751435.73845  22574098.4384                   22574096.6764
 -20938121.82048 -16295799.65247  20601374.5084                   20601370.3594
 11  7 28  2 29  0.0000000  0  8G12G25G10G17G05G09G04G02
 -21256962.37548 -16555002.50046  20775066.6644                   20775063.7034
 -13618969.45347 -10603329.23045  22828732.6804                   22828733.2854
 -18788302.02747 -14623324.98446  21029070.8834                   21029068.7704
    100232.49246     96114.17244  23951209.8834                   23951208.8404
 -21470066.63748 -16720916.74646  20984177.6644                   20984176.0164
   4099285.75845   3214674.21942  24791059.1884                   24791059.9694
  -8586286.31247  -6671235.57845  22593684.3054                   22593682.6604
 -20901203.18048 -16267031.87146  20608400.0394                   20608395.6764
 11  7 28  2 29 30.0000000  0  7G12G25G10G17G05G04G02
 -21257958.44148 -16555778.64546  20774877.2894                   20774874.5514
 -13678499.79347 -10649716.44145  22817404.5474                   22817405.8014
 -18730182.14547 -14578036.75846  21040131.0394                   21040129.1724
    188446.06346    164852.02343  23967996.5634                   23967994.3594
 -21514840.17248 -16755805.17646  20975657.6334                   20975655.7704
  -8483330.18047  -6591010.00444  22613275.9064                   22613273.9884
 -20864069.41048 -16238096.43746  20615466.0004                   20615461.9614
 11  7 28  2 30  0.0000000  0  7G12G25G10G17G05G04G02
 -21258390.40248 -16556115.21546  20774795.1564                   20774792.5234
 -13737662.10547 -10695816.87945  22806146.3834                   22806147.2384
 -18671467.85947 -14532285.33246  21051304.2114                   21051301.6524
    276839.25446    233729.83243  23984816.9534                   23984815.0634
 -21559141.55948 -16790325.69946  20967227.3594                   20967225.2344
  -8380334.34847  -6510753.55144  22632876.0704                   22632873.7154
 -20826713.25048 -16208987.73447  20622574.8674                   20622570.3914
 11  7 28  2 30 30.0000000  0  7G12G25G10G17G05G04G02
 -21258255.80948 -16556010.30946  20774820.4384                   20774817.6524
 -13796452.70747 -10741627.66845  22794959.2114                   22794959.6644
 -18612159.63347 -14486071.13746  21062590.1954                   21062587.6604
    365413.27746    302748.54744  24001672.8594                   24001669.9384
 -21602967.78948 -16824475.98446  20958887.3674                   20958885.6174
  -8277299.05547  -6430466.27345  22652482.6724                   22652481.3714
 -20789134.23448 -16179705.37947  20629725.9534                   20629721.6414
 11  7 28  2 31  0.0000000  0  7G12G25G10G17G05G04G02
 -21257553.35248 -16555462.92646  20774954.2664                   20774951.3594
 -13854868.70347 -10787146.54745  22783842.9844                   22783843.1524
 -18552258.58647 -14439394.95746  21073988.7894                   21073986.4964
    454168.56346    371908.57044  24018562.0164                   24018559.9304
 -21646316.45348 -16858254.11746  20950638.1174                   20950636.6374
  -8174225.14147  -6350148.98045  22672096.4774                   22672095.2424
 -20751333.44548 -16150250.19147  20636919.0944                   20636914.8324
 11  7 28  2 31 30.0000000  0  7G12G25G10G17G05G04G02
 -21256281.55548 -16554471.89146  20775196.0864                   20775193.4144
 -13912907.27747 -10832371.33645  22772798.0864                   22772798.6644
 -18491766.18747 -14392258.00046  21085499.9844                   21085497.7854
    543105.65647    441210.19944  24035485.7034                   24035484.3134
 -21689184.85948 -16891658.03146  20942480.9304                   20942479.0664
  -8071113.87547  -6269802.52745  22691718.4844                   22691717.1174
 -20713311.56248 -16120622.72746  20644154.4144                   20644150.2734
 11  7 28  2 32  0.0000000  0  7G12G25G10G17G05G04G02
 -21254435.58248 -16553033.44146  20775547.3834                   20775544.1954
 -13970561.79347 -10877296.87545  22761826.9924                   22761826.6724
 -18430679.97347 -14344658.32046  21097123.8054                   21097122.0434
    632228.51247    510656.59844  24052445.5164                   24052444.2194
 -21731566.90648 -16924682.96546  20934415.6724                   20934413.7974
  -7967962.28147  -6189424.65645  22711347.2034                   22711346.1214
 -20675065.75048 -16090820.78546  20651432.1564                   20651428.2154
 11  7 28  2 32 30.0000000  0  7G12G25G10G17G05G04G02
 -21252023.09448 -16551153.55946  20776006.5554                   20776003.6884
 -14027838.46947 -10921928.00045  22750927.8204                   22750927.7424
 -18369010.17247 -14296603.93046  21108859.4384                   21108857.6524
    721528.41446    580240.93844  24069438.2424                   24069437.4454
 -21773469.35948 -16957334.20746  20926442.0164                   20926439.9144
  -7864780.59447  -6109023.29344  22730981.8594                   22730980.4774
 -20636605.80948 -16060851.97746  20658751.3134                   20658746.9414
 11  7 28  2 33  0.0000000  0  7G12G25G10G17G05G04G02
 -21249040.78948 -16548829.66046  20776574.0004                   20776571.6174
 -14084732.43447 -10966260.89545  22740100.6644                   22740101.3134
 -18306756.04347 -14248094.21146  21120706.5084                   21120703.8244
    811008.31347    649965.55144  24086466.0474                   24086464.7464
 -21814887.87148 -16989608.32846  20918560.4304                   20918558.1804
  -7761567.52047  -6028597.51644  22750622.5944                   22750621.6254
 -20597930.52048 -16030715.36346  20666110.8444                   20666106.0744
 11  7 28  2 33 30.0000000  0  7G12G25G10G17G05G04G02
 -21245481.90648 -16546056.48446  20777251.0864                   20777248.5514
 -14141234.95347 -11010288.77345  22729348.5704                   22729348.6684
 -18243912.80947 -14199125.42646  21132664.7584                   21132662.9264
    900674.11747    719835.02044  24103528.4694                   24103527.5984
 -21855814.23048 -17021498.94546  20910772.2504                   20910770.2814
  -7658318.34447  -5948143.65644  22770270.4534                   22770269.3094
 -20559034.96548 -16000407.10946  20673512.3524                   20673508.1524
 11  7 28  2 34  0.0000000  0  7G12G25G10G17G05G04G02
 -21241358.52347 -16542843.43446  20778035.9064                   20778033.0514
 -14197356.80547 -11054020.03545  22718669.2194                   22718669.2074
 -18180495.48847 -14149709.32446  21144732.8054                   21144730.6294
    990512.88347    789839.26244  24120624.3054                   24120622.9494
 -21896259.64848 -17053014.82846  20903075.7584                   20903073.1844
  -7555047.57047  -5867672.89144  22789922.3594                   22789920.3834
 -20519933.37948 -15969938.31646  20680952.9924                   20680948.5824
 11  7 28  2 34 30.0000000  0  7G12G25G10G17G05G04G02
 -21236669.66448 -16539189.76646  20778928.0554                   20778924.7344
 -14253095.27747 -11097452.58645  22708062.4224                   22708062.3244
 -18116505.56647 -14099847.03946  21156909.6804                   21156908.0394
   1080524.44147    859978.11744  24137754.0864                   24137751.6684
 -21936221.90648 -17084154.21146  20895470.9844                   20895469.0314
  -7451756.39547  -5787186.28144  22809577.2734                   22809575.8204
 -20480626.61348 -15939309.64846  20688432.8834                   20688428.1294
 11  7 28  2 35  0.0000000  0  7G12G25G10G17G05G04G02
 -21231405.05548 -16535087.45746  20779929.9534                   20779927.1414
 -14308438.48447 -11140577.12945  22697531.1724                   22697530.9414
 -18051935.74647 -14049532.89546  21169197.3984                   21169194.9614
   1170718.14146    930258.94544  24154915.2664                   24154914.8444
 -21975689.71148 -17114908.32446  20887960.7974                   20887958.5314
  -7348436.34047  -5706677.11344  22829238.6564                   22829236.8954
 -20441106.49248 -15908514.73047  20695953.2814                   20695948.6524
 11  7 28  2 35 30.0000000  0  7G12G25G10G17G05G04G02
 -21225566.63348 -16530538.02046  20781041.1484                   20781038.3324
 -14363386.57447 -11183393.80145  22687074.9224                   22687074.9144
 -17986790.36747 -13998770.24246  21181593.8284                   21181592.0124
   1261091.95347   1000680.06644  24172113.9144                   24172113.3834
 -22014663.81248 -17145277.71546  20880544.1484                   20880541.6564
  -7245091.66447  -5626148.76244  22848904.3134                   22848903.0784
 -20401376.88748 -15877556.56246  20703513.6884                   20703509.0164
 11  7 28  2 36  0.0000000  0  7G12G25G10G17G05G04G02
 -21219150.15248 -16525538.14546  20782262.1254                   20782259.2704
 -14417933.65247 -11225898.00045  22676694.4694                   22676694.8164
 -17921067.68747 -13947557.76646  21194100.3204                   21194098.0744
   1351648.65647   1071243.72744  24189346.3984                   24189344.7854
 -22053138.93748 -17175258.30146  20873222.2974                   20873220.4654
  -7141720.03547  -5545599.48444  22868576.1954                   22868574.5004
 -20361435.27748 -15846433.20346  20711114.1254                   20711109.8984
 11  7 28  2 36 30.0000000  0  7G12G25G10G17G05G04G02
 -21212163.89548 -16520094.30146  20783591.4144                   20783588.7854
 -14472086.25047 -11268094.80945  22666389.7344                   22666389.9264
 -17854778.54347 -13895903.88346  21206715.0784                   21206712.3524
   1442379.69946   1141943.23444  24206611.4534                   24206611.0394
 -22091122.04348 -17204855.50046  20865994.4224                   20865992.1684
  -7038331.62547  -5465037.09844  22888250.0944                   22888248.5944
 -20321291.91848 -15815152.62546  20718753.3134                   20718748.6174
 11  7 28  2 37  0.0000000  0  7G12G25G10G17G05G04G02
 -21204607.68748 -16514206.33646  20785029.3594                   20785026.8914
 -14525842.32847 -11309982.65245  22656160.3754                   22656160.6294
 -17787925.18047 -13843810.33646  21219436.2814                   21219434.5474
   1533284.44146   1212778.09844  24223910.5084                   24223909.1764
 -22128611.46948 -17234067.99646  20858860.3914                   20858858.1374
  -6934928.17647  -5384462.96545  22907927.4384                   22907925.6564
 -20280948.22748 -15783715.95747  20726430.5784                   20726425.5554
 11  7 28  2 37 30.0000000  0  7G12G25G10G17G05G04G02
 -21196481.02748 -16507873.86346  20786575.3524                   20786572.6134
 -14579199.99247 -11351560.02045  22646006.5234                   22646007.0274
 -17720509.57847 -13791278.68046  21232265.2194                   21232263.1724
   1624362.50446   1283748.01243  24241242.3524                   24241240.7814
 -22165606.07448 -17262894.89846  20851820.5394                   20851818.2424
  -6831511.41047  -5303878.48444  22927606.4614                   22927605.4534
 -20240405.76648 -15752124.43447  20734144.8134                   20734140.8014
 11  7 28  2 38  0.0000000  0  7G12G25G10G17G05G04G02
 -21187777.07048 -16501091.54346  20788231.6414                   20788229.0514
 -14632150.25447 -11392819.93745  22635929.9304                   22635930.5744
 -17652527.32047 -13738305.48046  21245201.3674                   21245199.6884
   1715620.55546   1354858.16843  24258607.3674                   24258605.8404
 -22202097.85248 -17291330.01646  20844876.4384                   20844873.9414
  -6728075.93047  -5223279.41845  22947289.7504                   22947288.5824
 -20199659.22348 -15720373.85947  20741899.0164                   20741894.7814
 11  7 28  2 38 30.0000000  0  7G12G25G10G17G05G04G02
 -21178496.65248 -16493860.03946  20789997.8984                   20789995.0434
 -14684692.06647 -11433761.56645  22625932.1254                   22625932.3244
 -17583981.83647 -13684893.42245  21258245.5704                   21258243.3914
   1807056.85546   1426107.24243  24276008.8054                   24276005.5514
 -22238086.04348 -17319372.72746  20838028.0314                   20838025.5474
  -6624624.42247  -5142667.83244  22966976.2194                   22966974.1094
 -20158711.28148 -15688466.34047  20749691.2114                   20749686.5744
 11  7 28  2 39  0.0000000  0  8G12G25G10G17G05G29G04G02
 -21168643.25448 -16486182.05146  20791872.9454                   20791870.1054
 -14736827.39547 -11474386.47745  22616011.2274                   22616011.2234
 -17514879.02747 -13631047.06646  21271395.3524                   21271392.7624
   1898667.21546   1497491.92644  24293440.6804                   24293439.7274
 -22273573.21948 -17347025.03146  20831275.4454                   20831272.7274
  -6419234.43415                  24653332.617
  -6521162.35547  -5062048.08244  22986664.7114                   22986662.9064
 -20117567.50048 -15656406.23846  20757520.3754                   20757516.1094
 11  7 28  2 39 30.0000000  0  8G12G25G10G17G05G29G04G02
 -21158222.41048 -16478061.90646  20793855.7274                   20793853.0984
 -14788560.16847 -11514697.68446  22606166.4614                   22606166.7034
 -17445227.38747 -13576773.04346  21284649.7274                   21284646.9104
   1990445.34446   1569007.33243  24310905.5704                   24310903.8634
 -22308564.05548 -17374290.58646  20824616.5314                   20824614.0514
  -6478952.473 5                  24641967.281
  -6417697.49247  -4981426.10244  23006352.3444                   23006351.8674
 -20076234.87148 -15624198.96546  20765385.7584                   20765381.5594
 11  7 28  2 40  0.0000000  0  8G12G25G10G17G05G29G04G02
 -21147229.53947 -16469496.02346  20795947.7734                   20795944.9144
 -14839883.79747 -11554690.05946  22596400.1724                   22596400.6804
 -17375024.60547 -13522069.59045  21298008.5314                   21298006.4734
   2082394.80946   1640656.28943  24328403.9144                   24328401.6024
 -22343052.21148 -17401164.44146  20818053.7974                   20818051.6604
  -6538746.160 5                  24630588.461
  -6314226.69146  -4900799.54344  23026042.0704                   23026041.5944
 -20034710.51248 -15591842.30546  20773287.4774                   20773283.1684
 11  7 28  2 40 30.0000000  0  8G12G25G10G17G05G29G04G02
 -21135668.66047 -16460487.53146  20798148.1414                   20798145.5634
 -14890800.31647 -11594365.19545  22586710.1804                   22586711.3284
 -17304277.18747 -13466941.71545  21311471.5394                   21311469.5314
   2174511.70346   1712435.66843  24345932.4384                   24345929.9694
 -22377040.80948 -17427649.01247  20811585.6564                   20811583.0704
  -6598619.465 5                  24619195.344
  -6210755.33646  -4820172.52744  23045731.8914                   23045731.2114
 -19992999.83248 -15559340.46546  20781224.8134                   20781220.6174
 11  7 28  2 41  0.0000000  0  8G12G25G10G17G05G29G04G02
 -21123533.04747 -16451031.19146  20800457.2034                   20800453.6604
 -14941301.14547 -11633716.41445  22577100.2504                   22577100.9454
 -17232980.78147 -13411386.06646  21325038.8984                   21325036.5084
   2266802.08246   1784350.23843  24363494.2584                   24363492.7854
 -22410521.82448 -17453738.08246  20805214.3524                   20805212.5314
  -6658565.391 5                  24607788.086
  -6107278.48846  -4739541.23044  23065423.4064                   23065422.3674
 -19951097.71947 -15526689.45346  20789198.7034                   20789194.2894
 11  7 28  2 41 30.0000000  0  8G12G25G10G17G05G29G04G02
 -21110820.03948 -16441124.94546  20802876.4614                   20802873.8014
 -14991381.62947 -11672740.10245  22567571.4534                   22567571.5204
 -17161135.21547 -13355402.50446  21338710.9774                   21338708.4534
   2359268.03146   1856401.60943  24381089.7894                   24381088.1524
 -22443491.20348 -17479428.46546  20798940.3524                   20798938.1484
  -6718581.316 5                  24596368.789
  -6003795.06246  -4658904.81244  23085115.7664                   23085114.1374
 -19909002.96948 -15493888.34846  20797209.0394                   20797204.7384
 11  7 28  2 42  0.0000000  0  8G12G25G10G17G05G29G04G02
 -21097527.46147 -16430767.07846  20805405.8204                   20805403.1564
 -15041037.84447 -11711433.18445  22558121.1484                   22558121.3914
 -17088740.88747 -13298991.32046  21352486.8984                   21352484.4614
   2451911.21546   1928591.17643  24398718.9064                   24398717.0634
 -22475945.93448 -17504717.82846  20792764.3054                   20792762.1804
  -6778665.309 5                  24584933.547
  -5900304.58647  -4578262.87944  23104809.4774                   23104807.5204
 -19866715.36348 -15460936.94946  20805256.1724                   20805251.3954
 11  7 28  2 42 30.0000000  0  8G12G25G10G17G05G29G04G02
 -21083650.09447 -16419953.52746  20808046.4694                   20808043.6644
 -15090262.65247 -11749790.10945  22548754.0784                   22548754.0864
 -17015795.08247 -13242150.43446  21366368.0634                   21366365.7544
   2544736.27046   2000922.34443  24416383.2274                   24416381.9884
 -22507879.32448 -17529600.95346  20786688.0474                   20786685.7624
  -6838811.633 5                  24573488.984
  -5796803.37946  -4497612.58644  23124504.2504                   23124503.1254
 -19824231.14547 -15427832.34846  20813340.4384                   20813336.0514
 11  7 28  2 43  0.0000000  0  8G12G25G10G17G05G29G04G02
 -21069186.47748 -16408683.16046  20810798.8524                   20810796.0824
 -15139053.14547 -11787808.60245  22539469.8524                   22539470.1454
 -16942299.40247 -13184881.05546  21380353.9454                   21380351.8914
   2637743.46546   2073395.46943  24434082.2734                   24434080.0904
 -22539289.19948 -17554076.12946  20780710.6094                   20780708.7114
                                  24562032.133
  -5693291.98846  -4416954.37144  23144202.2664                   23144200.7854
 -19781550.54748 -15394574.74246  20821462.3054                   20821457.3054
 11  7 28  2 43 30.0000000  0  8G12G25G10G17G05G29G04G02
 -21054147.05148 -16396964.10946  20813660.8284                   20813657.8674
 -15187417.11747 -11825494.74245  22530266.3204                   22530265.9414
 -16868265.92647 -13127192.63746  21394441.7584                   21394439.4924
   2730922.97746   2146002.86743  24451814.2114                   24451812.1294
 -22570184.03548 -17578149.98047  20774831.7974                   20774829.6644
  -6959297.770 5                  24550560.781
  -5589781.55946  -4336296.87944  23163899.7034                   23163898.0864
 -19738684.80948 -15361172.85546  20829619.1484                   20829615.1564
 11  7 28  2 44  0.0000000  0  8G12G25G10G17G05G29G04G02
 -21038526.99248 -16384792.62546  20816633.1804                   20816630.4774
 -15235348.22747 -11862843.59846  22521145.5084                   22521145.9804
 -16793692.75847 -13069083.67246  21408632.3984                   21408630.1724
   2824278.39547   2218747.40643  24469579.0944                   24469576.3674
 -22600558.33648 -17601818.22746  20769051.3594                   20769049.3674
                                  24539077.273
  -5486269.23846  -4255637.93744  23183596.9774                   23183596.1294
 -19695631.07848 -15327624.48846  20837812.3524                   20837808.1454
 11  7 28  2 44 30.0000000  0  8G12G25G10G17G05G29G04G02
 -21022328.09847 -16372170.09846  20819715.4774                   20819712.8284
 -15282846.11347 -11899854.89145  22512106.7664                   22512106.6214
 -16718584.05547 -13010557.42645  21422925.5864                   21422922.5594
   2917807.85247   2291627.49243  24487376.5784                   24487375.0664
 -22630412.43448 -17625081.12946  20763370.2734                   20763368.0234
  -7080055.13715                  24527581.055
  -5382757.92246  -4174979.71944  23203295.2114                   23203294.4804
 -19652392.39848 -15293931.99646  20846040.2894                   20846035.9884
 11  7 28  2 45  0.0000000  0  8G12G25G10G17G05G29G04G02
 -21005547.34448 -16359094.17246  20822908.7974                   20822906.2704
 -15329906.05547 -11936524.93046  22503151.2584                   22503150.8444
 -16642939.46147 -12951613.60246  21437320.1094                   21437318.2854
   3011513.70346   2364645.07444  24505207.9844                   24505207.5084
 -22659742.42648 -17647935.63746  20757789.1644                   20757786.5474
  -7140532.211 6                  24516073.297
  -5279246.45747  -4094321.44144  23222993.3284                   23222990.3794
 -19608967.30948 -15260094.25446  20854304.1024                   20854299.3284
 11  7 28  2 45 30.0000000  0  8G12G25G10G17G05G29G04G02
 -20988179.03147 -16345560.41446  20826213.7424                   20826211.2814
 -15376520.00447 -11972847.43446  22494281.0004                   22494280.7154
 -16566754.99247 -12892249.05945  21451816.8834                   21451815.0744
   3105401.68846   2437804.53143  24523073.8284                   24523073.0904
 -22688540.68448 -17670375.80546  20752308.8204                   20752307.0704
  -7201067.543 5                  24504552.547
  -5175729.83646  -4013659.10944  23242691.0004                   23242690.5554
 -19565350.93048 -15226107.46146  20862603.6094                   20862599.1374
 11  7 28  2 46  0.0000000  0  8G12G25G10G17G05G29G04G02
 -20970223.17247 -16331568.82046  20829630.5944                   20829628.0394
 -15422686.25447 -12008821.10545  22485495.6724                   22485495.8484
 -16490033.55547 -12832466.13345  21466417.1254                   21466415.2114
   3199470.94547   2511105.34043  24540976.0394                   24540973.7624
 -22716806.43748 -17692401.05146  20746929.9064                   20746927.9454
  -7261661.191 5                  24493023.000
  -5072209.69547  -3932994.09444  23262390.4694                   23262389.2194
 -19521544.98448 -15191972.94546  20870939.6884                   20870935.3164
 11  7 28  2 46 30.0000000  0  8G12G25G10G17G05G29G04G02
 -20951688.56647 -16317126.27046  20833157.3594                   20833154.9844
 -15468411.35547 -12044451.03546  22476794.9614                   22476794.6884
 -16412786.39147 -12772273.52345  21481116.3364                   21481114.5044
   3293712.47746   2584540.33243  24558908.7114                   24558907.2034
 -22744547.20748 -17714017.20746  20741651.0314                   20741648.7504
  -7322321.234 5                  24481480.555
  -4968696.17646  -3852334.23444  23282088.8444                   23282086.3134
 -19477559.44948 -15157698.50846  20879310.1484                   20879305.7854
 11  7 28  2 47  0.0000000  0  8G12G25G10G17G05G29G04G02
 -20932570.35947 -16302228.96146  20836796.1414                   20836793.2424
 -15513688.67247 -12079732.02346  22468178.4534                   22468178.8634
 -16335011.23047 -12711669.49645  21495916.1644                   21495914.3204
   3388130.60946   2658112.83643  24576876.2814                   24576874.8634
 -22771756.89548 -17735219.52747  20736473.2974                   20736471.4064
  -7383042.691 5                  24469924.766
  -4865185.53546  -3771676.55944  23301785.6484                   23301784.4804
 -19433390.81248 -15123281.37146  20887715.0944                   20887710.2304
 11  7 28  2 47 30.0000000  0  8G12G25G10G17G05G29G04G02
 -20912862.78147 -16286872.39846  20840546.0394                   20840543.7584
 -15558510.17247 -12114657.86345  22459649.2664                   22459649.2974
 -16256704.49647 -12650651.26245  21510817.7194                   21510815.6884
   3482730.79746   2731827.31343  24594878.0234                   24594876.5944
 -22798428.43448 -17756002.53147  20731397.5704                   20731395.7274
  -7443819.180 5                  24458359.453
  -4761673.22746  -3691017.64844  23321483.6414                   23321482.6914
 -19389034.46548 -15088717.96946  20896155.7974                   20896151.3714
 11  7 28  2 48  0.0000000  0  7G12G25G10G05G29G04G02
 -20892576.12148 -16271064.60946  20844407.0474                   20844403.5434
 -15602883.98447 -12149234.86746  22451205.3054                   22451205.5204
 -16177878.77047 -12589228.59845  21525817.9614                   21525815.8014
 -22824570.53948 -17776372.97747  20726423.4304                   20726421.0864
  -7504660.223 5                  24446780.703
  -4658170.59046  -3610366.24644  23341179.5634                   23341177.6884
 -19344501.80948 -15054017.17646  20904630.0864                   20904625.5084
 11  7 28  2 48 30.0000000  0  7G12G25G10G05G29G04G02
 -20871706.75847 -16254802.77046  20848378.1804                   20848375.0004
 -15646804.87547 -12183458.93446  22442847.4224                   22442847.6644
 -16098533.19947 -12527400.88745  21540917.1174                   21540914.1954
 -22850178.93048 -17796327.55147  20721550.0314                   20721547.5984
  -7565562.46915                  24435192.391
  -4554675.58246  -3529720.78144  23360873.9614                   23360872.9494
 -19299790.73048 -15019177.35546  20913138.1564                   20913133.7504
 11  7 28  2 49  0.0000000  0  7G12G25G10G05G29G04G02
 -20850246.87947 -16238080.78546  20852461.9534                   20852458.3794
 -15690262.52047 -12217322.02746  22434577.8594                   22434578.3674
 -16018662.06247 -12465163.62145  21556115.9534                   21556113.5744
 -22875243.88748 -17815858.65247  20716780.4614                   20716778.0664
  -7626516.969 5                  24423592.617
  -4451181.13346  -3449075.78544  23380568.7034                   23380566.7154
 -19254894.14848 -14984192.98446  20921681.5234                   20921677.2274
 11  7 28  2 49 30.0000000  0  7G12G25G10G05G29G04G02
 -20828200.69548 -16220901.94546  20856656.8134                   20856654.0044
 -15733259.24647 -12250825.96146  22426395.6484                   22426395.6254
 -15938272.27747 -12402522.22745  21571413.7424                   21571411.5124
 -22899768.87948 -17834969.02046  20712113.5084                   20712111.1214
  -7687527.285 5                  24411982.266
  -4347692.62546  -3368435.42644  23400261.5164                   23400259.8954
 -19209817.70348 -14949068.48046  20930259.3284                   20930254.7194
 11  7 28  2 50  0.0000000  0  7G12G25G10G05G29G04G02
 -20805571.62948 -16203268.90246  20860963.1094                   20860960.1254
 -15775796.25847 -12283971.67246  22418301.0784                   22418301.9414
 -15857369.01647 -12339480.70345  21586808.8914                   21586806.1844
 -22923755.76648 -17853660.08646  20707549.0944                   20707546.5704
  -7748596.500 6                  24400361.016
  -4244214.43446  -3287803.07044  23419952.8914                   23419950.5274
 -19164565.58648 -14913807.07446  20938870.5394                   20938866.1214
 11  7 28  2 50 30.0000000  0  7G12G25G10G05G29G04G02
 -20782354.48448 -16185177.61346  20865381.4774                   20865378.2544
 -15817866.87947 -12316753.94945  22410295.2734                   22410295.5004
 -15775950.42647 -12276037.62545  21602302.4304                   21602299.4384
 -22947198.88348 -17871927.43447  20703088.0394                   20703085.8204
  -7809719.301 5                  24388730.367
  -4140743.04746  -3207176.02744  23439642.8594                   23439640.6884
 -19119134.14548 -14878405.93746  20947515.7584                   20947510.9774
 11  7 28  2 51  0.0000000  0  7G12G25G10G05G29G04G02
 -20758550.62148 -16166629.14846  20869911.1024                   20869908.0164
 -15859469.02747 -12349171.20346  22402378.6094                   22402378.5594
 -15694019.13747 -12212195.04345  21617893.4924                   21617890.7304
 -22970096.96548 -17889770.07047  20698730.5704                   20698728.4414
  -7870895.109 5                  24377088.094
  -4037279.35946  -3126554.94544  23459331.4224                   23459329.2274
 -19073525.04748 -14842866.35946  20956194.7974                   20956190.3524
 11  7 28  2 51 30.0000000  0  7G12G25G10G05G29G04G02
 -20734161.85948 -16147624.91046  20874552.4774                   20874549.0984
 -15900603.24247 -12381223.81646  22394550.9144                   22394551.3284
 -15611580.06647 -12147956.80545  21633581.1174                   21633578.7344
 -22992451.28548 -17907189.01647  20694476.5704                   20694474.0784
  -7932125.809 5                  24365435.703
  -3933826.91447  -3045942.68744  23479018.2344                   23479016.0984
 -19027741.59448 -14807190.94946  20964907.2504                   20964902.3874
 11  7 28  2 52  0.0000000  0  7G12G25G10G05G29G04G02
 -20709188.40648 -16128165.07046  20879304.2504                   20879301.3594
 -15941267.41447 -12412910.16046  22386812.9614                   22386813.0394
 -15528635.65247 -12083324.76645  21649364.6334                   21649362.7974
 -23014260.49248 -17924183.17246  20690326.4534                   20690323.7074
  -7993410.750 6                  24353774.320
  -3830386.82047  -2965340.06244  23498702.0944                   23498700.3754
 -18981784.75848 -14771380.40646  20973652.6094                   20973648.1334
 11  7 28  2 52 30.0000000  0  7G12G25G10G05G29G04G02
 -20683632.29748 -16108251.20346  20884167.3444                   20884164.5554
 -15981461.43048 -12444230.14146  22379164.5084                   22379164.6524
 -15445189.93747 -12018302.10945  21665244.4304                   21665241.6334
 -23035525.77048 -17940753.48447  20686279.5234                   20686277.2384
  -8054751.15646  -6263949.04753  24342101.9454                   24342099.5634
  -3726961.93046  -2884749.23043  23518382.5234                   23518380.7894
 -18935657.56648 -14735437.11346  20982430.1804                   20982425.4534
 11  7 28  2 53  0.0000000  0  7G12G25G10G05G29G04G02
 -20657499.55148 -16087888.01246  20889140.1564                   20889137.1524
 -16021189.21548 -12475186.82046  22371604.3754                   22371604.3364
 -15361251.19147 -11952895.28945  21681217.0704                   21681215.1374
 -23056251.60548 -17956903.46147  20682335.6484                   20682333.1724
  -8116152.31646  -6311794.03543  24330418.0784                   24330416.3634
  -3623559.17647  -2804175.66443  23538059.9534                   23538057.7974
 -18889366.96148 -14699366.50846  20991239.1564                   20991234.5634
 11  7 28  2 53 30.0000000  0  7G12G25G10G05G29G04G02
 -20630784.83648 -16067071.35246  20894223.8914                   20894221.0514
 -16060443.21148 -12505774.31246  22364134.4844                   22364134.4694
 -15276816.90647 -11887102.32045  21697284.3674                   21697282.4304
 -23076431.42248 -17972627.95747  20678495.4534                   20678493.3524
  -8177608.07446  -6359681.66443  24318722.8984                   24318721.9384
  -3520173.93747  -2723615.74644  23557733.2894                   23557732.4384
 -18842908.50848 -14663165.10246  21000079.8134                   21000075.0554
 11  7 28  2 54  0.0000000  0  7G12G25G10G05G29G04G02
 -20603481.78148 -16045796.23846  20899419.6174                   20899416.5864
 -16099214.73048 -12535985.82446  22356756.5474                   22356757.1884
 -15191882.71547 -11820919.82045  21713446.9224                   21713444.4414
 -23096057.39848 -17987920.89847  20674761.0784                   20674758.4144
  -8239110.71546  -6407605.79742  24307019.5234                   24307016.8674
  -3416800.23847  -2643064.80944  23577403.8754                   23577403.4614
 -18796276.45348 -14626828.43446  21008953.5004                   21008948.8794
 11  7 28  2 54 30.0000000  0  7G12G25G10G05G29G04G02
 -20575594.57848 -16024065.94546  20904726.2974                   20904723.0204
 -16137505.69947 -12565822.89146  22349470.1804                   22349469.9304
 -15106454.71947 -11754352.53545  21729703.2734                   21729701.3054
 -23115132.38348 -18002784.50047  20671130.8914                   20671128.6094
  -8300663.70745  -6455569.05942  24295306.7274                   24295302.8444
  -3313443.26247  -2562526.92244  23597073.0164                   23597071.9884
 -18749475.83248 -14590360.40646  21017859.2974                   21017854.0864
 11  7 28  2 55  0.0000000  0  7G12G25G10G05G29G04G02
 -20547121.36748 -16001879.01246  20910144.8284                   20910141.7814
 -16175312.27348 -12595282.52046  22342275.9224                   22342275.7734
 -15020533.84847 -11687401.18745  21746053.2814                   21746051.4494
 -23133653.59048 -18017216.57047  20667606.2974                   20667603.7624
  -8362264.49655  -6503569.51652  24283582.7274                   24283580.3714
  -3210101.82847  -2482001.14544  23616737.6024                   23616737.0044
 -18702505.79748 -14553760.36746  21026797.2814                   21026792.6414
 11  7 28  2 55 30.0000000  0  7G12G25G10G05G29G04G02
 -20518070.74248 -15979242.15646  20915672.6094                   20915669.6684
 -16212640.64148 -12624369.52046  22335172.3594                   22335172.6764
 -14934130.82848 -11620074.14545  21762495.0704                   21762492.7664
 -23151627.90648 -18031222.50047  20664185.8984                   20664183.6254
                                  24271850.5554                   24271847.6024
  -3106785.09847  -2401494.62544  23636398.6644                   23636396.6524
 -18655375.73848 -14517035.61746  21035765.9534                   21035761.2544
 11  7 28  2 56  0.0000000  0  7G12G25G10G05G29G04G02
 -22063856.73848 -17183750.72346  20621519.3284                   20621516.2624
 -17824904.73848 -13880679.15646  22028368.6254                   22028368.6524
 -16422659.84848 -12779966.86345  21479237.5314                   21479235.5474
 -24744469.60948 -19272397.83647  20361078.2194                   20361076.2504
 -10061046.61755  -7827295.69552  23960316.2034                   23960312.9454
  -4578905.23046  -3548601.21143  23356262.7274                   23356261.8484
 -20183499.21548 -15707781.19946  20744974.0554                   20744968.8484
 11  7 28  2 56 30.0000000  0  7G12G25G10G05G29G04G02
 -22033638.99248 -17160204.42646  20627270.0084                   20627266.2154
 -17861257.44148 -13909005.89546  22021451.0314                   22021450.4494
 -16335286.19148 -12711883.46945  21495864.1024                   21495862.1254
 -24761333.76648 -19285538.70747  20357869.0864                   20357866.7894
 -10122796.58246  -7875412.52742  23948564.7814                   23948562.7234
  -4475627.18446  -3468124.82044  23375916.6094                   23375914.6414
 -20136037.58248 -15670798.09846  20754005.5234                   20754000.7464
 11  7 28  2 57  0.0000000  0  7G12G25G10G05G29G04G02
 -22002841.22748 -17136206.16446  20633129.8834                   20633127.6764
 -17897122.74648 -13936952.84046  22014625.6954                   22014625.7384
 -16247434.22748 -12643427.38745  21512582.1884                   21512579.8094
 -24777645.09448 -19298248.79347  20354764.7974                   20354762.9144
 -10184596.07446  -7923567.88742  23936805.3134                   23936803.1134
  -4372373.09446  -3387667.10544  23395565.3754                   23395564.0704
 -20088415.21948 -15633689.74246  20763067.8524                   20763063.1954
 11  7 28  2 57 30.0000000  0  7G12G25G10G05G29G04G02
 -21971455.92248 -17111750.07846  20639102.4924                   20639099.7034
 -17932490.77048 -13964512.30146  22007895.2734                   22007895.6724
 -16159099.02747 -12574594.74645  21529391.4614                   21529388.9064
 -24793393.99248 -19310520.64147  20351768.0394                   20351765.8914
 -10246436.08246  -7971754.75043  23925038.0784                   23925036.5744
  -4269135.66846  -3307222.40243  23415210.0944                   23415208.9844
 -20040625.33248 -15596450.87146  20772161.6484                   20772157.1844
 11  7 28  2 58  0.0000000  0  7G12G25G10G05G29G04G02
 -21939491.91048 -17086843.05946  20645185.3524                   20645182.4844
 -17967367.97348 -13991689.31246  22001258.3284                   22001258.7544
 -16070291.39848 -12505393.97745  21546290.4844                   21546288.5744
 -24808588.30148 -19322360.33647  20348876.7894                   20348874.4534
 -10308324.35246  -8019979.28942  23913260.7274                   23913259.7234
  -4165924.40646  -3226798.03943  23434850.8444                   23434849.8754
 -19992677.11747 -15559088.60246  20781285.8914                   20781281.4614
 11  7 28  2 58 30.0000000  0  7G12G25G10G05G29G04G02
 -21906946.37148 -17061482.88346  20651378.3674                   20651376.0744
 -18001749.58648 -14018480.14546  21994716.1254                   21994716.2584
 -15981010.76648 -12435824.65645  21563280.6884                   21563278.4304
 -24823224.36348 -19333765.02047  20346092.0554                   20346089.3714
 -10370256.96946  -8068238.33642  23901474.9534                   23901474.0234
  -4062736.96546  -3146392.27344  23454486.1644                   23454485.5514
 -19944568.65648 -15521601.47746  20790440.8284                   20790436.0864
 11  7 28  2 59  0.0000000  0  7G12G25G10G05G29G04G02
 -21873818.80148 -17035669.19946  20657682.5004                   20657679.6954
 -18035632.28548 -14044882.22746  21988268.5314                   21988268.1724
 -15891258.32847 -12365887.67245  21580359.6484                   21580357.5434
 -24837299.47748 -19344732.60947  20343413.3754                   20343410.9264
 -10432231.98046  -8116530.46542  23889681.1644                   23889679.8984
  -3959572.97747  -3066004.78944  23474118.0164                   23474118.2034
 -19896299.30548 -15483989.00446  20799626.2504                   20799621.8714
 11  7 28  2 59 30.0000000  0  7G12G25G10G05G29G04G02
 -21840108.27048 -17009401.24246  20664097.0784                   20664094.5044
 -18069013.43048 -14070893.48046  21981915.6254                   21981915.9494
 -15801035.89847 -12295584.46145  21597528.1884                   21597525.9964
 -24850812.12548 -19355261.92247  20340841.6024                   20340839.6054
 -10494247.414 6                  23877880.109
  -3856432.18046  -2985635.33644  23493745.3134                   23493744.6884
 -19847869.17247 -15446251.22746  20808841.9454                   20808837.5394
 11  7 28  3  0  0.0000000  0  7G12G25G10G05G29G04G02
 -21805820.28148 -16982683.32446  20670621.8054                   20670619.3954
 -18101895.55148 -14096515.89146  21975658.6024                   21975658.5664
 -15710350.67647 -12224920.64545  21614785.1414                   21614783.2274
 -24863765.88748 -19365355.73047  20338376.8204                   20338374.3914
 -10556307.066 6                  23866070.344
  -3753319.90247  -2905288.07844  23513366.8524                   23513365.7664
 -19799283.61748 -15408392.34846  20818087.7274                   20818083.1564
 11  7 28  3  0 30.0000000  0  7G12G25G10G05G29G04G02
 -21770958.68748 -16955518.44946  20677255.8674                   20677253.1684
 -18134280.03948 -14121750.55146  21969495.9924                   21969496.0984
 -15619208.23447 -12153900.54745  21632129.2114                   21632126.7424
 -24876163.26248 -19375015.98847  20336017.8054                   20336015.3404
 -10618413.117 6                  23854252.477
  -3650240.06647  -2824966.14844  23532982.9224                   23532980.8794
 -19750546.97748 -15370415.73446  20827361.9774                   20827357.4264
 11  7 28  3  1  0.0000000  0  7G12G25G10G05G29G04G02
 -21735513.42248 -16927898.75046  20684001.0554                   20683998.1054
 -18166155.48848 -14146588.53946  21963430.2504                   21963429.4774
 -15527601.57047 -12082518.71945  21649561.4924                   21649559.3874
 -24887993.55548 -19384234.36347  20333766.5234                   20333764.2974
 -10680555.23846  -8310028.93752  23842427.2344                   23842424.6994
  -3547183.96546  -2744662.68743  23552592.9614                   23552591.4024
 -19701650.34047 -15332314.44946  20836666.1024                   20836661.8204
 11  7 28  3  1 30.0000000  0  7G12G25G10G05G29G04G02
 -21699492.48448 -16899830.48446  20690855.0004                   20690852.8794
 -18197526.71948 -14171033.63746  21957460.0704                   21957460.3674
 -15435539.85547 -12010782.30945  21667080.2814                   21667077.5984
 -24899263.08248 -19393015.78147  20331621.8284                   20331619.3754
 -10742739.10246  -8358483.83643  23830593.5084                   23830593.5824
  -3444158.93447  -2664383.46943  23572198.2424                   23572196.5474
 -19652601.51648 -15294094.58246  20846000.1484                   20845995.7774
 11  7 28  3  2  0.0000000  0  7G12G25G10G05G29G04G02
 -21662892.43048 -16871310.96146  20697819.9694                   20697817.4694
 -18228388.21148 -14195081.52346  21951587.6174                   21951587.7894
 -15343022.15247 -11938690.59045  21684685.4844                   21684683.1994
 -24909967.01248 -19401356.46547  20329584.9144                   20329582.2854
 -10804959.99645  -8406967.52343  23818752.8054                   23818752.7974
  -3341161.89847  -2584126.03943  23591797.6724                   23591796.0044
 -19603397.36748 -15255753.67246  20855363.6484                   20855358.8094
 11  7 28  3  2 30.0000000  0  7G12G25G10G05G29G04G02
 -21625710.66848 -16842338.15646  20704895.9454                   20704893.1214
 -18258734.87148 -14218728.25046  21945813.2424                   21945812.9924
 -15250047.89147 -11866243.09045  21702378.1484                   21702375.8914
 -24920101.06248 -19409253.09447  20327656.3284                   20327654.3204
 -10867213.99245  -8455476.99242  23806906.6334                   23806905.4534
  -3238190.31347  -2503888.52743  23611393.3204                   23611390.6844
 -19554035.69548 -15217290.02346  20864756.7274                   20864752.1024
 11  7 28  3  3  0.0000000  0  7G12G25G10G05G29G04G02
 -21587952.58248 -16812916.25446  20712080.8054                   20712078.0234
 -18288569.49248 -14241975.99246  21940136.0634                   21940135.7384
 -15156624.21947 -11793445.42645  21720156.0474                   21720153.9304
 -24929669.50048 -19416708.99247  20325835.4924                   20325833.0084
 -10929504.39846  -8504014.87543  23795052.7344                   23795052.0434
  -3135249.50047  -2423674.89143  23630981.8524                   23630979.6524
 -19504521.77048 -15178707.74646  20874178.9844                   20874174.0434
 11  7 28  3  3 30.0000000  0  7G12G25G10G05G29G04G02
 -21549622.03148 -16783048.29346  20719374.8284                   20719371.6994
 -18317893.98048 -14264826.22746  21934555.5784                   21934555.4574
 -15062757.48447 -11720302.50445  21738018.2194                   21738015.7424
 -24938675.07048 -19423726.28147  20324121.9694                   20324119.6484
 -10991833.83646  -8552583.18443  23783192.5554                   23783191.1484
  -3032343.69947  -2343488.59843  23650564.3674                   23650562.4264
 -19454859.78948 -15140010.08246  20883629.3284                   20883624.7424
 11  7 28  3  4  0.0000000  0  7G12G25G10G05G29G04G02
 -21510714.24648 -16752730.52746  20726778.4534                   20726776.4384
 -18346701.44148 -14287273.57846  21929073.5004                   21929073.5164
 -14968445.10948 -11646812.33645  21755965.5704                   21755962.9224
 -24947111.83648 -19430300.35247  20322516.3054                   20322513.8554
 -11054196.16046  -8601177.08243  23771324.1254                   23771324.1954
  -2929468.42247  -2263326.03144  23670141.7114                   23670139.5474
 -19405046.00048 -15101194.13746  20893108.5554                   20893103.9574
 11  7 28  3  4 30.0000000  0  7G12G25G10G05G29G04G02
 -21471237.58648 -16721969.48846  20734290.7114                   20734288.3714
 -18374997.19548 -14309322.19546  21923689.2194                   21923689.2074
 -14873696.99648 -11572982.62545  21773995.2274                   21773992.9694
 -24954986.37548 -19436436.32447  20321017.8754                   20321015.5664
 -11116597.35546  -8649801.29743  23759449.9454                   23759449.4104
  -2826631.53547  -2183193.43443  23689709.7734                   23689709.2074
 -19355088.21148 -15062265.98046  20902615.1484                   20902610.3914
 11  7 28  3  5  0.0000000  0  7G12G25G10G05G29G04G02
 -21431189.69148 -16690763.32846  20741911.7114                   20741908.6414
 -18402776.52048 -14330968.39846  21918402.8364                   21918402.8444
 -14778512.46948 -11498812.86345  21792108.2584                   21792106.1334
 -24962294.99648 -19442131.31647  20319627.2034                   20319624.6094
 -11179033.96146  -8698453.15243  23747569.1414                   23747567.4574
  -2723830.48447  -2103088.79343  23709272.9304                   23709272.2424
 -19304984.02748 -15023223.75046  20912149.7114                   20912144.9774
 11  7 28  3  5 30.0000000  0  7G12G25G10G05G29G04G02
 -21390568.12148 -16659110.15246  20749641.8444                   20749639.3794
 -18430035.18448 -14352208.89146  21913215.5634                   21913215.7344
 -14682891.66847 -11424303.12545  21810304.3674                   21810302.0904
 -24969034.44148 -19447382.79347  20318344.7664                   20318342.4184
 -11241502.02346  -8747129.48043  23735680.7974                   23735680.1414
  -2621063.48846  -2023010.65243  23728828.2114                   23728827.3094
 -19254731.84448 -14984066.19146  20921712.3204                   20921707.8834
 11  7 28  3  6  0.0000000  0  7G12G25G10G05G29G04G02
 -21349376.43748 -16627012.72746  20757480.2424                   20757477.2774
 -18456773.94948 -14373044.25846  21908127.2194                   21908127.8404
 -14586839.86747 -11349457.57045  21828582.0554                   21828580.6094
 -24975206.71948 -19452192.33247  20317169.9224                   20317167.4064
 -11304002.82846  -8795831.30143  23723787.8364                   23723786.4924
  -2518333.57046  -1942961.38344  23748377.7114                   23748376.4184
 -19204334.99648 -14944795.91446  20931302.3754                   20931298.0514
 11  7 28  3  6 30.0000000  0  7G12G25G10G05G29G04G02
 -21307615.37948 -16594471.63346  20765427.5314                   20765424.5514
 -18482990.82048 -14393472.96946  21903138.5394                   21903138.6884
 -14490359.41447 -11274277.98445  21846941.2814                   21846939.4614
 -24980810.93448 -19456559.22747  20316103.6174                   20316101.0044
 -11366535.12146  -8844557.66443  23711888.4694                   23711887.5354
  -2415641.00046  -1862941.23043  23767919.9614                   23767918.9614
 -19153793.76648 -14905413.12146  20940920.2274                   20940916.0784
 11  7 28  3  7  0.0000000  0  7G12G25G10G05G29G04G02
 -21265281.26248 -16561484.00046  20773483.2814                   20773480.4694
 -18508680.03948 -14413490.54346  21898249.8674                   21898250.2034
 -14393448.91447 -11198763.31645  21865382.8204                   21865381.0204
 -24985842.14848 -19460479.60247  20315146.0704                   20315143.3794
 -11429093.85247  -8893304.68444  23699983.8444                   23699982.4884
  -2312982.37946  -1782947.55943  23787455.2114                   23787452.9024
 -19103104.75848 -14865915.19946  20950565.8054                   20950561.1684
 11  7 28  3  7 30.0000000  0  7G12G25G10G05G29G04G02
 -21222378.93448 -16528053.61346  20781647.1644                   20781644.2154
 -18533844.09048 -14433098.86746  21893461.6024                   21893461.4844
 -14296115.03148 -11122918.71545  21883905.5864                   21883903.0354
 -24990303.98848 -19463956.35947  20314296.8204                   20314294.0164
 -11491681.77047  -8942074.36644  23688073.3984                   23688072.0824
  -2210362.32446  -1702983.84043  23806981.8204                   23806980.7734
 -19052273.10948 -14826306.10546  20960238.9694                   20960234.2154
 11  7 28  3  8  0.0000000  0  7G12G25G10G05G29G04G02
 -21178903.23048 -16494176.43746  20789920.1884                   20789916.9774
 -18558475.30148 -14452292.00446  21888774.2034                   21888774.1884
 -14198354.70348 -11046741.82445  21902508.6254                   21902506.6524
 -24994190.12148 -19466984.48447  20313557.3914                   20313555.0634
 -11554292.09046  -8990861.55944  23676158.8594                   23676157.3954
  -2107775.32046  -1623045.95743  23826503.8674                   23826501.7154
 -19001293.33648 -14786581.60246  20969940.1644                   20969935.5234
 11  7 28  3  8 30.0000000  0  7G12G25G10G05G29G04G02
 -21134862.06248 -16459858.63746  20798301.3444                   20798298.3134
 -18582579.05548 -14471074.12946  21884187.4924                   21884187.1764
 -14100177.43047 -10970240.05945  21921191.0164                   21921188.3554
 -24997506.72348 -19469568.82047  20312926.5234                   20312923.6484
 -11616930.62146  -9039670.70344  23664240.0474                   23664237.8794
  -2005228.83246  -1543139.66443  23846018.2734                   23846016.8834
 -18950173.27048 -14746747.77046  20979667.8364                   20979663.2074
 11  7 28  3  9  0.0000000  0  7G12G25G10G05G29G04G02
 -21090262.14848 -16425105.45346  20806788.2424                   20806785.2504
 -18606159.52048 -14489448.50446  21879700.0554                   21879700.0354
 -14001591.31248 -10893419.69545  21939951.4924                   21939949.0554
 -25000259.16848 -19471713.56247  20312402.5394                   20312399.6524
 -11679602.01646  -9088505.46144  23652314.3834                   23652311.2424
  -1902729.37547  -1463269.98443  23865524.3834                   23865522.3484
 -18898919.52048 -14706809.77046  20989421.2344                   20989416.4264
 11  7 28  3  9 30.0000000  0  7G12G25G10G05G29G04G02
 -21045101.22348 -16389915.11746  20815381.8524                   20815379.3054
 -18629212.00448 -14507411.46146  21875313.3674                   21875313.5084
 -13902596.16848 -10816280.61345  21958789.5394                   21958786.7854
 -25002444.09848 -19473416.07847  20311986.5474                   20311984.1604
 -11742301.91846  -9137362.44944  23640381.9694                   23640379.6414
  -1800274.07047  -1383434.70343  23885021.0084                   23885019.0984
 -18847529.60248 -14666765.65246  20999200.2894                   20999195.8794
 11  7 28  3 10  0.0000000  0  7G12G25G10G05G29G04G02
 -20999373.47348 -16354283.09446  20824083.5314                   20824080.7934
 -18651728.50048 -14524956.75446  21871028.6724                   21871028.7424
 -13803188.30947 -10738819.91445  21977706.6174                   21977703.2544
 -25004054.64548 -19474671.03547  20311680.4224                   20311677.8244
 -11805022.97746  -9186235.91044  23628445.7734                   23628444.2154
  -1697857.24647  -1303629.38743  23904509.0164                   23904507.9184
 -18795997.63748 -14626610.86346  21009006.3984                   21009002.1254
 11  7 28  3 10 30.0000000  0  7G12G25G10G05G29G04G02
 -20953078.77348 -16318209.30546  20832893.5704                   20832890.6134
 -18673706.54748 -14542082.48446  21866846.5004                   21866846.0084
 -13703369.34447 -10661038.87945  21996701.5554                   21996698.9534
 -25005088.89848 -19475476.91847  20311483.2344                   20311480.8484
 -11867763.04346  -9235124.15643  23616507.0784                   23616506.4024
  -1595478.25847  -1223853.63744  23923992.0554                   23923991.0744
 -18744323.55147 -14586345.33246  21018839.5394                   21018835.4614
 11  7 28  3 11  0.0000000  0  7G12G25G10G05G29G04G02
 -20906224.63748 -16281699.58246  20841809.2584                   20841806.3014
 -18695150.59048 -14558792.10246  21862765.5164                   21862766.1454
 -13603148.10547 -10582944.42245  22015772.8984                   22015769.9534
 -25005552.98848 -19475838.52047  20311395.2734                   20311392.5394
 -11930526.69546  -9284030.79743  23604563.1884                   23604561.6764
  -1493143.78547  -1144112.52343  23943465.5314                   23943464.6684
 -18692514.03948 -14545974.26646  21028699.1174                   21028694.6804
 11  7 28  3 11 30.0000000  0  7G12G25G10G05G29G04G02
 -20858809.67648 -16244752.86746  20850832.1024                   20850829.0474
 -18716057.10248 -14575082.85946  21858786.9614                   21858787.3404
 -13502525.48047 -10504537.15645  22034921.0004                   22034918.6374
 -25005444.29748 -19475753.80947  20311415.8594                   20311413.5044
 -11993310.83646  -9332953.43443  23592615.8204                   23592614.7464
  -1390852.12946  -1064404.78144  23962930.1484                   23962929.5744
 -18640567.62148 -14505496.52746  21038583.9694                   21038578.8404
 11  7 28  3 12  0.0000000  0  7G12G25G10G05G29G04G02
 -20810833.59048 -16207368.89146  20859961.4774                   20859959.0944
 -18736423.25448 -14590952.56246  21854911.7584                   21854911.6804
 -13401502.72347 -10425818.13745  22054144.8594                   22054141.8014
 -25004761.07848 -19475221.41047  20311545.5634                   20311543.2304
 -12056112.73846  -9381889.89544  23580665.2814                   23580664.1414
  -1288602.40647   -984729.72744  23982388.3134                   23982386.6914
 -18588484.10548 -14464911.95746  21048495.1094                   21048490.5634
 11  7 28  3 12 30.0000000  0  7G12G25G10G05G29G04G02
 -20762293.18047 -16169545.20746  20869198.1024                   20869195.4304
 -18756243.43048 -14606396.82846  21851140.1954                   21851140.1054
 -13300078.17647 -10346786.00845  22073445.3364                   22073443.4184
 -25003499.00448 -19474237.95347  20311785.7974                   20311783.2624
 -12118927.26646  -9430836.23044  23568711.3134                   23568709.6954
  -1186391.19946   -905084.65644  24001838.3054                   24001836.7624
 -18536259.63348 -14424217.55546  21058432.7034                   21058428.2894
 11  7 28  3 13  0.0000000  0  7G12G25G10G05G29G04G02
 -20713192.08248 -16131284.60546  20878541.8284                   20878539.2734
 -18775518.65248 -14621416.44946  21847472.2814                   21847472.0234
 -13198257.00847 -10267444.84845  22092821.0234                   22092818.6644
 -25001660.19948 -19472805.09847  20312135.7664                   20312133.3794
 -12181755.74646  -9479793.40244  23556755.6024                   23556754.2424
  -1084221.02746   -825471.57043  24021279.9224                   24021278.9344
 -18483897.25848 -14383415.69146  21068397.1954                   21068392.5594
 11  7 28  3 13 30.0000000  0  7G12G25G10G05G29G04G02
 -20663536.00848 -16092591.55946  20887991.4064                   20887988.7814
 -18794252.46148 -14636014.19546  21843907.1804                   21843907.2934
 -13096047.19147 -10187800.83645  22112269.9534                   22112268.3634
 -24999249.34848 -19470926.48847  20312594.2974                   20312591.9534
 -12244601.65646  -9528764.16444  23544796.2814                   23544795.1884
   -982097.66046   -745894.98043  24040713.6024                   24040713.4144
 -18431402.61348 -14342510.76646  21078386.4924                   21078382.1024
 11  7 28  3 14  0.0000000  0  7G12G25G10G05G29G04G02
 -20613318.41847 -16053460.97346  20897547.4534                   20897544.5704
 -18812435.43048 -14650182.72346  21840447.0704                   21840446.8054
 -12993443.14547 -10107849.63745  22131795.5004                   22131793.4144
 -24996258.10948 -19468595.62547  20313163.9844                   20313161.3674
 -12307455.88347  -9577741.43444  23532835.9454                   23532834.0204
   -880013.16846   -666348.66043  24060138.2894                   24060139.0984
 -18378768.39148 -14301497.05946  21088402.4924                   21088398.0204
 11  7 28  3 14 30.0000000  0  7G12G25G10G05G29G04G02
 -20562545.85948 -16013897.94546  20907209.2424                   20907206.2504
 -18830072.33248 -14663925.73046  21837090.6024                   21837090.5784
 -12890454.15247 -10027598.46945  22151394.0554                   22151390.9964
 -24992692.27048 -19465817.03147  20313842.1804                   20313839.4574
 -12370323.40247  -9626729.07044  23520872.6884                   23520871.0904
   -777974.23446   -586837.86743  24079557.0084                   24079556.3054
 -18326001.50048 -14260380.00046  21098443.8054                   21098439.0234
 11  7 28  3 15  0.0000000  0  7G12G25G10G05G29G04G02
 -20511226.48048 -15973908.82046  20916975.2424                   20916972.2274
 -18847168.43748 -14677247.34846  21833837.2584                   21833837.0084
 -12787089.31647  -9947054.45345  22171063.5784                   22171060.7584
 -24988558.58648 -19462595.95347  20314628.8364                   20314626.6524
 -12433209.60947  -9675731.26244  23508905.9064                   23508904.1334
   -675987.95346   -507368.06643  24098964.2974                   24098963.6414
 -18273109.25447 -14219165.24646  21108508.9384                   21108504.3164
 11  7 28  3 15 30.0000000  0  7G12G25G10G05G29G04G02
 -20459350.67248 -15933486.10946  20926846.5554                   20926843.8834
 -18863711.17648 -14690137.78546  21830689.1334                   21830689.2734
 -12683340.19547  -9866210.98845  22190805.8834                   22190803.7734
 -24983845.77748 -19458923.59847  20315525.8754                   20315522.9024
 -12496101.84847  -9724738.18045  23496938.4844                   23496935.9734
   -574043.38746   -427930.67244  24118363.3284                   24118363.5514
 -18220081.11748 -14177844.59446  21118599.3524                   21118594.9304
 11  7 28  3 16  0.0000000  0  7G12G25G10G05G29G04G02
 -20406921.42248 -15892632.14146  20936823.8444                   20936821.0984
 -18879701.44548 -14702597.71546  21827646.8594                   21827646.2974
 -12579212.10247  -9785072.20345  22210621.2344                   22210618.8014
 -24978555.39848 -19454801.21147  20316532.4064                   20316529.7154
 -12559000.90247  -9773750.37945  23484968.2584                   23484966.7774
   -472143.40246   -348528.18443  24137754.4774                   24137753.4454
 -18166919.66048 -14136420.06246  21128715.8984                   21128711.4494
 11  7 28  3 16 30.0000000  0  7G12G25G10G05G29G04G02
 -20353942.34448 -15851349.74646  20946904.9774                   20946902.5904
 -18895140.58248 -14714628.20346  21824708.7974                   21824708.0984
 -12474710.05547  -9703642.02745  22230507.3914                   22230504.8164
 -24972690.25848 -19450230.93047  20317648.5474                   20317645.7424
 -12621908.41847  -9822769.17245  23472997.6484                   23472995.6884
   -370290.86746   -269162.55543  24157136.6414                   24157135.7774
 -18113628.25448 -14094894.27746  21138857.0944                   21138852.3094
 11  7 28  3 17  0.0000000  0  7G12G25G10G05G29G04G02
 -20300417.41448 -15809642.00446  20957090.8834                   20957087.8674
 -18910029.48848 -14726229.93446  21821874.7894                   21821874.8094
 -12369839.03947  -9621924.34845  22250463.4454                   22250460.5904
 -24966252.05548 -19445214.12947  20318873.7584                   20318871.2734
 -12684825.00847  -9871795.03145  23461025.1414                   23461023.2624
   -268488.09846   -189835.77043  24176509.0704                   24176508.2544
 -18060209.50447 -14053269.26646  21149021.9774                   21149017.6484
 11  7 28  3 17 30.0000000  0  7G12G25G10G05G29G04G02
 -20246342.75047 -15767505.90246  20967380.6174                   20967377.5634
 -18924362.19148 -14737398.27046  21819148.4304                   21819147.4844
 -12264597.02747  -9539917.58645  22270490.4064                   22270488.1524
 -24959236.32048 -19439747.29347  20320208.7584                   20320205.7584
 -12747744.77347  -9920823.39145  23449051.6884                   23449050.4654
   -166730.93046   -110544.45343  24195873.5704                   24195871.0274
 -18006659.62148 -14011542.06646  21159212.5084                   21159208.1134
 11  7 28  3 18  0.0000000  0  7G12G25G10G05G29G04G02
 -20191720.87948 -15724943.39846  20977774.4924                   20977771.9734
 -18938138.46548 -14748133.02046  21816526.5164                   21816526.5474
 -12158987.91847  -9457624.78145  22290587.0164                   22290584.7234
 -24951644.02348 -19433831.20347  20321653.3834                   20321650.9654
 -12810667.57047  -9969854.09044  23437077.6024                   23437075.7154
    -65020.92246    -31289.90643  24215228.1414                   24215226.0744
 -17952980.09448 -13969713.85546  21169426.9614                   21169422.8444
 11  7 28  3 18 30.0000000  0  7G12G25G10G05G29G04G02
 -20136553.34848 -15681955.71546  20988273.0084                   20988270.4534
 -18951357.70348 -14758433.71146  21814010.5784                   21814010.3754
 -12053015.14547  -9375048.59445  22310753.0704                   22310751.0784
 -24943475.58648 -19427466.16047  20323207.4694                   20323205.6604
 -12873592.44147 -10018886.39844  23425103.7504                   23425101.3714
     36641.21546     47927.32442  24234573.7974                   24234571.4774
 -17899171.95748 -13927785.43046  21179666.5634                   21179661.9224
 11  7 28  3 19  0.0000000  0  7G12G25G10G05G29G04G02
 -20080838.64848 -15638541.66046  20998874.7664                   20998872.2074
 -18964015.80148 -14768297.15246  21811601.8284                   21811601.9184
 -11946678.56647  -9292188.90645  22330988.3284                   22330986.4494
 -24934728.44148 -19420650.16447  20324872.2344                   20324870.0234
 -12936514.80946 -10067916.75044  23413129.4614                   23413127.7974
    138258.03546    127109.21942  24253910.6804                   24253908.5274
 -17845232.97748 -13885755.03946  21189930.9774                   21189926.2664
 11  7 28  3 19 30.0000000  0  7G12G25G10G05G29G04G02
 -20024584.20348 -15594707.02046  21009580.1334                   21009576.5824
 -18976117.48848 -14777727.01246  21809299.2194                   21809299.7304
 -11839986.46147  -9209052.21945  22351291.0784                   22351289.0784
 -24925408.04748 -19413387.50847  20326645.8984                   20326643.2664
 -12999439.68447 -10116949.06644  23401155.5394                   23401153.3134
    239823.07046    206250.84843  24273237.4144                   24273236.3324
 -17791169.61348 -13843627.72746  21200218.6724                   21200214.4104
 11  7 28  3 20  0.0000000  0  7G12G25G10G05G29G04G02
 -19967789.78547 -15550451.62946  21020387.4454                   21020384.0164
 -18987660.23448 -14786721.33646  21807102.6484                   21807102.7664
 -11732940.41847  -9125639.72745  22371660.9144                   22371659.3914
 -24915513.22348 -19405677.22747  20328528.6884                   20328526.0434
 -13062364.07847 -10165980.98444  23389180.4844                   23389178.3404
    341337.84846    285353.23043  24292555.7034                   24292554.0664
 -17736981.09048 -13801402.90646  21210530.4924                   21210526.0434
 11  7 28  3 20 30.0000000  0  7G12G25G10G05G29G04G02
 -19910461.98847 -15505780.60546  21031296.7194                   21031293.3984
 -18998648.07848 -14795283.28146  21805011.5784                   21805012.1374
 -11625548.37547  -9041957.62145  22392097.2974                   22392095.7894
 -24905049.17648 -19397523.39847  20330519.9534                   20330517.3404
 -13125291.85947 -10215015.56244  23377206.7034                   23377204.0234
    442796.57446    364411.89842  24311863.8524                   24311859.5634
 -17682673.05948 -13759084.95746  21220864.8594                   21220860.3794
 11  7 28  3 21  0.0000000  0  7G12G25G10G05G29G04G02
 -19852589.73048 -15460685.33646  21042309.3364                   21042305.8524
 -19009067.62548 -14803402.36746  21803029.0634                   21803029.1564
 -11517801.09047  -8957998.72745  22412600.7814                   22412598.9964
 -24894003.62948 -19388916.47747  20332622.0944                   20332619.3674
 -13188209.55147 -10264042.28944  23365234.6334                   23365231.9384
    544211.18046    443436.35243  24331160.8834                   24331160.2814
 -17628233.87548 -13716664.81246  21231224.3284                   21231220.0554
 11  7 28  3 21 30.0000000  0  7G12G25G10G05G29G04G02
 -19794182.27348 -15415173.03546  21053424.1564                   21053421.0744
 -19018925.47748 -14811083.78946  21801153.3054                   21801152.8204
 -11409708.82047  -8873770.99244  22433170.0634                   22433167.6214
 -24882384.54748 -19379862.61747  20334833.0784                   20334830.0824
 -13251123.21547 -10313065.86745  23353261.7974                   23353259.8674
    645574.00446    522420.38343  24350449.8984                   24350448.7544
 -17573671.68748 -13674148.82046  21241607.1414                   21241602.3954
 11  7 28  3 22  0.0000000  0  7G12G25G10G05G29G04G02
 -19735239.63748 -15369243.69546  21064640.5554                   21064637.1724
 -19028219.37948 -14818325.77046  21799384.2344                   21799384.6954
 -11301273.01647  -8789275.56645  22453804.8914                   22453802.0004
 -24870191.10948 -19370361.21947  20337153.5864                   20337150.7304
 -13314030.04347 -10362084.09044  23341290.7194                   23341288.8634
    746885.79747    601364.61343  24369729.3524                   24369727.1414
 -17518985.73048 -13631536.38746  21252013.5004                   21252009.2034
 11  7 28  3 22 30.0000000  0  7G12G25G10G05G29G04G02
 -19675763.93448 -15322898.99246  21075958.1334                   21075955.1454
 -19036948.30948 -14825127.51646  21797723.4224                   21797722.8204
 -11192496.71147  -8704514.80545  22474504.1484                   22474502.1214
 -24857422.95348 -19360411.99247  20339583.1414                   20339580.0824
 -13376928.78947 -10411096.04345  23329321.0164                   23329320.2384
    848146.27346    680268.87543  24388997.7194                   24388997.2274
 -17464176.98048 -13588828.25446  21262443.3754                   21262438.8754
 11  7 28  3 23  0.0000000  0  7G12G25G10G05G29G04G02
 -19615756.67648 -15276140.09846  21087377.1724                   21087374.1804
 -19045111.53948 -14831488.44946  21796170.2504                   21796169.4184
 -11083382.90647  -8619491.05945  22495267.8754                   22495265.5164
 -24844080.53948 -19350015.28547  20342121.9144                   20342118.9414
 -13439818.35947 -10460100.85545  23317353.8284                   23317351.9264
    949354.93447    759132.85243  24408257.5314                   24408255.5234
 -17409245.68448 -13546024.64546  21272896.1564                   21272891.9304
 11  7 28  3 23 30.0000000  0  8G12G25G10G26G05G29G04G02
 -19555229.25848 -15228975.87146  21098895.4774                   21098892.1994
 -19052718.03548 -14837415.55946  21794722.3284                   21794722.1844
 -10973944.35547  -8534214.27345  22516093.8754                   22516091.7114
  -8021293.43856  -6238639.00053  24843984.9614                   24843983.6804
 -24830174.37548 -19339179.30147  20344768.2894                   20344765.5234
 -13502707.22747 -10509105.12544  23305386.7504                   23305384.4924
   1050501.65647    837948.53143  24427505.0944                   24427503.2624
 -17354202.51248 -13503133.84846  21283370.6804                   21283366.4224
 11  7 28  3 24  0.0000000  0  8G12G25G10G26G05G29G04G02
 -19494178.17648 -15181403.60546  21110512.3914                   21110509.8914
 -19059762.23448 -14842904.53146  21793381.8984                   21793381.0664
 -10864179.16847  -8448682.96545  22536981.4304                   22536979.0704
  -8096134.55146  -6296956.68743  24829743.0784                   24829741.7664
 -24815699.82048 -19327900.41847  20347522.5554                   20347520.0944
 -13565589.00446 -10558103.84844  23293420.1564                   23293418.7504
   1151590.70346    916719.28143  24446741.3914                   24446739.8094
 -17299043.42248 -13460152.73046  21293867.0164                   21293862.5704
 11  7 28  3 24 30.0000000  0  8G12G25G10G26G05G29G04G02
 -19432601.65648 -15133421.90646  21122230.6804                   21122227.4964
 -19066239.38748 -14847951.64546  21792149.1174                   21792149.3094
 -10754086.34447  -8362896.33245  22557931.3674                   22557929.2934
  -8171094.12546  -6355366.68043  24815478.8364                   24815477.2734
 -24800653.23448 -19316175.77747  20350385.9924                   20350382.9264
 -13628458.85947 -10607093.28144  23281456.8834                   23281453.9494
   1252625.46546    995447.72743  24465967.6024                   24465966.8134
 -17243764.93047 -13417078.57446  21304386.3914                   21304381.7344
 11  7 28  3 25  0.0000000  0  8G12G25G10G26G05G29G04G02
 -19370505.86348 -15085035.58646  21134047.2504                   21134044.1524
 -19072153.25048 -14852559.83246  21791024.0864                   21791023.7424
 -10643673.38747  -8276860.23845  22578942.0164                   22578939.4104
  -8246173.69146  -6413870.10943  24801192.3204                   24801190.3634
 -24785039.76248 -19304009.42647  20353356.9064                   20353354.1254
 -13691320.04747 -10656076.01244  23269495.2274                   23269492.4454
   1353601.35246   1074130.29343  24485182.0004                   24485181.7194
 -17188372.25047 -13373915.44546  21314927.3674                   21314922.5554
 11  7 28  3 25 30.0000000  0  8G12G25G10G26G05G29G04G02
 -19307890.04348 -15036244.03146  21145962.2114                   21145959.6094
 -19077500.82448 -14856726.74646  21790006.1884                   21790006.4104
 -10532941.06247  -8190575.30545  22600013.5864                   22600011.3094
  -8321368.15246  -6472463.14843  24786882.8204                   24786881.6914
 -24768857.62548 -19291399.95747  20356436.2504                   20356433.7734
 -13754168.59047 -10705048.85245  23257534.7664                   23257533.2154
   1454519.99646   1152768.23843  24504386.3594                   24504386.6804
 -17132863.75447 -13330662.08246  21325489.7734                   21325485.4804
 11  7 28  3 26  0.0000000  0  8G12G25G10G26G05G29G04G02
 -19244758.21148 -14987050.40246  21157975.7424                   21157972.6254
 -19082283.18048 -14860453.24646  21789096.2974                   21789096.0704
 -10421893.75447  -8104044.92644  22621145.1804                   22621142.1484
  -8396676.22746  -6531144.61343  24772551.9614                   24772551.4144
 -24752109.18048 -19278349.20747  20359623.0314                   20359620.5234
 -13817005.09447 -10754012.30945  23245577.4454                   23245575.3164
   1555379.16446   1231359.74643  24523579.5394                   24523579.7934
 -17077241.86748 -13287320.34046  21336074.6564                   21336069.5084
 11  7 28  3 26 30.0000000  0  8G12G25G10G26G05G29G04G02
 -19181104.75448 -14937450.30946  21170088.6564                   21170085.9844
 -19086492.86748 -14863733.51246  21788294.8204                   21788295.1174
 -10310527.98047  -8017266.41045  22642337.2504                   22642334.9104
  -8472088.36346  -6589907.21943  24758201.0394                   24758199.8444
 -24734787.90248 -19264852.08647  20362919.5314                   20362916.8204
 -13879821.27747 -10802959.95345  23233623.9534                   23233621.9844
   1656185.53946   1309910.10243  24542762.1804                   24542762.1134
 -17021500.64148 -13243885.62546  21346681.5474                   21346676.5434
 11  7 28  3 27  0.0000000  0  8G12G25G10G26G05G29G04G02
 -19116937.64148 -14887449.97346  21182299.1484                   21182296.5044
 -19090135.02748 -14866571.54346  21787602.0164                   21787602.3014
 -10198852.41447  -7930246.48444  22663588.8444                   22663586.4884
  -8547607.53546  -6648753.20743  24743829.7814                   24743829.6214
 -24716900.28948 -19250913.67247  20366323.2274                   20366320.8524
 -13942621.90247 -10851895.46544  23221673.2344                   23221671.8674
   1756933.04746   1388414.70743  24561934.4694                   24561933.9614
 -16965646.30148 -13200362.76246  21357310.3984                   21357305.6954
 11  7 28  3 27 30.0000000  0  8G12G25G10G26G05G29G04G02
 -19052252.60548 -14837046.05146  21194608.2034                   21194605.5004
 -19093202.75048 -14868961.96946  21787018.4454                   21787018.1884
 -10086863.94547  -7842982.75045  22684899.5394                   22684897.2544
  -8623224.55146  -6707675.41443  24729441.3754                   24729438.8674
 -24698440.52748 -19236529.42247  20369836.0084                   20369833.2544
 -14005398.99647 -10900812.62945  23209727.0164                   23209725.0354
   1857627.35546   1466877.82443  24581096.2974                   24581095.2344
 -16909673.03548 -13156747.23046  21367961.7664                   21367956.7854
 11  7 28  3 28  0.0000000  0  8G12G25G10G26G05G29G04G02
 -18987045.38748 -14786235.23046  21207016.8524                   21207014.1684
 -19095689.53548 -14870899.71146  21786544.8594                   21786544.7584
  -9974559.28547  -7755472.63345  22706270.2664                   22706268.0784
  -8698930.53946  -6766667.00843  24715035.1804                   24715032.8134
 -24679403.41048 -19221695.29347  20373458.7034                   20373456.2734
 -14068145.24247 -10949705.74644  23197786.6644                   23197785.2734
   1958274.33646   1545304.04343  24600248.1564                   24600247.2544
 -16853575.57448 -13113034.92646  21378636.9774                   21378631.9884
 11  7 28  3 28 30.0000000  0  8G12G25G10G26G05G29G04G02
 -18921329.40248 -14735027.98046  21219522.2274                   21219519.3404
 -19097606.48448 -14872393.41846  21786180.7424                   21786180.1254
  -9861953.09847  -7667727.53945  22727698.2814                   22727696.9494
  -8774734.24246  -6825734.71143  24700609.6724                   24700607.4184
 -24659800.90648 -19206420.59847  20377189.0864                   20377186.1174
 -14130871.19547 -10998583.07044  23185850.0084                   23185848.0044
   2058861.63346   1623683.88343  24619389.8674                   24619388.3484
 -16797366.33248 -13069235.52346  21389333.1484                   21389328.2624
 11  7 28  3 29  0.0000000  0  8G12G25G10G26G05G29G04G02
 -18855104.02748 -14683423.79346  21232125.0164                   21232121.8014
 -19098950.24648 -14873440.50446  21785924.2974                   21785924.3484
  -9749045.44547  -7579747.56245  22749184.7894                   22749182.2934
  -8850629.84046  -6884874.02743  24686166.7734                   24686165.6134
 -24639631.18448 -19190703.90247  20381026.9924                   20381024.9884
 -14193572.60946 -11047441.27744  23173918.8054                   23173916.1524
   2159391.90246   1702019.18843  24638519.1644                   24638517.7544
 -16741043.15248 -13025347.34446  21400051.1484                   21400046.5164
 11  7 28  3 29 30.0000000  0  8G12G25G10G26G05G29G04G02
 -18788371.02348 -14631424.06246  21244823.6804                   21244820.7934
 -19099720.21548 -14874040.45746  21785778.2034                   21785777.6684
  -9635839.34047  -7491535.01245  22770726.2584                   22770724.4884
  -8926614.48846  -6944082.73443  24671707.1884                   24671705.8954
 -24618894.59048 -19174545.50047  20384973.0704                   20384970.8164
 -14256247.73046 -11096278.98044  23161991.9144                   23161989.9384
   2259864.66846   1780309.68043  24657638.2584                   24657637.5554
 -16684606.62948 -12981370.82846  21410790.5554                   21410785.7304
 11  7 28  3 30  0.0000000  0  8G12G25G10G26G05G29G04G02
 -18721135.40248 -14579032.66046  21257618.0634                   21257615.0044
 -19099918.91848 -14874195.28946  21785740.7814                   21785739.6914
  -9522340.84847  -7403094.63745  22792324.6254                   22792322.4534
  -9002688.16047  -7003360.81243  24657231.2504                   24657228.7114
 -24597595.07848 -19157948.46147  20389026.4304                   20389024.2584
 -14318898.46546 -11145097.66044  23150069.9534                   23150067.9144
   2360276.88346   1858552.98843  24676746.7734                   24676745.1804
 -16628060.31648 -12937308.77746  21421550.7974                   21421546.4574
 11  7 28  3 30 30.0000000  0  8G12G25G10G26G05G29G04G02
 -18653399.04348 -14526251.09046  21270507.7734                   21270504.6804
 -19099546.02048 -14873904.69946  21785811.1484                   21785810.8714
  -9408552.93447  -7314428.73845  22813977.5554                   22813975.6454
  -9078847.84847  -7062705.94143  24642737.6724                   24642736.8674
 -24575733.46148 -19140913.42647  20393186.3364                   20393184.0004
 -14381523.38347 -11193896.23044  23138152.7974                   23138150.5204
   2460627.86346   1936748.64143  24695842.3204                   24695840.9884
 -16571404.78148 -12893161.60246  21432332.2274                   21432327.5634
